Long, Charles (2017): Radiosonde measurements from station Southern Great Plains (2014-05) [dataset]. Argonne National Laboratory, PANGAEA, https://doi.org/10.1594/PANGAEA.871097
Always quote citation above when using data! You can download the citation in several formats below.
Published: 2017-01-23 • DOI registered: 2017-02-20
Other version:
Long, Charles (2017): BSRN Station-to-archive file for station Billings (2014-05) [dataset]. ftp://ftp.bsrn.awi.de/bil/bil0514.dat.gz
Project(s):
Coverage:
Latitude: 36.605000 * Longitude: -97.516000
Date/Time Start: 2014-05-01T00:00:00 * Date/Time End: 2014-05-31T23:59:00
Minimum ALTITUDE: 315 m * Maximum ALTITUDE: 28342 m
Event(s):
BIL (Billings) * Latitude: 36.605000 * Longitude: -97.516000 * Date/Time: 1993-06-01T00:00:00 * Elevation: 317.0 m * Location: Oklahoma, United States of America * Method/Device: Monitoring station (MONS) * Comment: BSRN station no: 28; Surface type: grass; Topography type: flat, rural; Station scientist: Laura Riihimaki (laura.riihimaki@noaa.gov)
Comment:
Launches at irregular time intervals. The radiosonde measurements from station Southern Great Plains are used for Billings and E13
Parameter(s):
| # | Name | Short Name | Unit | Principal Investigator | Method/Device | Comment |
|---|---|---|---|---|---|---|
| 1 | DATE/TIME | Date/Time | Long, Charles | Geocode | ||
| 2 | ALTITUDE | Altitude | m | Long, Charles | Geocode | |
| 3 | Pressure, at given altitude | PPPP | hPa | Long, Charles | Radiosonde, Vaisala, RS80-15LH | |
| 4 | Temperature, air | TTT | °C | Long, Charles | Radiosonde, Vaisala, RS80-15LH | |
| 5 | Dew/frost point | TdTdTd | °C | Long, Charles | Radiosonde, Vaisala, RS80-15LH | |
| 6 | Wind direction | dd | deg | Long, Charles | Radiosonde, Vaisala, RS80-15LH | |
| 7 | Wind speed | ff | m/s | Long, Charles | Radiosonde, Vaisala, RS80-15LH |
License:
Size:
1523223 data points
Data
| 1 Date/Time | 2 Altitude [m] | 3 PPPP [hPa] | 4 TTT [°C] | 5 TdTdTd [°C] | 6 dd [deg] | 7 ff [m/s] |
|---|---|---|---|---|---|---|
| 2014-05-01T00:00 | 8677 | 324 | -38.5 | -67.5 | 280 | 24 |
| 2014-05-01T00:00 | 8685 | 324 | -38.5 | -67.9 | 280 | 24 |
| 2014-05-01T00:00 | 8694 | 323 | -38.6 | -68.3 | 280 | 24 |
| 2014-05-01T00:00 | 8702 | 323 | -38.6 | -68.6 | 279 | 24 |
| 2014-05-01T00:00 | 8711 | 322 | -38.5 | -69.0 | 279 | 24 |
| 2014-05-01T00:00 | 8720 | 322 | -38.6 | -69.4 | 279 | 25 |
| 2014-05-01T00:00 | 8730 | 321 | -38.7 | -69.7 | 279 | 25 |
| 2014-05-01T00:00 | 8740 | 321 | -38.7 | -69.8 | 279 | 25 |
| 2014-05-01T00:00 | 8748 | 321 | -38.8 | -69.8 | 279 | 25 |
| 2014-05-01T00:00 | 8757 | 320 | -38.8 | -69.8 | 279 | 26 |
| 2014-05-01T00:00 | 8766 | 320 | -38.8 | -69.9 | 279 | 26 |
| 2014-05-01T00:00 | 8775 | 319 | -38.9 | -70.1 | 279 | 26 |
| 2014-05-01T00:00 | 8785 | 319 | -38.9 | -70.3 | 279 | 26 |
| 2014-05-01T00:00 | 8795 | 318 | -38.9 | -70.4 | 279 | 27 |
| 2014-05-01T00:00 | 8804 | 318 | -38.8 | -70.4 | 279 | 27 |
| 2014-05-01T00:00 | 8814 | 318 | -38.7 | -70.5 | 279 | 27 |
| 2014-05-01T00:00 | 8828 | 317 | -38.6 | -70.3 | 279 | 28 |
| 2014-05-01T00:00 | 8843 | 316 | -38.4 | -69.5 | 279 | 28 |
| 2014-05-01T00:00 | 8855 | 316 | -38.2 | -68.8 | 279 | 28 |
| 2014-05-01T00:00 | 8863 | 315 | -38.3 | -68.7 | 279 | 29 |
| 2014-05-01T00:00 | 8871 | 315 | -38.3 | -68.7 | 278 | 29 |
| 2014-05-01T00:00 | 8881 | 315 | -38.3 | -68.6 | 278 | 29 |
| 2014-05-01T00:00 | 8890 | 314 | -38.3 | -68.3 | 278 | 30 |
| 2014-05-01T00:00 | 8898 | 314 | -38.3 | -67.9 | 278 | 30 |
| 2014-05-01T00:00 | 8907 | 313 | -38.2 | -67.5 | 277 | 30 |
| 2014-05-01T00:00 | 8916 | 313 | -38.1 | -67.1 | 277 | 31 |
| 2014-05-01T00:00 | 8925 | 312 | -38.0 | -66.7 | 277 | 31 |
| 2014-05-01T00:00 | 8934 | 312 | -38.1 | -66.4 | 277 | 31 |
| 2014-05-01T00:00 | 8943 | 312 | -38.1 | -66.2 | 277 | 32 |
| 2014-05-01T00:00 | 8952 | 311 | -38.2 | -66.0 | 276 | 32 |
| 2014-05-01T00:01 | 8961 | 311 | -38.3 | -65.9 | 276 | 32 |
| 2014-05-01T00:01 | 8970 | 310 | -38.3 | -65.7 | 276 | 32 |
| 2014-05-01T00:01 | 8978 | 310 | -38.1 | -64.9 | 276 | 32 |
| 2014-05-01T00:01 | 8988 | 310 | -38.0 | -64.2 | 276 | 32 |
| 2014-05-01T00:01 | 8997 | 309 | -38.1 | -63.7 | 276 | 32 |
| 2014-05-01T00:01 | 9006 | 309 | -38.1 | -63.5 | 276 | 33 |
| 2014-05-01T00:01 | 9015 | 308 | -38.2 | -63.3 | 276 | 33 |
| 2014-05-01T00:01 | 9024 | 308 | -38.3 | -63.1 | 275 | 33 |
| 2014-05-01T00:01 | 9033 | 308 | -38.2 | -62.8 | 275 | 33 |
| 2014-05-01T00:01 | 9043 | 307 | -38.3 | -62.6 | 275 | 33 |
| 2014-05-01T00:01 | 9053 | 307 | -38.3 | -62.2 | 275 | 33 |
| 2014-05-01T00:01 | 9063 | 306 | -38.4 | -61.7 | 275 | 33 |
| 2014-05-01T00:01 | 9073 | 306 | -38.5 | -61.2 | 275 | 33 |
| 2014-05-01T00:01 | 9083 | 305 | -38.6 | -61.0 | 274 | 33 |
| 2014-05-01T00:01 | 9093 | 305 | -38.7 | -60.8 | 274 | 33 |
| 2014-05-01T00:01 | 9103 | 305 | -38.8 | -60.7 | 274 | 33 |
| 2014-05-01T00:01 | 9113 | 304 | -38.8 | -60.3 | 274 | 33 |
| 2014-05-01T00:01 | 9123 | 304 | -38.8 | -60.2 | 274 | 33 |
| 2014-05-01T00:01 | 9132 | 303 | -39.0 | -60.3 | 274 | 33 |
| 2014-05-01T00:01 | 9141 | 303 | -39.0 | -60.4 | 274 | 33 |
| 2014-05-01T00:01 | 9149 | 302 | -39.2 | -60.5 | 273 | 33 |
| 2014-05-01T00:01 | 9158 | 302 | -39.2 | -60.5 | 273 | 33 |
| 2014-05-01T00:01 | 9168 | 302 | -39.3 | -60.5 | 273 | 33 |
| 2014-05-01T00:01 | 9177 | 301 | -39.4 | -60.5 | 273 | 33 |
| 2014-05-01T00:01 | 9186 | 301 | -39.5 | -60.5 | 273 | 33 |
| 2014-05-01T00:01 | 9195 | 300 | -39.5 | -60.5 | 273 | 33 |
| 2014-05-01T00:01 | 9204 | 300 | -39.5 | -60.6 | 273 | 32 |
| 2014-05-01T00:01 | 9212 | 300 | -39.6 | -60.7 | 273 | 32 |
| 2014-05-01T00:01 | 9222 | 299 | -39.7 | -60.7 | 273 | 32 |
| 2014-05-01T00:01 | 9231 | 299 | -39.8 | -60.6 | 273 | 32 |
| 2014-05-01T00:02 | 9240 | 298 | -39.9 | -60.6 | 273 | 32 |
| 2014-05-01T00:02 | 9249 | 298 | -39.9 | -60.5 | 273 | 32 |
| 2014-05-01T00:02 | 9258 | 298 | -40.0 | -60.5 | 274 | 32 |
| 2014-05-01T00:02 | 9267 | 297 | -40.1 | -60.5 | 274 | 32 |
| 2014-05-01T00:02 | 9276 | 297 | -40.2 | -60.5 | 274 | 32 |
| 2014-05-01T00:02 | 9286 | 296 | -40.2 | -60.6 | 274 | 32 |
| 2014-05-01T00:02 | 9295 | 296 | -40.3 | -60.6 | 274 | 32 |
| 2014-05-01T00:02 | 9304 | 296 | -40.4 | -60.5 | 274 | 32 |
| 2014-05-01T00:02 | 9313 | 295 | -40.5 | -60.5 | 274 | 32 |
| 2014-05-01T00:02 | 9322 | 295 | -40.6 | -60.6 | 274 | 32 |
| 2014-05-01T00:02 | 9331 | 294 | -40.6 | -60.6 | 274 | 32 |
| 2014-05-01T00:02 | 9340 | 294 | -40.7 | -60.5 | 274 | 32 |
| 2014-05-01T00:02 | 9349 | 294 | -40.8 | -60.5 | 274 | 32 |
| 2014-05-01T00:02 | 9359 | 293 | -40.9 | -60.6 | 274 | 32 |
| 2014-05-01T00:02 | 9368 | 293 | -41.0 | -60.6 | 274 | 32 |
| 2014-05-01T00:02 | 9377 | 293 | -41.0 | -60.5 | 274 | 32 |
| 2014-05-01T00:02 | 9387 | 292 | -41.1 | -60.5 | 274 | 32 |
| 2014-05-01T00:02 | 9397 | 292 | -41.2 | -60.6 | 275 | 32 |
| 2014-05-01T00:02 | 9407 | 291 | -41.3 | -60.6 | 275 | 32 |
| 2014-05-01T00:02 | 9417 | 291 | -41.4 | -60.5 | 275 | 32 |
| 2014-05-01T00:02 | 9426 | 290 | -41.5 | -60.5 | 275 | 32 |
| 2014-05-01T00:02 | 9436 | 290 | -41.5 | -60.5 | 275 | 32 |
| 2014-05-01T00:02 | 9446 | 290 | -41.7 | -60.5 | 275 | 32 |
| 2014-05-01T00:02 | 9456 | 289 | -41.8 | -60.5 | 276 | 32 |
| 2014-05-01T00:02 | 9467 | 289 | -41.8 | -60.5 | 276 | 32 |
| 2014-05-01T00:02 | 9477 | 288 | -41.9 | -60.6 | 276 | 32 |
| 2014-05-01T00:02 | 9487 | 288 | -42.0 | -60.7 | 276 | 32 |
| 2014-05-01T00:02 | 9496 | 287 | -42.1 | -60.6 | 276 | 32 |
| 2014-05-01T00:02 | 9505 | 287 | -42.1 | -60.4 | 276 | 32 |
| 2014-05-01T00:02 | 9514 | 287 | -42.2 | -60.3 | 276 | 32 |
| 2014-05-01T00:03 | 9524 | 286 | -42.3 | -60.4 | 276 | 32 |
| 2014-05-01T00:03 | 9534 | 286 | -42.4 | -60.5 | 276 | 32 |
| 2014-05-01T00:03 | 9543 | 285 | -42.5 | -60.5 | 277 | 31 |
| 2014-05-01T00:03 | 9552 | 285 | -42.6 | -60.5 | 277 | 31 |
| 2014-05-01T00:03 | 9561 | 285 | -42.7 | -60.6 | 277 | 31 |
| 2014-05-01T00:03 | 9571 | 284 | -42.8 | -60.5 | 277 | 31 |
| 2014-05-01T00:03 | 9580 | 284 | -42.8 | -60.6 | 278 | 31 |
| 2014-05-01T00:03 | 9590 | 283 | -42.9 | -60.5 | 278 | 31 |
| 2014-05-01T00:03 | 9600 | 283 | -42.9 | -60.5 | 278 | 31 |
| 2014-05-01T00:03 | 9611 | 283 | -43.0 | -60.6 | 279 | 32 |
| 2014-05-01T00:03 | 9624 | 282 | -43.1 | -60.7 | 279 | 32 |
| 2014-05-01T00:03 | 9641 | 281 | -43.3 | -60.8 | 279 | 32 |
| 2014-05-01T00:03 | 9655 | 281 | -43.5 | -60.9 | 280 | 32 |
| 2014-05-01T00:03 | 9665 | 280 | -43.7 | -61.1 | 280 | 32 |
| 2014-05-01T00:03 | 9675 | 280 | -43.7 | -61.1 | 280 | 32 |
| 2014-05-01T00:03 | 9684 | 280 | -43.8 | -61.1 | 280 | 31 |
| 2014-05-01T00:03 | 9694 | 279 | -43.8 | -61.2 | 280 | 31 |
| 2014-05-01T00:03 | 9704 | 279 | -43.9 | -61.2 | 280 | 31 |
| 2014-05-01T00:03 | 9712 | 278 | -44.0 | -61.2 | 280 | 31 |
| 2014-05-01T00:03 | 9720 | 278 | -44.0 | -61.2 | 280 | 31 |
| 2014-05-01T00:03 | 9729 | 278 | -44.0 | -61.1 | 281 | 31 |
| 2014-05-01T00:03 | 9738 | 277 | -44.1 | -61.1 | 281 | 31 |
| 2014-05-01T00:03 | 9746 | 277 | -44.1 | -61.1 | 281 | 31 |
| 2014-05-01T00:03 | 9756 | 277 | -44.2 | -61.0 | 281 | 31 |
| 2014-05-01T00:03 | 9766 | 276 | -44.3 | -61.0 | 281 | 31 |
| 2014-05-01T00:03 | 9776 | 276 | -44.4 | -61.0 | 281 | 31 |
| 2014-05-01T00:03 | 9785 | 275 | -44.5 | -60.9 | 281 | 31 |
| 2014-05-01T00:03 | 9793 | 275 | -44.5 | -60.8 | 281 | 31 |
| 2014-05-01T00:03 | 9802 | 275 | -44.5 | -60.7 | 281 | 31 |
| 2014-05-01T00:03 | 9811 | 274 | -44.7 | -60.7 | 281 | 31 |
| 2014-05-01T00:04 | 9819 | 274 | -44.8 | -60.7 | 281 | 31 |
| 2014-05-01T00:04 | 9828 | 274 | -44.8 | -60.7 | 281 | 31 |
| 2014-05-01T00:04 | 9836 | 273 | -44.9 | -60.7 | 281 | 31 |
| 2014-05-01T00:04 | 9843 | 273 | -45.0 | -60.7 | 281 | 31 |
| 2014-05-01T00:04 | 9851 | 273 | -45.0 | -60.7 | 281 | 31 |
| 2014-05-01T00:04 | 9859 | 272 | -45.1 | -60.8 | 281 | 31 |
| 2014-05-01T00:04 | 9868 | 272 | -45.2 | -60.8 | 281 | 31 |
| 2014-05-01T00:04 | 9877 | 272 | -45.3 | -60.9 | 281 | 31 |
| 2014-05-01T00:04 | 9884 | 271 | -45.4 | -60.9 | 281 | 31 |
| 2014-05-01T00:04 | 9893 | 271 | -45.4 | -60.9 | 282 | 31 |
| 2014-05-01T00:04 | 9902 | 271 | -45.5 | -60.8 | 282 | 31 |
| 2014-05-01T00:04 | 9911 | 270 | -45.5 | -60.8 | 282 | 31 |
| 2014-05-01T00:04 | 9920 | 270 | -45.6 | -60.9 | 282 | 31 |
| 2014-05-01T00:04 | 9929 | 269 | -45.7 | -60.9 | 282 | 31 |
| 2014-05-01T00:04 | 9938 | 269 | -45.8 | -61.0 | 282 | 31 |
| 2014-05-01T00:04 | 9948 | 269 | -45.9 | -61.2 | 282 | 30 |
| 2014-05-01T00:04 | 9957 | 268 | -46.0 | -61.3 | 282 | 30 |
| 2014-05-01T00:04 | 9965 | 268 | -46.0 | -61.3 | 282 | 30 |
| 2014-05-01T00:04 | 9974 | 268 | -46.1 | -61.4 | 282 | 30 |
| 2014-05-01T00:04 | 9982 | 267 | -46.2 | -61.4 | 282 | 30 |
| 2014-05-01T00:04 | 9991 | 267 | -46.2 | -61.3 | 282 | 30 |
| 2014-05-01T00:04 | 10000 | 267 | -46.2 | -61.3 | 282 | 30 |
| 2014-05-01T00:04 | 10009 | 266 | -46.4 | -61.3 | 282 | 30 |
| 2014-05-01T00:04 | 10018 | 266 | -46.4 | -61.3 | 282 | 30 |
| 2014-05-01T00:04 | 10026 | 266 | -46.5 | -61.3 | 282 | 30 |
| 2014-05-01T00:04 | 10035 | 265 | -46.5 | -61.4 | 282 | 30 |
| 2014-05-01T00:04 | 10043 | 265 | -46.7 | -61.5 | 282 | 30 |
| 2014-05-01T00:04 | 10052 | 265 | -46.7 | -61.4 | 282 | 30 |
| 2014-05-01T00:04 | 10060 | 264 | -46.7 | -61.4 | 282 | 30 |
| 2014-05-01T00:04 | 10070 | 264 | -46.8 | -61.5 | 282 | 30 |
| 2014-05-01T00:05 | 10078 | 263 | -46.9 | -61.6 | 282 | 30 |
| 2014-05-01T00:05 | 10087 | 263 | -47.0 | -61.6 | 282 | 30 |
| 2014-05-01T00:05 | 10095 | 263 | -47.1 | -61.7 | 283 | 30 |
| 2014-05-01T00:05 | 10103 | 263 | -47.2 | -61.7 | 283 | 30 |
| 2014-05-01T00:05 | 10112 | 262 | -47.2 | -61.8 | 283 | 30 |
| 2014-05-01T00:05 | 10122 | 262 | -47.2 | -61.8 | 283 | 30 |
| 2014-05-01T00:05 | 10135 | 261 | -47.4 | -61.8 | 283 | 30 |
| 2014-05-01T00:05 | 10149 | 261 | -47.6 | -61.7 | 282 | 30 |
| 2014-05-01T00:05 | 10162 | 260 | -47.7 | -61.5 | 282 | 30 |
| 2014-05-01T00:05 | 10174 | 260 | -47.8 | -61.4 | 282 | 30 |
| 2014-05-01T00:05 | 10183 | 259 | -47.9 | -61.2 | 281 | 30 |
| 2014-05-01T00:05 | 10196 | 259 | -48.0 | -61.1 | 281 | 30 |
| 2014-05-01T00:05 | 10212 | 258 | -48.1 | -61.0 | 281 | 30 |
| 2014-05-01T00:05 | 10225 | 258 | -48.3 | -60.9 | 280 | 30 |
| 2014-05-01T00:05 | 10240 | 257 | -48.4 | -60.9 | 280 | 31 |
| 2014-05-01T00:05 | 10251 | 257 | -48.5 | -60.9 | 279 | 31 |
| 2014-05-01T00:05 | 10260 | 256 | -48.5 | -60.9 | 279 | 31 |
| 2014-05-01T00:05 | 10269 | 256 | -48.6 | -61.0 | 279 | 31 |
| 2014-05-01T00:05 | 10278 | 256 | -48.7 | -61.0 | 279 | 31 |
| 2014-05-01T00:05 | 10286 | 255 | -48.7 | -61.0 | 279 | 31 |
| 2014-05-01T00:05 | 10295 | 255 | -48.7 | -61.1 | 279 | 31 |
| 2014-05-01T00:05 | 10304 | 255 | -48.8 | -61.2 | 279 | 31 |
| 2014-05-01T00:05 | 10313 | 254 | -48.9 | -61.2 | 279 | 31 |
| 2014-05-01T00:05 | 10321 | 254 | -49.0 | -61.3 | 279 | 30 |
| 2014-05-01T00:05 | 10329 | 254 | -49.1 | -61.3 | 279 | 30 |
| 2014-05-01T00:05 | 10338 | 253 | -49.1 | -61.3 | 279 | 30 |
| 2014-05-01T00:05 | 10346 | 253 | -49.2 | -61.4 | 279 | 30 |
| 2014-05-01T00:05 | 10355 | 253 | -49.3 | -61.5 | 279 | 30 |
| 2014-05-01T00:05 | 10364 | 252 | -49.4 | -61.6 | 279 | 30 |
| 2014-05-01T00:05 | 10372 | 252 | -49.4 | -61.7 | 279 | 30 |
| 2014-05-01T00:06 | 10381 | 252 | -49.5 | -61.8 | 279 | 30 |
| 2014-05-01T00:06 | 10390 | 251 | -49.5 | -61.8 | 279 | 30 |
| 2014-05-01T00:06 | 10399 | 251 | -49.5 | -62.0 | 279 | 31 |
| 2014-05-01T00:06 | 10408 | 251 | -49.6 | -62.0 | 280 | 31 |
| 2014-05-01T00:06 | 10417 | 250 | -49.7 | -62.1 | 280 | 31 |
| 2014-05-01T00:06 | 10427 | 250 | -49.7 | -62.2 | 280 | 31 |
| 2014-05-01T00:06 | 10436 | 250 | -49.8 | -62.2 | 280 | 31 |
| 2014-05-01T00:06 | 10444 | 249 | -49.8 | -62.3 | 280 | 31 |
| 2014-05-01T00:06 | 10453 | 249 | -49.9 | -62.4 | 280 | 31 |
| 2014-05-01T00:06 | 10462 | 249 | -50.0 | -62.5 | 280 | 31 |
| 2014-05-01T00:06 | 10471 | 248 | -50.1 | -62.5 | 280 | 31 |
| 2014-05-01T00:06 | 10479 | 248 | -50.2 | -62.5 | 280 | 31 |
| 2014-05-01T00:06 | 10488 | 248 | -50.2 | -62.5 | 280 | 31 |
| 2014-05-01T00:06 | 10497 | 247 | -50.3 | -62.6 | 280 | 31 |
| 2014-05-01T00:06 | 10506 | 247 | -50.4 | -62.5 | 281 | 31 |
| 2014-05-01T00:06 | 10514 | 247 | -50.5 | -62.5 | 281 | 31 |
| 2014-05-01T00:06 | 10523 | 246 | -50.6 | -62.5 | 281 | 31 |
| 2014-05-01T00:06 | 10533 | 246 | -50.6 | -62.5 | 281 | 31 |
| 2014-05-01T00:06 | 10541 | 246 | -50.7 | -62.5 | 281 | 31 |
| 2014-05-01T00:06 | 10550 | 245 | -50.8 | -62.6 | 281 | 30 |
| 2014-05-01T00:06 | 10559 | 245 | -50.8 | -62.6 | 281 | 30 |
| 2014-05-01T00:06 | 10569 | 245 | -50.9 | -62.7 | 281 | 30 |
| 2014-05-01T00:06 | 10578 | 244 | -50.9 | -62.7 | 281 | 30 |
| 2014-05-01T00:06 | 10587 | 244 | -51.0 | -62.8 | 281 | 30 |
| 2014-05-01T00:06 | 10595 | 244 | -51.1 | -62.8 | 281 | 30 |
| 2014-05-01T00:06 | 10603 | 243 | -51.1 | -62.8 | 281 | 30 |
| 2014-05-01T00:06 | 10613 | 243 | -51.2 | -62.8 | 281 | 30 |
| 2014-05-01T00:06 | 10621 | 243 | -51.3 | -62.9 | 281 | 30 |
| 2014-05-01T00:06 | 10631 | 242 | -51.4 | -63.1 | 281 | 30 |
| 2014-05-01T00:06 | 10639 | 242 | -51.5 | -63.3 | 281 | 30 |
| 2014-05-01T00:07 | 10647 | 242 | -51.5 | -63.4 | 281 | 30 |
| 2014-05-01T00:07 | 10655 | 241 | -51.6 | -63.6 | 281 | 30 |
| 2014-05-01T00:07 | 10664 | 241 | -51.7 | -63.7 | 282 | 30 |
| 2014-05-01T00:07 | 10673 | 241 | -51.8 | -63.7 | 282 | 30 |
| 2014-05-01T00:07 | 10683 | 240 | -51.8 | -63.7 | 282 | 30 |
| 2014-05-01T00:07 | 10693 | 240 | -51.9 | -63.6 | 282 | 29 |
| 2014-05-01T00:07 | 10702 | 240 | -52.0 | -63.5 | 282 | 29 |
| 2014-05-01T00:07 | 10710 | 239 | -52.0 | -63.5 | 282 | 29 |
| 2014-05-01T00:07 | 10719 | 239 | -52.1 | -63.5 | 282 | 29 |
| 2014-05-01T00:07 | 10729 | 239 | -52.2 | -63.6 | 282 | 29 |
| 2014-05-01T00:07 | 10739 | 238 | -52.3 | -63.8 | 282 | 29 |
| 2014-05-01T00:07 | 10748 | 238 | -52.2 | -63.8 | 282 | 30 |
| 2014-05-01T00:07 | 10756 | 238 | -52.2 | -64.1 | 282 | 30 |
| 2014-05-01T00:07 | 10766 | 237 | -52.3 | -64.4 | 282 | 30 |
| 2014-05-01T00:07 | 10775 | 237 | -52.4 | -64.8 | 282 | 30 |
| 2014-05-01T00:07 | 10785 | 236 | -52.4 | -65.1 | 282 | 30 |
| 2014-05-01T00:07 | 10795 | 236 | -52.5 | -65.4 | 283 | 30 |
| 2014-05-01T00:07 | 10804 | 236 | -52.5 | -65.6 | 283 | 30 |
| 2014-05-01T00:07 | 10813 | 235 | -52.1 | -65.5 | 283 | 30 |
| 2014-05-01T00:07 | 10822 | 235 | -51.7 | -65.5 | 283 | 30 |
| 2014-05-01T00:07 | 10832 | 235 | -51.6 | -65.6 | 283 | 30 |
| 2014-05-01T00:07 | 10842 | 234 | -51.6 | -65.7 | 283 | 29 |
| 2014-05-01T00:07 | 10851 | 234 | -51.5 | -65.8 | 283 | 29 |
| 2014-05-01T00:07 | 10861 | 234 | -51.4 | -65.9 | 284 | 29 |
| 2014-05-01T00:07 | 10871 | 233 | -51.3 | -66.0 | 284 | 29 |
| 2014-05-01T00:07 | 10881 | 233 | -51.3 | -66.2 | 284 | 29 |
| 2014-05-01T00:07 | 10891 | 233 | -51.3 | -66.3 | 284 | 29 |
| 2014-05-01T00:07 | 10902 | 232 | -51.3 | -66.3 | 284 | 29 |
| 2014-05-01T00:07 | 10912 | 232 | -51.4 | -66.3 | 284 | 28 |
| 2014-05-01T00:07 | 10923 | 232 | -51.4 | -66.2 | 284 | 28 |
| 2014-05-01T00:08 | 10934 | 231 | -51.5 | -66.3 | 284 | 28 |
| 2014-05-01T00:08 | 10944 | 231 | -51.5 | -66.3 | 284 | 28 |
| 2014-05-01T00:08 | 10955 | 230 | -51.6 | -66.4 | 284 | 28 |
| 2014-05-01T00:08 | 10966 | 230 | -51.7 | -66.4 | 284 | 27 |
| 2014-05-01T00:08 | 10976 | 230 | -51.8 | -66.5 | 284 | 27 |
| 2014-05-01T00:08 | 10986 | 229 | -51.8 | -66.4 | 284 | 27 |
| 2014-05-01T00:08 | 10997 | 229 | -51.8 | -66.4 | 284 | 27 |
| 2014-05-01T00:08 | 11007 | 229 | -51.9 | -66.5 | 284 | 27 |
| 2014-05-01T00:08 | 11017 | 228 | -52.0 | -66.6 | 283 | 27 |
| 2014-05-01T00:08 | 11027 | 228 | -52.1 | -66.6 | 283 | 27 |
| 2014-05-01T00:08 | 11037 | 227 | -52.2 | -66.7 | 283 | 27 |
| 2014-05-01T00:08 | 11047 | 227 | -52.4 | -66.7 | 283 | 27 |
| 2014-05-01T00:08 | 11056 | 227 | -52.4 | -66.7 | 283 | 26 |
| 2014-05-01T00:08 | 11065 | 226 | -52.4 | -66.7 | 283 | 26 |
| 2014-05-01T00:08 | 11075 | 226 | -52.5 | -66.7 | 282 | 26 |
| 2014-05-01T00:08 | 11085 | 226 | -52.6 | -66.8 | 282 | 26 |
| 2014-05-01T00:08 | 11094 | 225 | -52.7 | -66.9 | 282 | 26 |
| 2014-05-01T00:08 | 11104 | 225 | -52.8 | -66.9 | 281 | 26 |
| 2014-05-01T00:08 | 11114 | 225 | -52.9 | -67.0 | 281 | 26 |
| 2014-05-01T00:08 | 11125 | 224 | -53.0 | -67.1 | 281 | 26 |
| 2014-05-01T00:08 | 11137 | 224 | -53.0 | -67.0 | 280 | 26 |
| 2014-05-01T00:08 | 11148 | 224 | -53.0 | -67.0 | 280 | 26 |
| 2014-05-01T00:08 | 11160 | 223 | -53.0 | -67.0 | 279 | 26 |
| 2014-05-01T00:08 | 11172 | 223 | -53.1 | -67.1 | 279 | 26 |
| 2014-05-01T00:08 | 11184 | 222 | -53.2 | -67.2 | 278 | 26 |
| 2014-05-01T00:08 | 11198 | 222 | -53.2 | -67.3 | 277 | 26 |
| 2014-05-01T00:08 | 11209 | 221 | -53.2 | -67.3 | 277 | 25 |
| 2014-05-01T00:08 | 11221 | 221 | -53.3 | -67.4 | 276 | 25 |
| 2014-05-01T00:08 | 11236 | 221 | -53.3 | -67.5 | 275 | 25 |
| 2014-05-01T00:08 | 11251 | 220 | -53.3 | -67.6 | 274 | 25 |
| 2014-05-01T00:09 | 11264 | 220 | -53.5 | -67.7 | 273 | 25 |
| 2014-05-01T00:09 | 11275 | 219 | -53.6 | -67.7 | 272 | 25 |
| 2014-05-01T00:09 | 11285 | 219 | -53.6 | -67.8 | 271 | 24 |
| 2014-05-01T00:09 | 11294 | 219 | -53.7 | -67.7 | 270 | 24 |
| 2014-05-01T00:09 | 11302 | 218 | -53.7 | -67.7 | 270 | 24 |
| 2014-05-01T00:09 | 11313 | 218 | -53.7 | -67.8 | 269 | 24 |
| 2014-05-01T00:09 | 11326 | 217 | -53.7 | -67.8 | 268 | 23 |
| 2014-05-01T00:09 | 11343 | 217 | -53.8 | -67.8 | 267 | 23 |
| 2014-05-01T00:09 | 11358 | 216 | -53.9 | -67.9 | 267 | 23 |
| 2014-05-01T00:09 | 11368 | 216 | -54.0 | -68.0 | 266 | 23 |
| 2014-05-01T00:09 | 11378 | 216 | -54.1 | -68.0 | 266 | 23 |
| 2014-05-01T00:09 | 11387 | 215 | -54.2 | -68.1 | 266 | 23 |
| 2014-05-01T00:09 | 11397 | 215 | -54.3 | -68.2 | 266 | 23 |
| 2014-05-01T00:09 | 11408 | 215 | -54.4 | -68.3 | 266 | 23 |
| 2014-05-01T00:09 | 11417 | 214 | -54.4 | -68.3 | 266 | 22 |
| 2014-05-01T00:09 | 11427 | 214 | -54.3 | -68.3 | 266 | 22 |
| 2014-05-01T00:09 | 11438 | 214 | -54.3 | -68.3 | 266 | 22 |
| 2014-05-01T00:09 | 11448 | 213 | -54.4 | -68.4 | 265 | 22 |
| 2014-05-01T00:09 | 11458 | 213 | -54.5 | -68.5 | 265 | 22 |
| 2014-05-01T00:09 | 11471 | 213 | -54.6 | -68.6 | 265 | 22 |
| 2014-05-01T00:09 | 11487 | 212 | -54.7 | -68.6 | 264 | 22 |
| 2014-05-01T00:09 | 11503 | 212 | -54.8 | -68.7 | 263 | 21 |
| 2014-05-01T00:09 | 11516 | 211 | -55.0 | -68.7 | 262 | 21 |
| 2014-05-01T00:09 | 11530 | 211 | -55.1 | -68.8 | 261 | 21 |
| 2014-05-01T00:09 | 11544 | 210 | -55.2 | -68.8 | 260 | 21 |
| 2014-05-01T00:09 | 11554 | 210 | -55.3 | -68.8 | 259 | 21 |
| 2014-05-01T00:09 | 11563 | 210 | -55.4 | -68.8 | 257 | 21 |
| 2014-05-01T00:09 | 11574 | 209 | -55.4 | -68.8 | 256 | 22 |
| 2014-05-01T00:09 | 11585 | 209 | -55.5 | -68.8 | 255 | 22 |
| 2014-05-01T00:09 | 11596 | 209 | -55.5 | -68.8 | 254 | 22 |
| 2014-05-01T00:10 | 11611 | 208 | -55.6 | -68.9 | 252 | 22 |
| 2014-05-01T00:10 | 11627 | 207 | -55.6 | -68.9 | 251 | 23 |
| 2014-05-01T00:10 | 11639 | 207 | -55.6 | -68.9 | 250 | 23 |
| 2014-05-01T00:10 | 11649 | 207 | -55.7 | -69.1 | 249 | 23 |
| 2014-05-01T00:10 | 11659 | 206 | -55.7 | -69.1 | 248 | 24 |
| 2014-05-01T00:10 | 11670 | 206 | -55.6 | -69.2 | 247 | 24 |
| 2014-05-01T00:10 | 11683 | 206 | -55.8 | -69.4 | 247 | 24 |
| 2014-05-01T00:10 | 11694 | 205 | -55.8 | -69.6 | 246 | 25 |
| 2014-05-01T00:10 | 11707 | 205 | -55.9 | -69.8 | 245 | 25 |
| 2014-05-01T00:10 | 11723 | 204 | -55.8 | -69.9 | 244 | 26 |
| 2014-05-01T00:10 | 11739 | 204 | -55.8 | -70.1 | 243 | 26 |
| 2014-05-01T00:10 | 11752 | 203 | -55.8 | -70.3 | 242 | 26 |
| 2014-05-01T00:10 | 11762 | 203 | -55.8 | -70.4 | 241 | 27 |
| 2014-05-01T00:10 | 11776 | 203 | -55.8 | -70.6 | 240 | 27 |
| 2014-05-01T00:10 | 11794 | 202 | -55.6 | -70.6 | 239 | 28 |
| 2014-05-01T00:10 | 11811 | 202 | -55.5 | -70.7 | 238 | 28 |
| 2014-05-01T00:10 | 11827 | 201 | -55.5 | -70.8 | 237 | 29 |
| 2014-05-01T00:10 | 11845 | 200 | -55.5 | -71.0 | 236 | 29 |
| 2014-05-01T00:10 | 11864 | 200 | -55.4 | -71.2 | 235 | 29 |
| 2014-05-01T00:10 | 11877 | 199 | -55.3 | -71.3 | 235 | 30 |
| 2014-05-01T00:10 | 11888 | 199 | -55.3 | -71.3 | 234 | 30 |
| 2014-05-01T00:10 | 11896 | 199 | -55.3 | -71.4 | 233 | 30 |
| 2014-05-01T00:10 | 11906 | 199 | -55.3 | -71.6 | 233 | 31 |
| 2014-05-01T00:10 | 11917 | 198 | -55.3 | -71.8 | 233 | 31 |
| 2014-05-01T00:10 | 11925 | 198 | -55.3 | -72.0 | 232 | 32 |
| 2014-05-01T00:10 | 11933 | 198 | -55.3 | -72.2 | 232 | 32 |
| 2014-05-01T00:10 | 11942 | 197 | -55.2 | -72.4 | 232 | 32 |
| 2014-05-01T00:10 | 11951 | 197 | -55.2 | -72.6 | 232 | 33 |
| 2014-05-01T00:10 | 11960 | 197 | -55.1 | -72.9 | 232 | 33 |
| 2014-05-01T00:10 | 11969 | 197 | -55.0 | -73.0 | 233 | 33 |
| 2014-05-01T00:11 | 11978 | 196 | -54.9 | -73.3 | 233 | 33 |
| 2014-05-01T00:11 | 11988 | 196 | -54.9 | -73.5 | 233 | 34 |
| 2014-05-01T00:11 | 11997 | 196 | -55.0 | -73.8 | 234 | 34 |
| 2014-05-01T00:11 | 12006 | 196 | -55.1 | -74.2 | 234 | 34 |
| 2014-05-01T00:11 | 12015 | 195 | -55.1 | -74.5 | 235 | 34 |
| 2014-05-01T00:11 | 12025 | 195 | -55.1 | -74.8 | 235 | 34 |
| 2014-05-01T00:11 | 12034 | 195 | -55.1 | -75.1 | 236 | 35 |
| 2014-05-01T00:11 | 12045 | 194 | -55.2 | -75.4 | 237 | 35 |
| 2014-05-01T00:11 | 12055 | 194 | -55.2 | -75.7 | 237 | 35 |
| 2014-05-01T00:11 | 12064 | 194 | -55.1 | -75.9 | 238 | 35 |
| 2014-05-01T00:11 | 12072 | 193 | -55.1 | -76.1 | 239 | 35 |
| 2014-05-01T00:11 | 12081 | 193 | -55.1 | -76.5 | 240 | 35 |
| 2014-05-01T00:11 | 12090 | 193 | -55.0 | -76.8 | 241 | 35 |
| 2014-05-01T00:11 | 12098 | 193 | -54.9 | -77.0 | 241 | 35 |
| 2014-05-01T00:11 | 12107 | 192 | -54.6 | -77.0 | 242 | 35 |
| 2014-05-01T00:11 | 12115 | 192 | -54.2 | -76.9 | 243 | 35 |
| 2014-05-01T00:11 | 12124 | 192 | -54.0 | -76.8 | 244 | 35 |
| 2014-05-01T00:11 | 12134 | 192 | -53.9 | -76.8 | 244 | 35 |
| 2014-05-01T00:11 | 12143 | 191 | -53.8 | -76.8 | 245 | 35 |
| 2014-05-01T00:11 | 12154 | 191 | -53.9 | -77.0 | 245 | 35 |
| 2014-05-01T00:11 | 12164 | 191 | -53.8 | -77.0 | 246 | 35 |
| 2014-05-01T00:11 | 12173 | 190 | -53.7 | -77.0 | 246 | 35 |
| 2014-05-01T00:11 | 12182 | 190 | -53.7 | -77.1 | 247 | 35 |
| 2014-05-01T00:11 | 12191 | 190 | -53.6 | -77.3 | 247 | 35 |
| 2014-05-01T00:11 | 12200 | 190 | -53.6 | -77.6 | 248 | 35 |
| 2014-05-01T00:11 | 12209 | 189 | -53.6 | -77.9 | 248 | 35 |
| 2014-05-01T00:11 | 12219 | 189 | -53.6 | -78.0 | 248 | 35 |
| 2014-05-01T00:11 | 12228 | 189 | -53.5 | -78.0 | 249 | 35 |
| 2014-05-01T00:11 | 12236 | 189 | -53.3 | -78.0 | 249 | 34 |
| 2014-05-01T00:11 | 12246 | 188 | -53.1 | -78.0 | 250 | 34 |
| 2014-05-01T00:12 | 12255 | 188 | -53.1 | -78.1 | 250 | 34 |
| 2014-05-01T00:12 | 12264 | 188 | -53.1 | -78.3 | 251 | 34 |
| 2014-05-01T00:12 | 12273 | 188 | -53.0 | -78.4 | 251 | 34 |
| 2014-05-01T00:12 | 12281 | 187 | -52.9 | -78.5 | 252 | 34 |
| 2014-05-01T00:12 | 12291 | 187 | -52.6 | -78.5 | 253 | 34 |
| 2014-05-01T00:12 | 12300 | 187 | -52.5 | -78.4 | 253 | 34 |
| 2014-05-01T00:12 | 12310 | 186 | -52.5 | -78.4 | 254 | 34 |
| 2014-05-01T00:12 | 12322 | 186 | -52.5 | -78.5 | 255 | 34 |
| 2014-05-01T00:12 | 12337 | 186 | -52.5 | -78.7 | 255 | 34 |
| 2014-05-01T00:12 | 12352 | 185 | -52.6 | -78.9 | 256 | 33 |
| 2014-05-01T00:12 | 12369 | 185 | -52.7 | -79.2 | 256 | 33 |
| 2014-05-01T00:12 | 12383 | 184 | -52.6 | -79.5 | 257 | 33 |
| 2014-05-01T00:12 | 12392 | 184 | -52.4 | -79.7 | 257 | 33 |
| 2014-05-01T00:12 | 12400 | 184 | -51.8 | -79.8 | 257 | 33 |
| 2014-05-01T00:12 | 12409 | 184 | -51.0 | -79.5 | 257 | 33 |
| 2014-05-01T00:12 | 12417 | 183 | -50.6 | -79.3 | 257 | 33 |
| 2014-05-01T00:12 | 12425 | 183 | -50.5 | -79.2 | 257 | 32 |
| 2014-05-01T00:12 | 12434 | 183 | -50.3 | -79.2 | 257 | 32 |
| 2014-05-01T00:12 | 12443 | 183 | -50.0 | -79.2 | 257 | 32 |
| 2014-05-01T00:12 | 12453 | 182 | -49.8 | -79.1 | 257 | 32 |
| 2014-05-01T00:12 | 12462 | 182 | -49.8 | -79.3 | 257 | 32 |
| 2014-05-01T00:12 | 12471 | 182 | -49.8 | -79.6 | 257 | 32 |
| 2014-05-01T00:12 | 12480 | 182 | -49.6 | -79.8 | 257 | 31 |
| 2014-05-01T00:12 | 12489 | 181 | -49.6 | -79.8 | 257 | 31 |
| 2014-05-01T00:12 | 12498 | 181 | -49.7 | -79.9 | 258 | 31 |
| 2014-05-01T00:12 | 12508 | 181 | -49.7 | -80.0 | 258 | 31 |
| 2014-05-01T00:12 | 12516 | 181 | -49.8 | -80.2 | 258 | 31 |
| 2014-05-01T00:12 | 12525 | 180 | -49.7 | -80.3 | 258 | 31 |
| 2014-05-01T00:12 | 12534 | 180 | -49.7 | -80.4 | 259 | 30 |
| 2014-05-01T00:12 | 12543 | 180 | -49.7 | -80.5 | 259 | 30 |
| 2014-05-01T00:13 | 12552 | 180 | -49.7 | -80.5 | 259 | 30 |
| 2014-05-01T00:13 | 12562 | 179 | -49.7 | -80.6 | 259 | 30 |
| 2014-05-01T00:13 | 12571 | 179 | -49.7 | -80.7 | 260 | 30 |
| 2014-05-01T00:13 | 12579 | 179 | -49.8 | -80.8 | 260 | 29 |
| 2014-05-01T00:13 | 12588 | 179 | -49.8 | -80.9 | 260 | 29 |
| 2014-05-01T00:13 | 12596 | 178 | -49.9 | -81.0 | 260 | 29 |
| 2014-05-01T00:13 | 12605 | 178 | -50.0 | -81.1 | 261 | 29 |
| 2014-05-01T00:13 | 12614 | 178 | -50.1 | -81.3 | 261 | 29 |
| 2014-05-01T00:13 | 12623 | 178 | -50.1 | -81.5 | 261 | 28 |
| 2014-05-01T00:13 | 12633 | 177 | -50.0 | -81.6 | 261 | 28 |
| 2014-05-01T00:13 | 12642 | 177 | -49.8 | -81.5 | 262 | 28 |
| 2014-05-01T00:13 | 12652 | 177 | -49.8 | -81.3 | 262 | 28 |
| 2014-05-01T00:13 | 12661 | 177 | -49.8 | -81.3 | 262 | 27 |
| 2014-05-01T00:13 | 12670 | 176 | -49.9 | -81.3 | 262 | 27 |
| 2014-05-01T00:13 | 12679 | 176 | -49.9 | -81.3 | 263 | 27 |
| 2014-05-01T00:13 | 12689 | 176 | -49.9 | -81.4 | 263 | 27 |
| 2014-05-01T00:13 | 12697 | 176 | -49.9 | -81.5 | 263 | 27 |
| 2014-05-01T00:13 | 12706 | 175 | -49.9 | -81.6 | 263 | 26 |
| 2014-05-01T00:13 | 12714 | 175 | -49.8 | -81.6 | 263 | 26 |
| 2014-05-01T00:13 | 12723 | 175 | -49.7 | -81.5 | 263 | 26 |
| 2014-05-01T00:13 | 12732 | 175 | -49.7 | -81.4 | 264 | 26 |
| 2014-05-01T00:13 | 12740 | 175 | -49.7 | -81.5 | 264 | 26 |
| 2014-05-01T00:13 | 12748 | 174 | -49.8 | -81.5 | 264 | 25 |
| 2014-05-01T00:13 | 12758 | 174 | -49.8 | -81.6 | 264 | 25 |
| 2014-05-01T00:13 | 12766 | 174 | -49.9 | -81.8 | 264 | 25 |
| 2014-05-01T00:13 | 12775 | 174 | -49.9 | -82.0 | 264 | 25 |
| 2014-05-01T00:13 | 12784 | 173 | -49.8 | -82.0 | 264 | 25 |
| 2014-05-01T00:13 | 12793 | 173 | -49.7 | -81.9 | 264 | 25 |
| 2014-05-01T00:13 | 12803 | 173 | -49.6 | -81.8 | 265 | 24 |
| 2014-05-01T00:13 | 12812 | 173 | -49.6 | -81.8 | 265 | 24 |
| 2014-05-01T00:14 | 12822 | 172 | -49.6 | -81.9 | 264 | 24 |
| 2014-05-01T00:14 | 12832 | 172 | -49.5 | -82.1 | 264 | 24 |
| 2014-05-01T00:14 | 12841 | 172 | -49.4 | -82.3 | 264 | 24 |
| 2014-05-01T00:14 | 12851 | 172 | -49.1 | -82.2 | 264 | 24 |
| 2014-05-01T00:14 | 12861 | 171 | -48.8 | -81.8 | 264 | 24 |
| 2014-05-01T00:14 | 12871 | 171 | -48.7 | -81.3 | 264 | 24 |
| 2014-05-01T00:14 | 12880 | 171 | -48.8 | -81.1 | 264 | 24 |
| 2014-05-01T00:14 | 12890 | 171 | -48.8 | -81.0 | 263 | 24 |
| 2014-05-01T00:14 | 12900 | 170 | -48.9 | -81.0 | 263 | 25 |
| 2014-05-01T00:14 | 12910 | 170 | -49.0 | -81.1 | 263 | 25 |
| 2014-05-01T00:14 | 12920 | 170 | -49.1 | -81.3 | 263 | 25 |
| 2014-05-01T00:14 | 12930 | 170 | -49.2 | -81.4 | 263 | 25 |
| 2014-05-01T00:14 | 12942 | 169 | -49.3 | -81.5 | 263 | 25 |
| 2014-05-01T00:14 | 12952 | 169 | -49.4 | -81.5 | 263 | 25 |
| 2014-05-01T00:14 | 12961 | 169 | -49.5 | -81.6 | 263 | 25 |
| 2014-05-01T00:14 | 12971 | 168 | -49.6 | -81.8 | 263 | 25 |
| 2014-05-01T00:14 | 12982 | 168 | -49.7 | -82.0 | 263 | 26 |
| 2014-05-01T00:14 | 12991 | 168 | -49.8 | -82.0 | 263 | 26 |
| 2014-05-01T00:14 | 13000 | 168 | -49.8 | -81.9 | 263 | 26 |
| 2014-05-01T00:14 | 13010 | 168 | -49.8 | -81.8 | 263 | 26 |
| 2014-05-01T00:14 | 13019 | 167 | -49.9 | -81.8 | 263 | 26 |
| 2014-05-01T00:14 | 13029 | 167 | -50.0 | -81.9 | 263 | 26 |
| 2014-05-01T00:14 | 13038 | 167 | -50.1 | -82.1 | 264 | 26 |
| 2014-05-01T00:14 | 13046 | 167 | -50.2 | -82.2 | 264 | 26 |
| 2014-05-01T00:14 | 13056 | 166 | -50.3 | -82.2 | 264 | 26 |
| 2014-05-01T00:14 | 13065 | 166 | -50.3 | -82.2 | 265 | 27 |
| 2014-05-01T00:14 | 13075 | 166 | -50.4 | -82.4 | 265 | 27 |
| 2014-05-01T00:14 | 13085 | 166 | -50.5 | -82.6 | 265 | 27 |
| 2014-05-01T00:14 | 13095 | 165 | -50.6 | -82.7 | 266 | 27 |
| 2014-05-01T00:14 | 13105 | 165 | -50.7 | -82.7 | 266 | 27 |
| 2014-05-01T00:15 | 13114 | 165 | -50.7 | -82.7 | 267 | 27 |
| 2014-05-01T00:15 | 13124 | 165 | -50.7 | -82.7 | 267 | 27 |
| 2014-05-01T00:15 | 13133 | 164 | -50.7 | -82.7 | 268 | 27 |
| 2014-05-01T00:15 | 13142 | 164 | -50.8 | -82.6 | 268 | 27 |
| 2014-05-01T00:15 | 13152 | 164 | -50.8 | -82.6 | 269 | 27 |
| 2014-05-01T00:15 | 13161 | 164 | -50.9 | -82.6 | 269 | 27 |
| 2014-05-01T00:15 | 13170 | 163 | -51.0 | -82.7 | 270 | 27 |
| 2014-05-01T00:15 | 13180 | 163 | -51.0 | -82.8 | 270 | 27 |
| 2014-05-01T00:15 | 13191 | 163 | -51.1 | -83.1 | 271 | 27 |
| 2014-05-01T00:15 | 13200 | 163 | -51.1 | -83.4 | 272 | 27 |
| 2014-05-01T00:15 | 13210 | 162 | -51.0 | -83.4 | 272 | 27 |
| 2014-05-01T00:15 | 13220 | 162 | -50.8 | -83.2 | 273 | 27 |
| 2014-05-01T00:15 | 13230 | 162 | -50.8 | -82.9 | 273 | 26 |
| 2014-05-01T00:15 | 13240 | 162 | -50.8 | -82.7 | 274 | 26 |
| 2014-05-01T00:15 | 13250 | 161 | -50.9 | -82.7 | 275 | 26 |
| 2014-05-01T00:15 | 13260 | 161 | -50.9 | -82.8 | 275 | 25 |
| 2014-05-01T00:15 | 13271 | 161 | -50.9 | -82.8 | 276 | 25 |
| 2014-05-01T00:15 | 13281 | 161 | -50.9 | -82.7 | 276 | 25 |
| 2014-05-01T00:15 | 13290 | 160 | -51.0 | -82.6 | 277 | 25 |
| 2014-05-01T00:15 | 13299 | 160 | -50.9 | -82.4 | 277 | 24 |
| 2014-05-01T00:15 | 13307 | 160 | -50.9 | -82.4 | 278 | 24 |
| 2014-05-01T00:15 | 13318 | 160 | -51.0 | -82.7 | 278 | 24 |
| 2014-05-01T00:15 | 13329 | 159 | -51.0 | -82.9 | 279 | 23 |
| 2014-05-01T00:15 | 13339 | 159 | -51.1 | -83.0 | 280 | 23 |
| 2014-05-01T00:15 | 13348 | 159 | -51.2 | -82.9 | 280 | 23 |
| 2014-05-01T00:15 | 13359 | 159 | -51.2 | -82.8 | 281 | 22 |
| 2014-05-01T00:15 | 13370 | 159 | -51.2 | -82.8 | 281 | 22 |
| 2014-05-01T00:15 | 13381 | 158 | -51.2 | -82.9 | 282 | 22 |
| 2014-05-01T00:15 | 13391 | 158 | -51.3 | -83.1 | 283 | 22 |
| 2014-05-01T00:15 | 13401 | 158 | -51.3 | -83.3 | 283 | 21 |
| 2014-05-01T00:16 | 13410 | 158 | -51.3 | -83.3 | 284 | 21 |
| 2014-05-01T00:16 | 13420 | 157 | -51.3 | -83.4 | 284 | 21 |
| 2014-05-01T00:16 | 13429 | 157 | -51.3 | -83.3 | 285 | 21 |
| 2014-05-01T00:16 | 13439 | 157 | -51.1 | -82.9 | 285 | 20 |
| 2014-05-01T00:16 | 13449 | 157 | -51.0 | -82.5 | 285 | 20 |
| 2014-05-01T00:16 | 13459 | 156 | -51.0 | -82.4 | 286 | 20 |
| 2014-05-01T00:16 | 13471 | 156 | -51.2 | -82.6 | 286 | 19 |
| 2014-05-01T00:16 | 13482 | 156 | -51.3 | -82.9 | 287 | 19 |
| 2014-05-01T00:16 | 13494 | 155 | -51.4 | -83.1 | 287 | 19 |
| 2014-05-01T00:16 | 13509 | 155 | -51.4 | -83.1 | 287 | 19 |
| 2014-05-01T00:16 | 13523 | 155 | -51.4 | -83.0 | 288 | 18 |
| 2014-05-01T00:16 | 13535 | 155 | -51.5 | -83.0 | 288 | 18 |
| 2014-05-01T00:16 | 13546 | 154 | -51.6 | -83.1 | 288 | 18 |
| 2014-05-01T00:16 | 13560 | 154 | -51.7 | -83.1 | 288 | 18 |
| 2014-05-01T00:16 | 13571 | 154 | -51.8 | -83.2 | 289 | 17 |
| 2014-05-01T00:16 | 13580 | 153 | -51.9 | -83.5 | 289 | 17 |
| 2014-05-01T00:16 | 13589 | 153 | -51.9 | -83.6 | 289 | 17 |
| 2014-05-01T00:16 | 13599 | 153 | -51.8 | -83.5 | 289 | 17 |
| 2014-05-01T00:16 | 13609 | 153 | -51.8 | -83.4 | 289 | 16 |
| 2014-05-01T00:16 | 13618 | 153 | -51.9 | -83.3 | 289 | 16 |
| 2014-05-01T00:16 | 13627 | 152 | -52.0 | -83.2 | 289 | 16 |
| 2014-05-01T00:16 | 13637 | 152 | -52.0 | -83.1 | 289 | 16 |
| 2014-05-01T00:16 | 13646 | 152 | -52.1 | -83.2 | 289 | 16 |
| 2014-05-01T00:16 | 13656 | 152 | -52.2 | -83.2 | 289 | 16 |
| 2014-05-01T00:16 | 13666 | 151 | -52.3 | -83.3 | 289 | 15 |
| 2014-05-01T00:16 | 13675 | 151 | -52.3 | -83.5 | 289 | 15 |
| 2014-05-01T00:16 | 13685 | 151 | -52.4 | -83.6 | 290 | 15 |
| 2014-05-01T00:16 | 13694 | 151 | -52.5 | -83.6 | 290 | 15 |
| 2014-05-01T00:16 | 13705 | 151 | -52.6 | -83.6 | 290 | 15 |
| 2014-05-01T00:16 | 13714 | 150 | -52.6 | -83.6 | 290 | 14 |
| 2014-05-01T00:17 | 13723 | 150 | -52.7 | -83.7 | 290 | 14 |
| 2014-05-01T00:17 | 13733 | 150 | -52.7 | -83.8 | 289 | 14 |
| 2014-05-01T00:17 | 13743 | 150 | -52.8 | -83.9 | 289 | 14 |
| 2014-05-01T00:17 | 13752 | 149 | -52.8 | -84.0 | 289 | 14 |
| 2014-05-01T00:17 | 13760 | 149 | -52.7 | -84.1 | 288 | 14 |
| 2014-05-01T00:17 | 13770 | 149 | -52.6 | -84.1 | 288 | 14 |
| 2014-05-01T00:17 | 13780 | 149 | -52.6 | -84.1 | 287 | 14 |
| 2014-05-01T00:17 | 13789 | 149 | -52.5 | -84.1 | 286 | 14 |
| 2014-05-01T00:17 | 13798 | 148 | -52.5 | -84.0 | 286 | 14 |
| 2014-05-01T00:17 | 13808 | 148 | -52.5 | -83.8 | 285 | 14 |
| 2014-05-01T00:17 | 13819 | 148 | -52.5 | -83.7 | 284 | 14 |
| 2014-05-01T00:17 | 13828 | 148 | -52.5 | -83.6 | 283 | 14 |
| 2014-05-01T00:17 | 13838 | 147 | -52.4 | -83.5 | 282 | 14 |
| 2014-05-01T00:17 | 13848 | 147 | -52.5 | -83.4 | 281 | 14 |
| 2014-05-01T00:17 | 13858 | 147 | -52.6 | -83.5 | 280 | 14 |
| 2014-05-01T00:17 | 13867 | 147 | -52.6 | -83.6 | 280 | 14 |
| 2014-05-01T00:17 | 13878 | 147 | -52.7 | -83.8 | 279 | 14 |
| 2014-05-01T00:17 | 13887 | 146 | -52.7 | -83.9 | 278 | 14 |
| 2014-05-01T00:17 | 13897 | 146 | -52.6 | -83.9 | 277 | 13 |
| 2014-05-01T00:17 | 13906 | 146 | -52.6 | -83.9 | 277 | 13 |
| 2014-05-01T00:17 | 13915 | 146 | -52.6 | -83.9 | 276 | 13 |
| 2014-05-01T00:17 | 13924 | 145 | -52.6 | -83.8 | 275 | 13 |
| 2014-05-01T00:17 | 13934 | 145 | -52.6 | -83.9 | 274 | 13 |
| 2014-05-01T00:17 | 13943 | 145 | -52.6 | -83.8 | 273 | 13 |
| 2014-05-01T00:17 | 13952 | 145 | -52.7 | -83.9 | 272 | 12 |
| 2014-05-01T00:17 | 13961 | 145 | -52.7 | -83.9 | 272 | 12 |
| 2014-05-01T00:17 | 13971 | 144 | -52.6 | -83.9 | 271 | 12 |
| 2014-05-01T00:17 | 13980 | 144 | -52.5 | -83.8 | 270 | 12 |
| 2014-05-01T00:17 | 13990 | 144 | -52.5 | -83.7 | 269 | 12 |
| 2014-05-01T00:17 | 14000 | 144 | -52.4 | -83.6 | 268 | 12 |
| 2014-05-01T00:18 | 14009 | 144 | -52.5 | -83.6 | 268 | 11 |
| 2014-05-01T00:18 | 14019 | 143 | -52.6 | -83.5 | 267 | 11 |
| 2014-05-01T00:18 | 14028 | 143 | -52.6 | -83.5 | 266 | 11 |
| 2014-05-01T00:18 | 14037 | 143 | -52.7 | -83.6 | 265 | 11 |
| 2014-05-01T00:18 | 14048 | 143 | -52.7 | -83.6 | 264 | 11 |
| 2014-05-01T00:18 | 14058 | 143 | -52.7 | -83.6 | 264 | 11 |
| 2014-05-01T00:18 | 14068 | 142 | -52.8 | -83.7 | 263 | 11 |
| 2014-05-01T00:18 | 14078 | 142 | -52.9 | -83.8 | 262 | 11 |
| 2014-05-01T00:18 | 14089 | 142 | -53.0 | -83.8 | 261 | 11 |
| 2014-05-01T00:18 | 14100 | 142 | -53.0 | -83.9 | 260 | 11 |
| 2014-05-01T00:18 | 14110 | 141 | -53.1 | -83.9 | 259 | 10 |
| 2014-05-01T00:18 | 14120 | 141 | -53.2 | -84.1 | 258 | 10 |
| 2014-05-01T00:18 | 14130 | 141 | -53.3 | -84.3 | 257 | 10 |
| 2014-05-01T00:18 | 14140 | 141 | -53.4 | -84.5 | 256 | 10 |
| 2014-05-01T00:18 | 14149 | 141 | -53.4 | -84.7 | 254 | 10 |
| 2014-05-01T00:18 | 14159 | 140 | -53.3 | -84.7 | 253 | 10 |
| 2014-05-01T00:18 | 14168 | 140 | -52.9 | -84.4 | 252 | 10 |
| 2014-05-01T00:18 | 14177 | 140 | -52.8 | -84.2 | 251 | 10 |
| 2014-05-01T00:18 | 14187 | 140 | -52.9 | -84.1 | 250 | 10 |
| 2014-05-01T00:18 | 14196 | 139 | -53.0 | -84.1 | 249 | 10 |
| 2014-05-01T00:18 | 14206 | 139 | -53.0 | -84.1 | 248 | 10 |
| 2014-05-01T00:18 | 14215 | 139 | -52.9 | -84.0 | 247 | 10 |
| 2014-05-01T00:18 | 14225 | 139 | -52.9 | -84.0 | 247 | 10 |
| 2014-05-01T00:18 | 14234 | 139 | -53.0 | -84.0 | 246 | 10 |
| 2014-05-01T00:18 | 14244 | 138 | -52.9 | -83.9 | 245 | 10 |
| 2014-05-01T00:18 | 14252 | 138 | -52.9 | -83.9 | 245 | 11 |
| 2014-05-01T00:18 | 14261 | 138 | -52.9 | -84.0 | 245 | 11 |
| 2014-05-01T00:18 | 14270 | 138 | -53.0 | -84.2 | 245 | 11 |
| 2014-05-01T00:18 | 14279 | 138 | -53.1 | -84.3 | 245 | 11 |
| 2014-05-01T00:18 | 14289 | 137 | -52.9 | -84.2 | 245 | 11 |
| 2014-05-01T00:19 | 14299 | 137 | -52.8 | -84.1 | 246 | 11 |
| 2014-05-01T00:19 | 14309 | 137 | -52.9 | -83.9 | 246 | 11 |
| 2014-05-01T00:19 | 14318 | 137 | -52.9 | -83.9 | 247 | 11 |
| 2014-05-01T00:19 | 14327 | 137 | -52.9 | -83.8 | 247 | 12 |
| 2014-05-01T00:19 | 14338 | 136 | -52.9 | -83.9 | 248 | 12 |
| 2014-05-01T00:19 | 14347 | 136 | -52.9 | -83.9 | 248 | 12 |
| 2014-05-01T00:19 | 14356 | 136 | -52.9 | -83.9 | 249 | 12 |
| 2014-05-01T00:19 | 14365 | 136 | -53.0 | -84.0 | 249 | 13 |
| 2014-05-01T00:19 | 14375 | 136 | -53.0 | -84.1 | 249 | 13 |
| 2014-05-01T00:19 | 14384 | 135 | -53.0 | -84.2 | 249 | 13 |
| 2014-05-01T00:19 | 14392 | 135 | -53.0 | -84.3 | 249 | 13 |
| 2014-05-01T00:19 | 14402 | 135 | -52.8 | -84.2 | 249 | 14 |
| 2014-05-01T00:19 | 14412 | 135 | -52.7 | -84.1 | 249 | 14 |
| 2014-05-01T00:19 | 14421 | 135 | -52.6 | -84.0 | 248 | 14 |
| 2014-05-01T00:19 | 14431 | 134 | -52.7 | -83.8 | 248 | 14 |
| 2014-05-01T00:19 | 14440 | 134 | -52.7 | -83.7 | 248 | 14 |
| 2014-05-01T00:19 | 14449 | 134 | -52.7 | -83.6 | 248 | 14 |
| 2014-05-01T00:19 | 14458 | 134 | -52.8 | -83.6 | 248 | 15 |
| 2014-05-01T00:19 | 14467 | 134 | -52.8 | -83.6 | 247 | 15 |
| 2014-05-01T00:19 | 14477 | 134 | -52.9 | -83.7 | 247 | 15 |
| 2014-05-01T00:19 | 14486 | 133 | -53.0 | -83.8 | 247 | 15 |
| 2014-05-01T00:19 | 14495 | 133 | -53.0 | -84.0 | 246 | 15 |
| 2014-05-01T00:19 | 14504 | 133 | -52.9 | -84.0 | 246 | 15 |
| 2014-05-01T00:19 | 14514 | 133 | -52.8 | -83.9 | 245 | 15 |
| 2014-05-01T00:19 | 14524 | 133 | -52.8 | -84.0 | 245 | 15 |
| 2014-05-01T00:19 | 14533 | 132 | -52.8 | -84.0 | 244 | 15 |
| 2014-05-01T00:19 | 14541 | 132 | -52.8 | -84.0 | 244 | 15 |
| 2014-05-01T00:19 | 14550 | 132 | -52.9 | -84.0 | 243 | 15 |
| 2014-05-01T00:19 | 14559 | 132 | -52.8 | -84.0 | 242 | 15 |
| 2014-05-01T00:19 | 14568 | 132 | -52.8 | -84.0 | 242 | 15 |
| 2014-05-01T00:20 | 14577 | 131 | -52.7 | -84.0 | 241 | 15 |
| 2014-05-01T00:20 | 14586 | 131 | -52.7 | -83.9 | 241 | 15 |
| 2014-05-01T00:20 | 14595 | 131 | -52.7 | -83.9 | 240 | 15 |
| 2014-05-01T00:20 | 14605 | 131 | -52.7 | -83.8 | 240 | 15 |
| 2014-05-01T00:20 | 14614 | 131 | -52.8 | -83.8 | 240 | 15 |
| 2014-05-01T00:20 | 14623 | 131 | -52.9 | -83.9 | 239 | 15 |
| 2014-05-01T00:20 | 14632 | 130 | -52.9 | -83.8 | 239 | 15 |
| 2014-05-01T00:20 | 14641 | 130 | -52.9 | -83.8 | 239 | 15 |
| 2014-05-01T00:20 | 14651 | 130 | -52.9 | -83.8 | 238 | 16 |
| 2014-05-01T00:20 | 14661 | 130 | -53.1 | -83.8 | 238 | 16 |
| 2014-05-01T00:20 | 14669 | 130 | -53.2 | -83.9 | 238 | 16 |
| 2014-05-01T00:20 | 14678 | 129 | -53.3 | -84.1 | 238 | 16 |
| 2014-05-01T00:20 | 14687 | 129 | -53.3 | -84.2 | 238 | 16 |
| 2014-05-01T00:20 | 14696 | 129 | -53.4 | -84.2 | 238 | 16 |
| 2014-05-01T00:20 | 14707 | 129 | -53.4 | -84.2 | 237 | 16 |
| 2014-05-01T00:20 | 14716 | 129 | -53.5 | -84.3 | 237 | 16 |
| 2014-05-01T00:20 | 14725 | 128 | -53.6 | -84.3 | 237 | 17 |
| 2014-05-01T00:20 | 14736 | 128 | -53.6 | -84.3 | 237 | 17 |
| 2014-05-01T00:20 | 14746 | 128 | -53.7 | -84.3 | 237 | 17 |
| 2014-05-01T00:20 | 14756 | 128 | -53.8 | -84.4 | 237 | 17 |
| 2014-05-01T00:20 | 14766 | 128 | -53.8 | -84.4 | 237 | 17 |
| 2014-05-01T00:20 | 14776 | 127 | -53.9 | -84.5 | 238 | 17 |
| 2014-05-01T00:20 | 14785 | 127 | -53.8 | -84.5 | 238 | 17 |
| 2014-05-01T00:20 | 14795 | 127 | -53.8 | -84.4 | 238 | 17 |
| 2014-05-01T00:20 | 14804 | 127 | -53.8 | -84.3 | 238 | 17 |
| 2014-05-01T00:20 | 14814 | 127 | -53.8 | -84.3 | 239 | 17 |
| 2014-05-01T00:20 | 14823 | 127 | -53.9 | -84.4 | 239 | 17 |
| 2014-05-01T00:20 | 14832 | 126 | -54.0 | -84.5 | 240 | 17 |
| 2014-05-01T00:20 | 14842 | 126 | -54.0 | -84.6 | 240 | 17 |
| 2014-05-01T00:20 | 14852 | 126 | -54.1 | -84.7 | 241 | 17 |
| 2014-05-01T00:21 | 14861 | 126 | -54.1 | -84.8 | 242 | 17 |
| 2014-05-01T00:21 | 14872 | 126 | -54.2 | -84.9 | 242 | 17 |
| 2014-05-01T00:21 | 14881 | 125 | -54.0 | -85.0 | 243 | 17 |
| 2014-05-01T00:21 | 14889 | 125 | -53.9 | -85.1 | 244 | 17 |
| 2014-05-01T00:21 | 14898 | 125 | -53.8 | -85.1 | 245 | 17 |
| 2014-05-01T00:21 | 14907 | 125 | -53.6 | -85.0 | 245 | 17 |
| 2014-05-01T00:21 | 14917 | 125 | -53.3 | -84.9 | 246 | 17 |
| 2014-05-01T00:21 | 14925 | 125 | -53.2 | -84.7 | 246 | 17 |
| 2014-05-01T00:21 | 14933 | 124 | -53.1 | -84.3 | 246 | 17 |
| 2014-05-01T00:21 | 14942 | 124 | -53.0 | -84.1 | 246 | 17 |
| 2014-05-01T00:21 | 14951 | 124 | -52.9 | -84.0 | 246 | 17 |
| 2014-05-01T00:21 | 14959 | 124 | -52.9 | -83.9 | 247 | 16 |
| 2014-05-01T00:21 | 14968 | 124 | -53.0 | -83.9 | 247 | 16 |
| 2014-05-01T00:21 | 14977 | 124 | -53.0 | -84.0 | 246 | 16 |
| 2014-05-01T00:21 | 14986 | 123 | -53.0 | -84.1 | 246 | 16 |
| 2014-05-01T00:21 | 14995 | 123 | -52.9 | -84.1 | 246 | 16 |
| 2014-05-01T00:21 | 15005 | 123 | -52.8 | -84.1 | 247 | 16 |
| 2014-05-01T00:21 | 15014 | 123 | -52.8 | -84.0 | 247 | 16 |
| 2014-05-01T00:21 | 15023 | 123 | -52.8 | -84.0 | 247 | 15 |
| 2014-05-01T00:21 | 15032 | 123 | -52.8 | -83.9 | 247 | 15 |
| 2014-05-01T00:21 | 15040 | 122 | -52.7 | -83.8 | 248 | 15 |
| 2014-05-01T00:21 | 15050 | 122 | -52.7 | -83.8 | 248 | 15 |
| 2014-05-01T00:21 | 15059 | 122 | -52.7 | -83.7 | 249 | 15 |
| 2014-05-01T00:21 | 15067 | 122 | -52.7 | -83.8 | 249 | 15 |
| 2014-05-01T00:21 | 15077 | 122 | -52.7 | -83.8 | 250 | 14 |
| 2014-05-01T00:21 | 15086 | 121 | -52.8 | -83.8 | 251 | 14 |
| 2014-05-01T00:21 | 15095 | 121 | -52.6 | -83.7 | 252 | 14 |
| 2014-05-01T00:21 | 15105 | 121 | -52.5 | -83.6 | 253 | 14 |
| 2014-05-01T00:21 | 15115 | 121 | -52.5 | -83.6 | 253 | 14 |
| 2014-05-01T00:21 | 15124 | 121 | -52.6 | -83.7 | 254 | 15 |
| 2014-05-01T00:22 | 15134 | 121 | -52.7 | -83.6 | 255 | 15 |
| 2014-05-01T00:22 | 15144 | 120 | -52.6 | -83.6 | 256 | 15 |
| 2014-05-01T00:22 | 15153 | 120 | -52.5 | -83.6 | 257 | 15 |
| 2014-05-01T00:22 | 15163 | 120 | -52.5 | -83.7 | 257 | 15 |
| 2014-05-01T00:22 | 15172 | 120 | -52.6 | -83.9 | 258 | 15 |
| 2014-05-01T00:22 | 15182 | 120 | -52.6 | -83.8 | 259 | 15 |
| 2014-05-01T00:22 | 15191 | 120 | -52.6 | -83.9 | 259 | 15 |
| 2014-05-01T00:22 | 15200 | 119 | -52.7 | -83.8 | 260 | 15 |
| 2014-05-01T00:22 | 15209 | 119 | -52.8 | -83.9 | 260 | 15 |
| 2014-05-01T00:22 | 15218 | 119 | -52.8 | -84.1 | 261 | 15 |
| 2014-05-01T00:22 | 15228 | 119 | -52.8 | -84.1 | 261 | 15 |
| 2014-05-01T00:22 | 15237 | 119 | -52.7 | -84.0 | 262 | 15 |
| 2014-05-01T00:22 | 15246 | 119 | -52.8 | -83.9 | 263 | 15 |
| 2014-05-01T00:22 | 15256 | 118 | -52.8 | -83.9 | 263 | 15 |
| 2014-05-01T00:22 | 15266 | 118 | -52.9 | -83.9 | 264 | 15 |
| 2014-05-01T00:22 | 15276 | 118 | -52.9 | -83.8 | 264 | 15 |
| 2014-05-01T00:22 | 15285 | 118 | -53.0 | -83.8 | 264 | 15 |
| 2014-05-01T00:22 | 15294 | 118 | -53.0 | -83.9 | 265 | 15 |
| 2014-05-01T00:22 | 15303 | 117 | -53.1 | -84.0 | 265 | 15 |
| 2014-05-01T00:22 | 15311 | 117 | -53.2 | -84.1 | 265 | 15 |
| 2014-05-01T00:22 | 15320 | 117 | -53.3 | -84.1 | 265 | 15 |
| 2014-05-01T00:22 | 15329 | 117 | -53.3 | -84.1 | 265 | 15 |
| 2014-05-01T00:22 | 15339 | 117 | -53.4 | -84.2 | 265 | 15 |
| 2014-05-01T00:22 | 15349 | 117 | -53.5 | -84.3 | 265 | 15 |
| 2014-05-01T00:22 | 15358 | 116 | -53.6 | -84.3 | 265 | 15 |
| 2014-05-01T00:22 | 15367 | 116 | -53.6 | -84.3 | 265 | 15 |
| 2014-05-01T00:22 | 15376 | 116 | -53.6 | -84.2 | 265 | 15 |
| 2014-05-01T00:22 | 15387 | 116 | -53.7 | -84.1 | 265 | 15 |
| 2014-05-01T00:22 | 15396 | 116 | -53.7 | -83.9 | 265 | 15 |
| 2014-05-01T00:22 | 15405 | 116 | -53.8 | -83.9 | 265 | 15 |
| 2014-05-01T00:23 | 15415 | 115 | -53.8 | -84.1 | 264 | 15 |
| 2014-05-01T00:23 | 15424 | 115 | -53.9 | -84.3 | 264 | 15 |
| 2014-05-01T00:23 | 15435 | 115 | -54.1 | -84.4 | 264 | 15 |
| 2014-05-01T00:23 | 15445 | 115 | -54.1 | -84.5 | 264 | 15 |
| 2014-05-01T00:23 | 15455 | 115 | -54.2 | -84.6 | 264 | 15 |
| 2014-05-01T00:23 | 15464 | 115 | -54.2 | -84.7 | 264 | 15 |
| 2014-05-01T00:23 | 15473 | 114 | -54.3 | -84.7 | 264 | 15 |
| 2014-05-01T00:23 | 15483 | 114 | -54.4 | -84.8 | 264 | 15 |
| 2014-05-01T00:23 | 15493 | 114 | -54.4 | -84.8 | 264 | 14 |
| 2014-05-01T00:23 | 15503 | 114 | -54.4 | -84.9 | 263 | 14 |
| 2014-05-01T00:23 | 15512 | 114 | -54.4 | -85.0 | 263 | 14 |
| 2014-05-01T00:23 | 15522 | 114 | -54.4 | -85.1 | 263 | 14 |
| 2014-05-01T00:23 | 15532 | 113 | -54.3 | -85.2 | 263 | 14 |
| 2014-05-01T00:23 | 15542 | 113 | -54.2 | -85.1 | 263 | 13 |
| 2014-05-01T00:23 | 15552 | 113 | -54.1 | -85.1 | 264 | 13 |
| 2014-05-01T00:23 | 15561 | 113 | -54.1 | -85.0 | 264 | 13 |
| 2014-05-01T00:23 | 15572 | 113 | -54.1 | -84.8 | 264 | 13 |
| 2014-05-01T00:23 | 15582 | 112 | -54.1 | -84.7 | 264 | 13 |
| 2014-05-01T00:23 | 15592 | 112 | -54.1 | -84.6 | 264 | 12 |
| 2014-05-01T00:23 | 15602 | 112 | -54.2 | -84.6 | 265 | 12 |
| 2014-05-01T00:23 | 15612 | 112 | -54.1 | -84.6 | 265 | 12 |
| 2014-05-01T00:23 | 15623 | 112 | -54.1 | -84.6 | 265 | 12 |
| 2014-05-01T00:23 | 15633 | 112 | -54.2 | -84.6 | 266 | 12 |
| 2014-05-01T00:23 | 15642 | 111 | -54.2 | -84.6 | 266 | 12 |
| 2014-05-01T00:23 | 15651 | 111 | -54.2 | -84.7 | 267 | 12 |
| 2014-05-01T00:23 | 15659 | 111 | -54.3 | -84.7 | 267 | 12 |
| 2014-05-01T00:23 | 15669 | 111 | -54.3 | -84.6 | 267 | 12 |
| 2014-05-01T00:23 | 15680 | 111 | -54.3 | -84.6 | 268 | 12 |
| 2014-05-01T00:23 | 15690 | 111 | -54.4 | -84.6 | 268 | 11 |
| 2014-05-01T00:23 | 15700 | 110 | -54.5 | -84.6 | 268 | 11 |
| 2014-05-01T00:24 | 15710 | 110 | -54.6 | -84.8 | 268 | 11 |
| 2014-05-01T00:24 | 15719 | 110 | -54.7 | -84.9 | 269 | 11 |
| 2014-05-01T00:24 | 15728 | 110 | -54.7 | -85.0 | 269 | 11 |
| 2014-05-01T00:24 | 15738 | 110 | -54.7 | -85.0 | 269 | 11 |
| 2014-05-01T00:24 | 15747 | 110 | -54.8 | -85.0 | 269 | 11 |
| 2014-05-01T00:24 | 15757 | 109 | -54.9 | -85.1 | 269 | 11 |
| 2014-05-01T00:24 | 15766 | 109 | -55.0 | -84.9 | 269 | 11 |
| 2014-05-01T00:24 | 15775 | 109 | -55.1 | -84.8 | 269 | 11 |
| 2014-05-01T00:24 | 15785 | 109 | -55.0 | -84.6 | 269 | 11 |
| 2014-05-01T00:24 | 15795 | 109 | -54.9 | -84.4 | 270 | 11 |
| 2014-05-01T00:24 | 15805 | 109 | -55.0 | -84.4 | 270 | 11 |
| 2014-05-01T00:24 | 15815 | 108 | -55.1 | -84.6 | 270 | 11 |
| 2014-05-01T00:24 | 15825 | 108 | -55.3 | -84.7 | 270 | 10 |
| 2014-05-01T00:24 | 15835 | 108 | -55.4 | -84.9 | 270 | 10 |
| 2014-05-01T00:24 | 15844 | 108 | -55.5 | -85.1 | 270 | 10 |
| 2014-05-01T00:24 | 15853 | 108 | -55.6 | -85.3 | 270 | 10 |
| 2014-05-01T00:24 | 15862 | 108 | -55.7 | -85.5 | 270 | 10 |
| 2014-05-01T00:24 | 15872 | 107 | -55.7 | -85.5 | 270 | 10 |
| 2014-05-01T00:24 | 15882 | 107 | -55.8 | -85.5 | 269 | 10 |
| 2014-05-01T00:24 | 15891 | 107 | -55.8 | -85.5 | 269 | 10 |
| 2014-05-01T00:24 | 15900 | 107 | -55.8 | -85.5 | 269 | 10 |
| 2014-05-01T00:24 | 15910 | 107 | -55.9 | -85.6 | 269 | 10 |
| 2014-05-01T00:24 | 15920 | 107 | -56.0 | -85.6 | 268 | 10 |
| 2014-05-01T00:24 | 15929 | 107 | -56.1 | -85.7 | 268 | 9 |
| 2014-05-01T00:24 | 15937 | 106 | -56.1 | -85.7 | 267 | 9 |
| 2014-05-01T00:24 | 15946 | 106 | -56.0 | -85.6 | 267 | 9 |
| 2014-05-01T00:24 | 15956 | 106 | -56.0 | -85.5 | 266 | 9 |
| 2014-05-01T00:24 | 15966 | 106 | -56.1 | -85.5 | 266 | 9 |
| 2014-05-01T00:24 | 15976 | 106 | -56.1 | -85.6 | 265 | 9 |
| 2014-05-01T00:24 | 15986 | 106 | -56.2 | -85.7 | 265 | 9 |
| 2014-05-01T00:25 | 15995 | 105 | -56.3 | -85.8 | 264 | 9 |
| 2014-05-01T00:25 | 16005 | 105 | -56.3 | -85.9 | 264 | 8 |
| 2014-05-01T00:25 | 16015 | 105 | -56.1 | -85.9 | 263 | 8 |
| 2014-05-01T00:25 | 16024 | 105 | -56.0 | -85.8 | 262 | 8 |
| 2014-05-01T00:25 | 16034 | 105 | -56.0 | -85.7 | 262 | 8 |
| 2014-05-01T00:25 | 16043 | 105 | -56.0 | -85.6 | 261 | 8 |
| 2014-05-01T00:25 | 16052 | 104 | -56.1 | -85.5 | 260 | 8 |
| 2014-05-01T00:25 | 16062 | 104 | -56.1 | -85.4 | 260 | 8 |
| 2014-05-01T00:25 | 16073 | 104 | -56.2 | -85.4 | 259 | 8 |
| 2014-05-01T00:25 | 16081 | 104 | -56.2 | -85.5 | 259 | 8 |
| 2014-05-01T00:25 | 16090 | 104 | -56.2 | -85.6 | 258 | 8 |
| 2014-05-01T00:25 | 16100 | 104 | -56.2 | -85.7 | 258 | 8 |
| 2014-05-01T00:25 | 16109 | 104 | -56.1 | -85.7 | 257 | 8 |
| 2014-05-01T00:25 | 16119 | 103 | -56.2 | -85.7 | 257 | 8 |
| 2014-05-01T00:25 | 16128 | 103 | -56.2 | -85.7 | 257 | 8 |
| 2014-05-01T00:25 | 16137 | 103 | -56.2 | -85.6 | 257 | 8 |
| 2014-05-01T00:25 | 16146 | 103 | -56.2 | -85.6 | 256 | 8 |
| 2014-05-01T00:25 | 16155 | 103 | -56.2 | -85.6 | 256 | 8 |
| 2014-05-01T00:25 | 16164 | 103 | -56.2 | -85.5 | 256 | 8 |
| 2014-05-01T00:25 | 16174 | 102 | -56.3 | -85.4 | 256 | 8 |
| 2014-05-01T00:25 | 16183 | 102 | -56.3 | -85.5 | 257 | 8 |
| 2014-05-01T00:25 | 16192 | 102 | -56.4 | -85.6 | 257 | 8 |
| 2014-05-01T00:25 | 16202 | 102 | -56.4 | -85.6 | 257 | 8 |
| 2014-05-01T00:25 | 16210 | 102 | -56.4 | -85.7 | 257 | 8 |
| 2014-05-01T00:25 | 16220 | 102 | -56.4 | -85.7 | 258 | 8 |
| 2014-05-01T00:25 | 16231 | 102 | -56.3 | -85.7 | 258 | 8 |
| 2014-05-01T00:25 | 16242 | 101 | -56.4 | -85.6 | 259 | 8 |
| 2014-05-01T00:25 | 16252 | 101 | -56.5 | -85.7 | 259 | 8 |
| 2014-05-01T00:25 | 16262 | 101 | -56.5 | -85.7 | 260 | 7 |
| 2014-05-01T00:25 | 16272 | 101 | -56.6 | -85.7 | 260 | 7 |
| 2014-05-01T00:26 | 16281 | 101 | -56.7 | -85.8 | 261 | 7 |
| 2014-05-01T00:26 | 16290 | 101 | -56.6 | -85.8 | 262 | 7 |
| 2014-05-01T00:26 | 16300 | 100 | -56.7 | -85.9 | 263 | 7 |
| 2014-05-01T00:26 | 16309 | 100 | -56.7 | -85.9 | 263 | 7 |
| 2014-05-01T00:26 | 16318 | 100 | -56.7 | -85.9 | 264 | 7 |
| 2014-05-01T00:26 | 16329 | 100 | -56.8 | -85.8 | 265 | 7 |
| 2014-05-01T00:26 | 16339 | 100 | -56.8 | -85.8 | 266 | 7 |
| 2014-05-01T00:26 | 16347 | 100 | -56.9 | -85.8 | 267 | 7 |
| 2014-05-01T00:26 | 16357 | 100 | -56.9 | -85.9 | 268 | 6 |
| 2014-05-01T00:26 | 16367 | 99 | -57.0 | -86.0 | 269 | 6 |
| 2014-05-01T00:26 | 16377 | 99 | -56.9 | -86.0 | 270 | 6 |
| 2014-05-01T00:26 | 16387 | 99 | -56.9 | -86.0 | 271 | 6 |
| 2014-05-01T00:26 | 16396 | 99 | -56.8 | -85.8 | 273 | 6 |
| 2014-05-01T00:26 | 16405 | 99 | -56.8 | -85.8 | 274 | 6 |
| 2014-05-01T00:26 | 16414 | 99 | -56.9 | -85.9 | 275 | 6 |
| 2014-05-01T00:26 | 16425 | 99 | -56.9 | -86.1 | 276 | 6 |
| 2014-05-01T00:26 | 16436 | 98 | -56.9 | -86.1 | 278 | 6 |
| 2014-05-01T00:26 | 16445 | 98 | -56.9 | -86.1 | 279 | 6 |
| 2014-05-01T00:26 | 16454 | 98 | -57.0 | -86.0 | 280 | 6 |
| 2014-05-01T00:26 | 16464 | 98 | -57.0 | -85.9 | 281 | 6 |
| 2014-05-01T00:26 | 16475 | 98 | -57.0 | -85.9 | 282 | 6 |
| 2014-05-01T00:26 | 16485 | 98 | -57.0 | -85.8 | 283 | 6 |
| 2014-05-01T00:26 | 16495 | 97 | -57.1 | -85.8 | 284 | 6 |
| 2014-05-01T00:26 | 16504 | 97 | -57.1 | -85.9 | 285 | 6 |
| 2014-05-01T00:26 | 16514 | 97 | -57.1 | -86.1 | 285 | 6 |
| 2014-05-01T00:26 | 16525 | 97 | -57.2 | -86.1 | 285 | 6 |
| 2014-05-01T00:26 | 16536 | 97 | -57.3 | -86.2 | 285 | 6 |
| 2014-05-01T00:26 | 16546 | 97 | -57.4 | -86.3 | 285 | 6 |
| 2014-05-01T00:26 | 16555 | 97 | -57.5 | -86.3 | 285 | 6 |
| 2014-05-01T00:26 | 16564 | 96 | -57.5 | -86.3 | 285 | 6 |
| 2014-05-01T00:27 | 16574 | 96 | -57.5 | -86.2 | 284 | 6 |
| 2014-05-01T00:27 | 16584 | 96 | -57.7 | -86.3 | 283 | 6 |
| 2014-05-01T00:27 | 16595 | 96 | -57.6 | -86.5 | 283 | 6 |
| 2014-05-01T00:27 | 16605 | 96 | -57.6 | -86.6 | 282 | 6 |
| 2014-05-01T00:27 | 16614 | 96 | -57.6 | -86.6 | 281 | 6 |
| 2014-05-01T00:27 | 16623 | 95 | -57.7 | -86.6 | 280 | 6 |
| 2014-05-01T00:27 | 16633 | 95 | -57.7 | -86.5 | 280 | 6 |
| 2014-05-01T00:27 | 16643 | 95 | -57.7 | -86.4 | 279 | 6 |
| 2014-05-01T00:27 | 16653 | 95 | -57.7 | -86.3 | 278 | 6 |
| 2014-05-01T00:27 | 16664 | 95 | -57.7 | -86.3 | 278 | 6 |
| 2014-05-01T00:27 | 16674 | 95 | -57.8 | -86.2 | 277 | 6 |
| 2014-05-01T00:27 | 16683 | 95 | -57.9 | -86.2 | 276 | 6 |
| 2014-05-01T00:27 | 16693 | 94 | -57.8 | -86.0 | 275 | 6 |
| 2014-05-01T00:27 | 16703 | 94 | -57.9 | -86.0 | 275 | 6 |
| 2014-05-01T00:27 | 16713 | 94 | -58.0 | -86.1 | 274 | 6 |
| 2014-05-01T00:27 | 16723 | 94 | -58.2 | -86.3 | 273 | 6 |
| 2014-05-01T00:27 | 16733 | 94 | -58.2 | -86.4 | 272 | 6 |
| 2014-05-01T00:27 | 16743 | 94 | -58.3 | -86.5 | 272 | 6 |
| 2014-05-01T00:27 | 16753 | 94 | -58.3 | -86.6 | 271 | 6 |
| 2014-05-01T00:27 | 16761 | 93 | -58.4 | -86.7 | 270 | 6 |
| 2014-05-01T00:27 | 16771 | 93 | -58.4 | -86.8 | 270 | 6 |
| 2014-05-01T00:27 | 16781 | 93 | -58.5 | -86.8 | 269 | 6 |
| 2014-05-01T00:27 | 16792 | 93 | -58.6 | -86.9 | 269 | 5 |
| 2014-05-01T00:27 | 16802 | 93 | -58.6 | -86.9 | 269 | 5 |
| 2014-05-01T00:27 | 16812 | 93 | -58.7 | -87.0 | 269 | 6 |
| 2014-05-01T00:27 | 16821 | 93 | -58.8 | -86.9 | 269 | 6 |
| 2014-05-01T00:27 | 16830 | 92 | -58.9 | -87.0 | 269 | 6 |
| 2014-05-01T00:27 | 16840 | 92 | -59.0 | -87.0 | 269 | 6 |
| 2014-05-01T00:27 | 16851 | 92 | -59.1 | -87.1 | 269 | 6 |
| 2014-05-01T00:27 | 16862 | 92 | -59.3 | -87.2 | 270 | 6 |
| 2014-05-01T00:28 | 16872 | 92 | -59.3 | -87.2 | 270 | 6 |
| 2014-05-01T00:28 | 16883 | 92 | -59.5 | -87.3 | 271 | 6 |
| 2014-05-01T00:28 | 16893 | 91 | -59.5 | -87.5 | 272 | 6 |
| 2014-05-01T00:28 | 16902 | 91 | -59.7 | -87.6 | 272 | 6 |
| 2014-05-01T00:28 | 16911 | 91 | -59.8 | -87.7 | 273 | 6 |
| 2014-05-01T00:28 | 16922 | 91 | -59.8 | -87.7 | 274 | 6 |
| 2014-05-01T00:28 | 16932 | 91 | -59.8 | -87.8 | 275 | 6 |
| 2014-05-01T00:28 | 16941 | 91 | -59.9 | -87.7 | 276 | 6 |
| 2014-05-01T00:28 | 16951 | 91 | -59.9 | -87.7 | 277 | 6 |
| 2014-05-01T00:28 | 16962 | 90 | -59.9 | -87.6 | 278 | 6 |
| 2014-05-01T00:28 | 16972 | 90 | -59.9 | -87.6 | 279 | 6 |
| 2014-05-01T00:28 | 16983 | 90 | -59.9 | -87.7 | 280 | 6 |
| 2014-05-01T00:28 | 16992 | 90 | -60.0 | -87.7 | 281 | 6 |
| 2014-05-01T00:28 | 17002 | 90 | -60.1 | -87.9 | 282 | 6 |
| 2014-05-01T00:28 | 17013 | 90 | -60.1 | -87.9 | 284 | 6 |
| 2014-05-01T00:28 | 17022 | 90 | -60.2 | -87.8 | 285 | 6 |
| 2014-05-01T00:28 | 17032 | 89 | -60.2 | -87.8 | 286 | 6 |
| 2014-05-01T00:28 | 17042 | 89 | -60.2 | -87.8 | 287 | 6 |
| 2014-05-01T00:28 | 17051 | 89 | -60.3 | -87.5 | 288 | 6 |
| 2014-05-01T00:28 | 17061 | 89 | -60.3 | -87.3 | 289 | 6 |
| 2014-05-01T00:28 | 17072 | 89 | -60.4 | -87.4 | 290 | 6 |
| 2014-05-01T00:28 | 17083 | 89 | -60.5 | -87.4 | 291 | 7 |
| 2014-05-01T00:28 | 17093 | 89 | -60.6 | -87.5 | 292 | 7 |
| 2014-05-01T00:28 | 17103 | 88 | -60.6 | -87.5 | 294 | 7 |
| 2014-05-01T00:28 | 17112 | 88 | -60.7 | -87.7 | 295 | 7 |
| 2014-05-01T00:28 | 17121 | 88 | -60.7 | -87.8 | 296 | 7 |
| 2014-05-01T00:28 | 17132 | 88 | -60.8 | -87.9 | 297 | 7 |
| 2014-05-01T00:28 | 17142 | 88 | -60.9 | -88.0 | 298 | 7 |
| 2014-05-01T00:28 | 17152 | 88 | -61.0 | -88.1 | 299 | 7 |
| 2014-05-01T00:28 | 17162 | 88 | -61.0 | -88.2 | 300 | 7 |
| 2014-05-01T00:29 | 17173 | 87 | -61.0 | -88.3 | 301 | 7 |
| 2014-05-01T00:29 | 17183 | 87 | -60.9 | -88.4 | 302 | 7 |
| 2014-05-01T00:29 | 17192 | 87 | -60.9 | -88.4 | 303 | 7 |
| 2014-05-01T00:29 | 17202 | 87 | -61.0 | -88.3 | 304 | 7 |
| 2014-05-01T00:29 | 17212 | 87 | -60.9 | -88.3 | 305 | 7 |
| 2014-05-01T00:29 | 17222 | 87 | -60.9 | -88.2 | 305 | 7 |
| 2014-05-01T00:29 | 17231 | 87 | -60.9 | -88.1 | 306 | 7 |
| 2014-05-01T00:29 | 17241 | 86 | -60.9 | -88.1 | 307 | 7 |
| 2014-05-01T00:29 | 17251 | 86 | -61.0 | -88.1 | 307 | 7 |
| 2014-05-01T00:29 | 17260 | 86 | -61.1 | -88.2 | 308 | 7 |
| 2014-05-01T00:29 | 17269 | 86 | -61.2 | -88.2 | 308 | 7 |
| 2014-05-01T00:29 | 17280 | 86 | -61.2 | -88.3 | 309 | 7 |
| 2014-05-01T00:29 | 17291 | 86 | -61.2 | -88.5 | 309 | 7 |
| 2014-05-01T00:29 | 17301 | 86 | -61.4 | -88.7 | 309 | 7 |
| 2014-05-01T00:29 | 17310 | 86 | -61.4 | -88.9 | 309 | 7 |
| 2014-05-01T00:29 | 17319 | 85 | -61.2 | -88.9 | 309 | 6 |
| 2014-05-01T00:29 | 17329 | 85 | -60.9 | -88.8 | 308 | 6 |
| 2014-05-01T00:29 | 17339 | 85 | -60.9 | -88.7 | 308 | 6 |
| 2014-05-01T00:29 | 17349 | 85 | -60.9 | -88.6 | 307 | 5 |
| 2014-05-01T00:29 | 17360 | 85 | -60.9 | -88.4 | 306 | 5 |
| 2014-05-01T00:29 | 17370 | 85 | -60.9 | -88.2 | 305 | 5 |
| 2014-05-01T00:29 | 17379 | 85 | -60.9 | -88.1 | 303 | 5 |
| 2014-05-01T00:29 | 17388 | 84 | -60.8 | -87.9 | 302 | 5 |
| 2014-05-01T00:29 | 17399 | 84 | -60.9 | -87.8 | 300 | 5 |
| 2014-05-01T00:29 | 17409 | 84 | -60.9 | -87.7 | 299 | 5 |
| 2014-05-01T00:29 | 17418 | 84 | -61.0 | -87.6 | 297 | 5 |
| 2014-05-01T00:29 | 17428 | 84 | -61.0 | -87.6 | 296 | 5 |
| 2014-05-01T00:29 | 17437 | 84 | -61.1 | -87.6 | 296 | 5 |
| 2014-05-01T00:29 | 17446 | 84 | -61.2 | -87.8 | 295 | 5 |
| 2014-05-01T00:29 | 17456 | 84 | -61.2 | -87.9 | 296 | 5 |
| 2014-05-01T00:30 | 17466 | 83 | -61.1 | -88.0 | 296 | 5 |
| 2014-05-01T00:30 | 17475 | 83 | -61.2 | -88.2 | 297 | 6 |
| 2014-05-01T00:30 | 17486 | 83 | -61.2 | -88.5 | 298 | 6 |
| 2014-05-01T00:30 | 17496 | 83 | -61.3 | -88.7 | 300 | 6 |
| 2014-05-01T00:30 | 17504 | 83 | -61.3 | -88.8 | 301 | 6 |
| 2014-05-01T00:30 | 17512 | 83 | -61.1 | -88.9 | 303 | 6 |
| 2014-05-01T00:30 | 17522 | 83 | -60.9 | -88.9 | 305 | 7 |
| 2014-05-01T00:30 | 17532 | 83 | -60.9 | -88.8 | 307 | 7 |
| 2014-05-01T00:30 | 17543 | 82 | -60.9 | -88.7 | 309 | 7 |
| 2014-05-01T00:30 | 17553 | 82 | -60.9 | -88.6 | 310 | 7 |
| 2014-05-01T00:30 | 17564 | 82 | -60.8 | -88.4 | 312 | 7 |
| 2014-05-01T00:30 | 17573 | 82 | -60.8 | -88.3 | 313 | 7 |
| 2014-05-01T00:30 | 17582 | 82 | -60.9 | -88.1 | 315 | 7 |
| 2014-05-01T00:30 | 17592 | 82 | -60.9 | -87.9 | 316 | 7 |
| 2014-05-01T00:30 | 17603 | 82 | -60.9 | -87.8 | 317 | 7 |
| 2014-05-01T00:30 | 17613 | 81 | -60.9 | -87.9 | 318 | 7 |
| 2014-05-01T00:30 | 17623 | 81 | -60.8 | -88.0 | 318 | 6 |
| 2014-05-01T00:30 | 17633 | 81 | -60.7 | -88.1 | 318 | 6 |
| 2014-05-01T00:30 | 17644 | 81 | -60.7 | -88.2 | 318 | 6 |
| 2014-05-01T00:30 | 17652 | 81 | -60.7 | -88.2 | 317 | 6 |
| 2014-05-01T00:30 | 17662 | 81 | -60.5 | -88.0 | 316 | 5 |
| 2014-05-01T00:30 | 17672 | 81 | -60.2 | -87.8 | 315 | 5 |
| 2014-05-01T00:30 | 17681 | 81 | -60.2 | -87.7 | 313 | 5 |
| 2014-05-01T00:30 | 17690 | 80 | -60.2 | -87.5 | 311 | 5 |
| 2014-05-01T00:30 | 17700 | 80 | -60.3 | -87.3 | 309 | 4 |
| 2014-05-01T00:30 | 17711 | 80 | -60.3 | -87.2 | 306 | 4 |
| 2014-05-01T00:30 | 17722 | 80 | -60.4 | -87.1 | 303 | 4 |
| 2014-05-01T00:30 | 17732 | 80 | -60.4 | -87.1 | 300 | 4 |
| 2014-05-01T00:30 | 17743 | 80 | -60.4 | -87.0 | 297 | 4 |
| 2014-05-01T00:30 | 17752 | 80 | -60.5 | -87.0 | 294 | 4 |
| 2014-05-01T00:31 | 17762 | 80 | -60.5 | -87.1 | 291 | 4 |
| 2014-05-01T00:31 | 17771 | 79 | -60.5 | -87.2 | 288 | 4 |
| 2014-05-01T00:31 | 17781 | 79 | -60.6 | -87.4 | 285 | 4 |
| 2014-05-01T00:31 | 17792 | 79 | -60.7 | -87.4 | 282 | 4 |
| 2014-05-01T00:31 | 17802 | 79 | -60.8 | -87.6 | 279 | 4 |
| 2014-05-01T00:31 | 17811 | 79 | -60.9 | -87.9 | 276 | 4 |
| 2014-05-01T00:31 | 17820 | 79 | -60.8 | -88.1 | 274 | 4 |
| 2014-05-01T00:31 | 17830 | 79 | -60.8 | -88.1 | 271 | 4 |
| 2014-05-01T00:31 | 17842 | 79 | -60.8 | -88.1 | 269 | 4 |
| 2014-05-01T00:31 | 17854 | 78 | -60.9 | -88.2 | 266 | 4 |
| 2014-05-01T00:31 | 17865 | 78 | -61.0 | -88.2 | 264 | 4 |
| 2014-05-01T00:31 | 17877 | 78 | -61.2 | -88.3 | 262 | 4 |
| 2014-05-01T00:31 | 17888 | 78 | -61.3 | -88.6 | 260 | 4 |
| 2014-05-01T00:31 | 17898 | 78 | -61.4 | -88.6 | 259 | 4 |
| 2014-05-01T00:31 | 17907 | 78 | -61.5 | -88.7 | 258 | 5 |
| 2014-05-01T00:31 | 17916 | 78 | -61.5 | -88.7 | 257 | 5 |
| 2014-05-01T00:31 | 17928 | 77 | -61.7 | -88.6 | 256 | 5 |
| 2014-05-01T00:31 | 17938 | 77 | -61.8 | -88.6 | 256 | 5 |
| 2014-05-01T00:31 | 17947 | 77 | -61.9 | -88.5 | 256 | 5 |
| 2014-05-01T00:31 | 17957 | 77 | -61.9 | -88.4 | 257 | 5 |
| 2014-05-01T00:31 | 17967 | 77 | -61.8 | -88.5 | 257 | 5 |
| 2014-05-01T00:31 | 17977 | 77 | -61.9 | -88.5 | 258 | 5 |
| 2014-05-01T00:31 | 17986 | 77 | -62.0 | -88.5 | 260 | 6 |
| 2014-05-01T00:31 | 17996 | 77 | -62.0 | -88.6 | 261 | 6 |
| 2014-05-01T00:31 | 18006 | 76 | -62.0 | -88.7 | 263 | 6 |
| 2014-05-01T00:31 | 18017 | 76 | -62.0 | -88.8 | 265 | 6 |
| 2014-05-01T00:31 | 18025 | 76 | -62.0 | -88.9 | 267 | 6 |
| 2014-05-01T00:31 | 18036 | 76 | -62.0 | -89.0 | 269 | 6 |
| 2014-05-01T00:31 | 18046 | 76 | -61.9 | -89.1 | 271 | 6 |
| 2014-05-01T00:31 | 18055 | 76 | -61.9 | -89.1 | 273 | 6 |
| 2014-05-01T00:32 | 18065 | 76 | -61.9 | -89.2 | 275 | 6 |
| 2014-05-01T00:32 | 18075 | 76 | -62.0 | -89.2 | 276 | 6 |
| 2014-05-01T00:32 | 18085 | 75 | -62.0 | -89.2 | 278 | 6 |
| 2014-05-01T00:32 | 18094 | 75 | -61.9 | -89.1 | 279 | 6 |
| 2014-05-01T00:32 | 18103 | 75 | -61.9 | -89.0 | 281 | 6 |
| 2014-05-01T00:32 | 18113 | 75 | -61.9 | -88.8 | 282 | 6 |
| 2014-05-01T00:32 | 18123 | 75 | -61.8 | -88.5 | 282 | 6 |
| 2014-05-01T00:32 | 18134 | 75 | -61.8 | -88.3 | 283 | 5 |
| 2014-05-01T00:32 | 18144 | 75 | -61.9 | -88.3 | 283 | 5 |
| 2014-05-01T00:32 | 18154 | 75 | -61.8 | -88.2 | 284 | 5 |
| 2014-05-01T00:32 | 18163 | 75 | -61.7 | -88.1 | 284 | 5 |
| 2014-05-01T00:32 | 18173 | 74 | -61.7 | -87.9 | 283 | 5 |
| 2014-05-01T00:32 | 18184 | 74 | -61.8 | -88.1 | 283 | 5 |
| 2014-05-01T00:32 | 18195 | 74 | -61.9 | -88.3 | 283 | 4 |
| 2014-05-01T00:32 | 18205 | 74 | -61.9 | -88.3 | 282 | 4 |
| 2014-05-01T00:32 | 18214 | 74 | -61.7 | -88.4 | 282 | 4 |
| 2014-05-01T00:32 | 18225 | 74 | -61.7 | -88.4 | 281 | 4 |
| 2014-05-01T00:32 | 18234 | 74 | -61.7 | -88.4 | 280 | 3 |
| 2014-05-01T00:32 | 18243 | 74 | -61.5 | -88.4 | 279 | 3 |
| 2014-05-01T00:32 | 18253 | 73 | -61.4 | -88.3 | 278 | 3 |
| 2014-05-01T00:32 | 18264 | 73 | -61.4 | -88.3 | 276 | 3 |
| 2014-05-01T00:32 | 18275 | 73 | -61.5 | -88.3 | 274 | 2 |
| 2014-05-01T00:32 | 18285 | 73 | -61.5 | -88.3 | 272 | 2 |
| 2014-05-01T00:32 | 18297 | 73 | -61.5 | -88.1 | 269 | 2 |
| 2014-05-01T00:32 | 18308 | 73 | -61.6 | -88.1 | 266 | 1 |
| 2014-05-01T00:32 | 18317 | 73 | -61.6 | -88.0 | 261 | 1 |
| 2014-05-01T00:32 | 18326 | 73 | -61.7 | -88.1 | 254 | 1 |
| 2014-05-01T00:32 | 18337 | 72 | -61.8 | -88.2 | 245 | 1 |
| 2014-05-01T00:32 | 18348 | 72 | -61.8 | -88.2 | 232 | 1 |
| 2014-05-01T00:32 | 18358 | 72 | -61.8 | -88.2 | 216 | 0 |
| 2014-05-01T00:33 | 18368 | 72 | -61.9 | -88.3 | 198 | 0 |
| 2014-05-01T00:33 | 18378 | 72 | -62.0 | -88.5 | 180 | 0 |
| 2014-05-01T00:33 | 18389 | 72 | -62.1 | -88.7 | 166 | 1 |
| 2014-05-01T00:33 | 18401 | 72 | -62.3 | -88.8 | 156 | 1 |
| 2014-05-01T00:33 | 18411 | 72 | -62.3 | -88.9 | 148 | 1 |
| 2014-05-01T00:33 | 18421 | 72 | -62.1 | -88.9 | 143 | 1 |
| 2014-05-01T00:33 | 18430 | 71 | -61.9 | -88.9 | 140 | 1 |
| 2014-05-01T00:33 | 18441 | 71 | -61.9 | -88.7 | 137 | 1 |
| 2014-05-01T00:33 | 18451 | 71 | -62.0 | -88.7 | 136 | 2 |
| 2014-05-01T00:33 | 18462 | 71 | -62.1 | -88.6 | 136 | 2 |
| 2014-05-01T00:33 | 18474 | 71 | -62.2 | -88.6 | 137 | 2 |
| 2014-05-01T00:33 | 18485 | 71 | -62.1 | -88.6 | 138 | 2 |
| 2014-05-01T00:33 | 18494 | 71 | -62.1 | -88.6 | 140 | 2 |
| 2014-05-01T00:33 | 18504 | 71 | -62.2 | -88.7 | 142 | 2 |
| 2014-05-01T00:33 | 18515 | 70 | -62.3 | -88.8 | 145 | 3 |
| 2014-05-01T00:33 | 18526 | 70 | -62.5 | -88.9 | 148 | 3 |
| 2014-05-01T00:33 | 18537 | 70 | -62.4 | -89.0 | 151 | 3 |
| 2014-05-01T00:33 | 18549 | 70 | -62.3 | -88.9 | 154 | 3 |
| 2014-05-01T00:33 | 18560 | 70 | -62.2 | -88.9 | 157 | 4 |
| 2014-05-01T00:33 | 18570 | 70 | -62.1 | -88.8 | 159 | 4 |
| 2014-05-01T00:33 | 18581 | 70 | -62.2 | -88.9 | 162 | 4 |
| 2014-05-01T00:33 | 18591 | 70 | -62.3 | -88.9 | 164 | 4 |
| 2014-05-01T00:33 | 18601 | 69 | -62.4 | -88.8 | 167 | 4 |
| 2014-05-01T00:33 | 18612 | 69 | -62.5 | -88.8 | 169 | 5 |
| 2014-05-01T00:33 | 18623 | 69 | -62.5 | -88.8 | 171 | 5 |
| 2014-05-01T00:33 | 18633 | 69 | -62.5 | -88.7 | 173 | 5 |
| 2014-05-01T00:33 | 18644 | 69 | -62.6 | -88.8 | 174 | 5 |
| 2014-05-01T00:33 | 18655 | 69 | -62.8 | -88.8 | 176 | 5 |
| 2014-05-01T00:33 | 18667 | 69 | -62.9 | -88.9 | 178 | 5 |
| 2014-05-01T00:33 | 18677 | 69 | -63.0 | -89.1 | 179 | 5 |
| 2014-05-01T00:34 | 18686 | 69 | -63.1 | -89.3 | 181 | 5 |
| 2014-05-01T00:34 | 18696 | 68 | -63.2 | -89.5 | 183 | 5 |
| 2014-05-01T00:34 | 18706 | 68 | -63.3 | -89.8 | 185 | 6 |
| 2014-05-01T00:34 | 18715 | 68 | -63.5 | -89.9 | 187 | 6 |
| 2014-05-01T00:34 | 18726 | 68 | -63.5 | -90.2 | 189 | 6 |
| 2014-05-01T00:34 | 18737 | 68 | -63.5 | -90.3 | 192 | 6 |
| 2014-05-01T00:34 | 18747 | 68 | -63.5 | -90.3 | 194 | 6 |
| 2014-05-01T00:34 | 18758 | 68 | -63.4 | -90.3 | 196 | 6 |
| 2014-05-01T00:34 | 18769 | 68 | -63.3 | -90.3 | 199 | 6 |
| 2014-05-01T00:34 | 18779 | 67 | -63.2 | -90.1 | 201 | 6 |
| 2014-05-01T00:34 | 18789 | 67 | -63.0 | -89.9 | 203 | 6 |
| 2014-05-01T00:34 | 18799 | 67 | -63.0 | -89.7 | 206 | 6 |
| 2014-05-01T00:34 | 18809 | 67 | -63.0 | -89.5 | 208 | 6 |
| 2014-05-01T00:34 | 18819 | 67 | -63.2 | -89.4 | 211 | 6 |
| 2014-05-01T00:34 | 18829 | 67 | -63.3 | -89.4 | 213 | 6 |
| 2014-05-01T00:34 | 18840 | 67 | -63.5 | -89.5 | 216 | 7 |
| 2014-05-01T00:34 | 18850 | 67 | -63.6 | -89.7 | 218 | 7 |
| 2014-05-01T00:34 | 18859 | 67 | -63.4 | -89.7 | 221 | 7 |
| 2014-05-01T00:34 | 18869 | 66 | -63.2 | -89.7 | 223 | 7 |
| 2014-05-01T00:34 | 18879 | 66 | -63.3 | -89.7 | 225 | 7 |
| 2014-05-01T00:34 | 18889 | 66 | -63.3 | -89.8 | 227 | 7 |
| 2014-05-01T00:34 | 18898 | 66 | -63.2 | -89.8 | 229 | 8 |
| 2014-05-01T00:34 | 18906 | 66 | -63.2 | -89.7 | 231 | 8 |
| 2014-05-01T00:34 | 18916 | 66 | -63.2 | -89.6 | 232 | 8 |
| 2014-05-01T00:34 | 18927 | 66 | -63.2 | -89.6 | 234 | 8 |
| 2014-05-01T00:34 | 18936 | 66 | -63.3 | -89.6 | 236 | 8 |
| 2014-05-01T00:34 | 18946 | 66 | -63.2 | -89.7 | 237 | 9 |
| 2014-05-01T00:34 | 18955 | 66 | -63.2 | -89.5 | 238 | 9 |
| 2014-05-01T00:34 | 18965 | 65 | -63.3 | -89.6 | 240 | 9 |
| 2014-05-01T00:34 | 18976 | 65 | -63.3 | -89.6 | 241 | 9 |
| 2014-05-01T00:35 | 18986 | 65 | -63.4 | -89.6 | 242 | 9 |
| 2014-05-01T00:35 | 18995 | 65 | -63.5 | -89.6 | 243 | 9 |
| 2014-05-01T00:35 | 19007 | 65 | -63.5 | -89.7 | 245 | 9 |
| 2014-05-01T00:35 | 19016 | 65 | -63.4 | -89.7 | 246 | 9 |
| 2014-05-01T00:35 | 19024 | 65 | -63.4 | -89.9 | 247 | 9 |
| 2014-05-01T00:35 | 19034 | 65 | -63.5 | -90.1 | 248 | 9 |
| 2014-05-01T00:35 | 19043 | 65 | -63.3 | -90.2 | 250 | 8 |
| 2014-05-01T00:35 | 19052 | 65 | -63.3 | -90.3 | 251 | 8 |
| 2014-05-01T00:35 | 19063 | 64 | -63.2 | -90.3 | 252 | 8 |
| 2014-05-01T00:35 | 19074 | 64 | -62.9 | -90.3 | 253 | 8 |
| 2014-05-01T00:35 | 19083 | 64 | -62.8 | -90.3 | 254 | 7 |
| 2014-05-01T00:35 | 19093 | 64 | -62.8 | -90.1 | 255 | 7 |
| 2014-05-01T00:35 | 19103 | 64 | -62.7 | -90.0 | 255 | 6 |
| 2014-05-01T00:35 | 19113 | 64 | -62.5 | -89.9 | 255 | 6 |
| 2014-05-01T00:35 | 19122 | 64 | -62.4 | -89.8 | 255 | 6 |
| 2014-05-01T00:35 | 19133 | 64 | -62.4 | -89.7 | 255 | 5 |
| 2014-05-01T00:35 | 19142 | 64 | -62.4 | -89.6 | 254 | 5 |
| 2014-05-01T00:35 | 19151 | 64 | -62.4 | -89.4 | 253 | 5 |
| 2014-05-01T00:35 | 19161 | 63 | -62.3 | -89.4 | 251 | 5 |
| 2014-05-01T00:35 | 19170 | 63 | -62.3 | -89.4 | 248 | 4 |
| 2014-05-01T00:35 | 19179 | 63 | -62.3 | -89.5 | 246 | 4 |
| 2014-05-01T00:35 | 19189 | 63 | -62.3 | -89.5 | 243 | 4 |
| 2014-05-01T00:35 | 19200 | 63 | -62.3 | -89.5 | 240 | 4 |
| 2014-05-01T00:35 | 19210 | 63 | -62.1 | -89.6 | 237 | 4 |
| 2014-05-01T00:35 | 19219 | 63 | -61.9 | -89.6 | 234 | 4 |
| 2014-05-01T00:35 | 19228 | 63 | -61.8 | -89.6 | 232 | 5 |
| 2014-05-01T00:35 | 19236 | 63 | -61.8 | -89.5 | 230 | 5 |
| 2014-05-01T00:35 | 19246 | 63 | -61.5 | -89.5 | 229 | 5 |
| 2014-05-01T00:35 | 19257 | 62 | -61.2 | -89.3 | 228 | 5 |
| 2014-05-01T00:35 | 19266 | 62 | -61.1 | -89.0 | 227 | 5 |
| 2014-05-01T00:36 | 19276 | 62 | -61.1 | -88.9 | 227 | 5 |
| 2014-05-01T00:36 | 19286 | 62 | -60.9 | -88.6 | 227 | 5 |
| 2014-05-01T00:36 | 19298 | 62 | -60.9 | -88.6 | 227 | 5 |
| 2014-05-01T00:36 | 19308 | 62 | -60.9 | -88.6 | 228 | 5 |
| 2014-05-01T00:36 | 19317 | 62 | -60.9 | -88.5 | 229 | 5 |
| 2014-05-01T00:36 | 19328 | 62 | -60.8 | -88.5 | 230 | 5 |
| 2014-05-01T00:36 | 19337 | 62 | -60.8 | -88.5 | 231 | 5 |
| 2014-05-01T00:36 | 19346 | 62 | -60.7 | -88.6 | 233 | 5 |
| 2014-05-01T00:36 | 19356 | 61 | -60.6 | -88.6 | 235 | 5 |
| 2014-05-01T00:36 | 19367 | 61 | -60.6 | -88.6 | 237 | 5 |
| 2014-05-01T00:36 | 19377 | 61 | -60.5 | -88.6 | 239 | 5 |
| 2014-05-01T00:36 | 19387 | 61 | -60.5 | -88.5 | 241 | 5 |
| 2014-05-01T00:36 | 19397 | 61 | -60.5 | -88.4 | 243 | 5 |
| 2014-05-01T00:36 | 19406 | 61 | -60.6 | -88.4 | 245 | 5 |
| 2014-05-01T00:36 | 19415 | 61 | -60.6 | -88.4 | 248 | 4 |
| 2014-05-01T00:36 | 19424 | 61 | -60.7 | -88.4 | 250 | 4 |
| 2014-05-01T00:36 | 19433 | 61 | -60.7 | -88.3 | 252 | 4 |
| 2014-05-01T00:36 | 19443 | 61 | -60.7 | -88.3 | 255 | 4 |
| 2014-05-01T00:36 | 19453 | 60 | -60.7 | -88.3 | 257 | 4 |
| 2014-05-01T00:36 | 19464 | 60 | -60.7 | -88.3 | 260 | 4 |
| 2014-05-01T00:36 | 19474 | 60 | -60.8 | -88.4 | 263 | 4 |
| 2014-05-01T00:36 | 19484 | 60 | -60.8 | -88.5 | 266 | 4 |
| 2014-05-01T00:36 | 19494 | 60 | -60.8 | -88.6 | 270 | 4 |
| 2014-05-01T00:36 | 19504 | 60 | -60.9 | -88.7 | 273 | 4 |
| 2014-05-01T00:36 | 19516 | 60 | -60.9 | -88.8 | 277 | 4 |
| 2014-05-01T00:36 | 19525 | 60 | -61.0 | -88.9 | 281 | 4 |
| 2014-05-01T00:36 | 19535 | 60 | -61.0 | -89.1 | 285 | 4 |
| 2014-05-01T00:36 | 19545 | 60 | -60.9 | -89.1 | 288 | 4 |
| 2014-05-01T00:36 | 19557 | 59 | -60.9 | -89.1 | 292 | 4 |
| 2014-05-01T00:36 | 19567 | 59 | -60.8 | -89.0 | 295 | 4 |
| 2014-05-01T00:37 | 19575 | 59 | -60.7 | -88.9 | 298 | 5 |
| 2014-05-01T00:37 | 19584 | 59 | -60.7 | -88.8 | 301 | 5 |
| 2014-05-01T00:37 | 19595 | 59 | -60.8 | -88.8 | 303 | 5 |
| 2014-05-01T00:37 | 19607 | 59 | -60.9 | -88.7 | 306 | 5 |
| 2014-05-01T00:37 | 19616 | 59 | -60.9 | -88.7 | 308 | 5 |
| 2014-05-01T00:37 | 19626 | 59 | -61.0 | -88.8 | 309 | 5 |
| 2014-05-01T00:37 | 19636 | 59 | -61.0 | -89.0 | 311 | 5 |
| 2014-05-01T00:37 | 19646 | 59 | -61.1 | -89.1 | 313 | 5 |
| 2014-05-01T00:37 | 19656 | 59 | -61.2 | -89.3 | 315 | 5 |
| 2014-05-01T00:37 | 19667 | 58 | -61.1 | -89.4 | 316 | 5 |
| 2014-05-01T00:37 | 19676 | 58 | -61.1 | -89.5 | 318 | 5 |
| 2014-05-01T00:37 | 19686 | 58 | -61.0 | -89.4 | 320 | 5 |
| 2014-05-01T00:37 | 19696 | 58 | -61.0 | -89.4 | 322 | 5 |
| 2014-05-01T00:37 | 19707 | 58 | -61.0 | -89.4 | 323 | 5 |
| 2014-05-01T00:37 | 19717 | 58 | -61.0 | -89.4 | 326 | 4 |
| 2014-05-01T00:37 | 19728 | 58 | -60.8 | -89.4 | 328 | 4 |
| 2014-05-01T00:37 | 19738 | 58 | -60.8 | -89.5 | 330 | 4 |
| 2014-05-01T00:37 | 19749 | 58 | -60.9 | -89.7 | 333 | 3 |
| 2014-05-01T00:37 | 19758 | 58 | -60.8 | -89.8 | 336 | 3 |
| 2014-05-01T00:37 | 19768 | 58 | -60.8 | -90.0 | 339 | 3 |
| 2014-05-01T00:37 | 19779 | 57 | -60.8 | -90.1 | 343 | 3 |
| 2014-05-01T00:37 | 19790 | 57 | -60.6 | -90.2 | 346 | 2 |
| 2014-05-01T00:37 | 19799 | 57 | -60.3 | -90.0 | 350 | 2 |
| 2014-05-01T00:37 | 19808 | 57 | -60.2 | -89.8 | 355 | 2 |
| 2014-05-01T00:37 | 19819 | 57 | -60.3 | -89.5 | 359 | 2 |
| 2014-05-01T00:37 | 19830 | 57 | -60.3 | -89.2 | 3 | 2 |
| 2014-05-01T00:37 | 19840 | 57 | -60.2 | -89.0 | 7 | 1 |
| 2014-05-01T00:37 | 19851 | 57 | -60.1 | -88.9 | 11 | 1 |
| 2014-05-01T00:37 | 19862 | 57 | -60.1 | -88.7 | 13 | 1 |
| 2014-05-01T00:37 | 19871 | 57 | -60.1 | -88.5 | 15 | 1 |
| 2014-05-01T00:38 | 19880 | 56 | -60.1 | -88.4 | 14 | 1 |
| 2014-05-01T00:38 | 19890 | 56 | -60.2 | -88.5 | 12 | 1 |
| 2014-05-01T00:38 | 19900 | 56 | -60.3 | -88.6 | 7 | 1 |
| 2014-05-01T00:38 | 19910 | 56 | -60.3 | -88.6 | 0 | 1 |
| 2014-05-01T00:38 | 19920 | 56 | -60.2 | -88.6 | 351 | 1 |
| 2014-05-01T00:38 | 19932 | 56 | -60.0 | -88.3 | 339 | 1 |
| 2014-05-01T00:38 | 19941 | 56 | -60.0 | -88.4 | 326 | 1 |
| 2014-05-01T00:38 | 19950 | 56 | -60.0 | -88.4 | 314 | 1 |
| 2014-05-01T00:38 | 19961 | 56 | -60.1 | -88.2 | 304 | 1 |
| 2014-05-01T00:38 | 19971 | 56 | -60.1 | -88.1 | 296 | 1 |
| 2014-05-01T00:38 | 19980 | 56 | -60.2 | -88.2 | 290 | 1 |
| 2014-05-01T00:38 | 19991 | 55 | -60.1 | -88.3 | 285 | 1 |
| 2014-05-01T00:38 | 20002 | 55 | -60.1 | -88.4 | 282 | 2 |
| 2014-05-01T00:38 | 20011 | 55 | -60.1 | -88.6 | 280 | 2 |
| 2014-05-01T00:38 | 20021 | 55 | -60.1 | -88.7 | 279 | 2 |
| 2014-05-01T00:38 | 20032 | 55 | -60.0 | -88.8 | 279 | 2 |
| 2014-05-01T00:38 | 20043 | 55 | -60.0 | -88.8 | 280 | 2 |
| 2014-05-01T00:38 | 20052 | 55 | -60.1 | -89.0 | 281 | 2 |
| 2014-05-01T00:38 | 20063 | 55 | -60.0 | -89.1 | 282 | 2 |
| 2014-05-01T00:38 | 20074 | 55 | -59.9 | -89.0 | 285 | 2 |
| 2014-05-01T00:38 | 20084 | 55 | -59.8 | -89.0 | 288 | 2 |
| 2014-05-01T00:38 | 20091 | 55 | -59.8 | -88.9 | 291 | 2 |
| 2014-05-01T00:38 | 20101 | 55 | -59.8 | -88.8 | 294 | 2 |
| 2014-05-01T00:38 | 20112 | 54 | -59.9 | -88.7 | 297 | 2 |
| 2014-05-01T00:38 | 20121 | 54 | -59.9 | -88.6 | 300 | 2 |
| 2014-05-01T00:38 | 20132 | 54 | -59.8 | -88.6 | 303 | 2 |
| 2014-05-01T00:38 | 20143 | 54 | -59.8 | -88.7 | 305 | 2 |
| 2014-05-01T00:38 | 20152 | 54 | -59.7 | -88.6 | 308 | 2 |
| 2014-05-01T00:38 | 20160 | 54 | -59.4 | -88.4 | 310 | 2 |
| 2014-05-01T00:38 | 20171 | 54 | -59.4 | -88.5 | 313 | 2 |
| 2014-05-01T00:39 | 20182 | 54 | -59.5 | -88.7 | 317 | 2 |
| 2014-05-01T00:39 | 20192 | 54 | -59.6 | -89.0 | 321 | 2 |
| 2014-05-01T00:39 | 20203 | 54 | -59.7 | -89.3 | 325 | 2 |
| 2014-05-01T00:39 | 20213 | 54 | -59.4 | -89.2 | 331 | 2 |
| 2014-05-01T00:39 | 20223 | 53 | -59.0 | -89.0 | 337 | 2 |
| 2014-05-01T00:39 | 20233 | 53 | -59.0 | -88.8 | 343 | 2 |
| 2014-05-01T00:39 | 20241 | 53 | -58.9 | -88.7 | 349 | 2 |
| 2014-05-01T00:39 | 20253 | 53 | -58.8 | -88.4 | 355 | 2 |
| 2014-05-01T00:39 | 20264 | 53 | -58.9 | -88.3 | 360 | 2 |
| 2014-05-01T00:39 | 20275 | 53 | -58.9 | -88.2 | 4 | 2 |
| 2014-05-01T00:39 | 20284 | 53 | -58.9 | -88.2 | 7 | 3 |
| 2014-05-01T00:39 | 20295 | 53 | -59.0 | -88.2 | 9 | 3 |
| 2014-05-01T00:39 | 20306 | 53 | -58.9 | -88.2 | 11 | 3 |
| 2014-05-01T00:39 | 20317 | 53 | -58.9 | -88.3 | 13 | 4 |
| 2014-05-01T00:39 | 20328 | 53 | -59.0 | -88.4 | 14 | 4 |
| 2014-05-01T00:39 | 20338 | 52 | -59.0 | -88.4 | 15 | 4 |
| 2014-05-01T00:39 | 20347 | 52 | -58.9 | -88.3 | 16 | 4 |
| 2014-05-01T00:39 | 20356 | 52 | -59.0 | -88.2 | 16 | 5 |
| 2014-05-01T00:39 | 20367 | 52 | -59.1 | -88.1 | 17 | 5 |
| 2014-05-01T00:39 | 20378 | 52 | -58.8 | -87.9 | 17 | 5 |
| 2014-05-01T00:39 | 20390 | 52 | -58.7 | -87.7 | 18 | 5 |
| 2014-05-01T00:39 | 20400 | 52 | -58.8 | -87.7 | 18 | 5 |
| 2014-05-01T00:39 | 20408 | 52 | -58.9 | -87.8 | 19 | 5 |
| 2014-05-01T00:39 | 20418 | 52 | -59.0 | -87.9 | 19 | 5 |
| 2014-05-01T00:39 | 20429 | 52 | -59.2 | -88.0 | 20 | 5 |
| 2014-05-01T00:39 | 20440 | 52 | -59.3 | -88.1 | 20 | 5 |
| 2014-05-01T00:39 | 20452 | 52 | -59.3 | -88.3 | 21 | 5 |
| 2014-05-01T00:39 | 20462 | 51 | -59.4 | -88.4 | 22 | 5 |
| 2014-05-01T00:39 | 20472 | 51 | -59.4 | -88.6 | 23 | 5 |
| 2014-05-01T00:39 | 20482 | 51 | -59.3 | -88.7 | 24 | 5 |
| 2014-05-01T00:40 | 20491 | 51 | -59.4 | -88.6 | 25 | 5 |
| 2014-05-01T00:40 | 20501 | 51 | -59.4 | -88.6 | 27 | 5 |
| 2014-05-01T00:40 | 20513 | 51 | -59.4 | -88.7 | 28 | 5 |
| 2014-05-01T00:40 | 20525 | 51 | -59.5 | -88.6 | 29 | 5 |
| 2014-05-01T00:40 | 20534 | 51 | -59.5 | -88.5 | 31 | 5 |
| 2014-05-01T00:40 | 20544 | 51 | -59.6 | -88.6 | 32 | 5 |
| 2014-05-01T00:40 | 20555 | 51 | -59.7 | -88.5 | 34 | 5 |
| 2014-05-01T00:40 | 20566 | 51 | -59.7 | -88.6 | 35 | 5 |
| 2014-05-01T00:40 | 20577 | 51 | -59.8 | -88.6 | 36 | 5 |
| 2014-05-01T00:40 | 20588 | 50 | -59.8 | -88.8 | 37 | 5 |
| 2014-05-01T00:40 | 20598 | 50 | -59.9 | -88.8 | 38 | 5 |
| 2014-05-01T00:40 | 20608 | 50 | -60.0 | -89.0 | 39 | 5 |
| 2014-05-01T00:40 | 20619 | 50 | -60.0 | -89.1 | 40 | 5 |
| 2014-05-01T00:40 | 20628 | 50 | -60.0 | -89.1 | 41 | 5 |
| 2014-05-01T00:40 | 20639 | 50 | -60.1 | -89.2 | 41 | 5 |
| 2014-05-01T00:40 | 20649 | 50 | -60.1 | -89.2 | 42 | 5 |
| 2014-05-01T00:40 | 20660 | 50 | -60.1 | -89.3 | 42 | 5 |
| 2014-05-01T00:40 | 20670 | 50 | -60.0 | -89.3 | 42 | 5 |
| 2014-05-01T00:40 | 20681 | 50 | -60.1 | -89.3 | 43 | 5 |
| 2014-05-01T00:40 | 20692 | 50 | -60.1 | -89.2 | 43 | 5 |
| 2014-05-01T00:40 | 20702 | 50 | -60.1 | -89.3 | 43 | 5 |
| 2014-05-01T00:40 | 20712 | 49 | -60.2 | -89.1 | 43 | 4 |
| 2014-05-01T00:40 | 20723 | 49 | -60.2 | -89.2 | 43 | 4 |
| 2014-05-01T00:40 | 20733 | 49 | -60.2 | -89.3 | 43 | 4 |
| 2014-05-01T00:40 | 20743 | 49 | -60.2 | -89.3 | 43 | 4 |
| 2014-05-01T00:40 | 20753 | 49 | -60.1 | -89.5 | 43 | 4 |
| 2014-05-01T00:40 | 20765 | 49 | -60.0 | -89.5 | 43 | 4 |
| 2014-05-01T00:40 | 20774 | 49 | -59.8 | -89.4 | 44 | 4 |
| 2014-05-01T00:40 | 20784 | 49 | -59.8 | -89.4 | 45 | 4 |
| 2014-05-01T00:40 | 20795 | 49 | -59.8 | -89.3 | 46 | 4 |
| 2014-05-01T00:41 | 20806 | 49 | -59.7 | -89.2 | 48 | 4 |
| 2014-05-01T00:41 | 20816 | 49 | -59.7 | -89.1 | 49 | 4 |
| 2014-05-01T00:41 | 20825 | 49 | -59.6 | -88.9 | 51 | 4 |
| 2014-05-01T00:41 | 20834 | 48 | -59.5 | -88.8 | 54 | 4 |
| 2014-05-01T00:41 | 20843 | 48 | -59.5 | -88.7 | 57 | 4 |
| 2014-05-01T00:41 | 20853 | 48 | -59.5 | -88.7 | 60 | 4 |
| 2014-05-01T00:41 | 20862 | 48 | -59.5 | -88.6 | 63 | 4 |
| 2014-05-01T00:41 | 20872 | 48 | -59.7 | -88.7 | 66 | 4 |
| 2014-05-01T00:41 | 20883 | 48 | -59.7 | -88.7 | 70 | 4 |
| 2014-05-01T00:41 | 20895 | 48 | -59.6 | -88.7 | 73 | 4 |
| 2014-05-01T00:41 | 20906 | 48 | -59.4 | -88.6 | 77 | 4 |
| 2014-05-01T00:41 | 20917 | 48 | -59.3 | -88.5 | 81 | 4 |
| 2014-05-01T00:41 | 20928 | 48 | -59.4 | -88.5 | 84 | 4 |
| 2014-05-01T00:41 | 20938 | 48 | -59.4 | -88.5 | 88 | 4 |
| 2014-05-01T00:41 | 20947 | 48 | -59.4 | -88.5 | 92 | 4 |
| 2014-05-01T00:41 | 20956 | 48 | -59.5 | -88.5 | 96 | 4 |
| 2014-05-01T00:41 | 20967 | 47 | -59.6 | -88.5 | 99 | 4 |
| 2014-05-01T00:41 | 20978 | 47 | -59.7 | -88.6 | 103 | 3 |
| 2014-05-01T00:41 | 20989 | 47 | -59.7 | -88.6 | 106 | 3 |
| 2014-05-01T00:41 | 20999 | 47 | -59.7 | -88.8 | 109 | 3 |
| 2014-05-01T00:41 | 21009 | 47 | -59.7 | -88.8 | 111 | 3 |
| 2014-05-01T00:41 | 21020 | 47 | -59.8 | -89.1 | 113 | 3 |
| 2014-05-01T00:41 | 21031 | 47 | -59.8 | -89.3 | 114 | 3 |
| 2014-05-01T00:41 | 21042 | 47 | -59.9 | -89.5 | 115 | 3 |
| 2014-05-01T00:41 | 21051 | 47 | -60.0 | -89.8 | 115 | 3 |
| 2014-05-01T00:41 | 21063 | 47 | -59.7 | -89.8 | 115 | 3 |
| 2014-05-01T00:41 | 21074 | 47 | -59.2 | -89.8 | 113 | 3 |
| 2014-05-01T00:41 | 21083 | 47 | -58.9 | -89.6 | 111 | 3 |
| 2014-05-01T00:41 | 21094 | 47 | -58.7 | -89.5 | 109 | 3 |
| 2014-05-01T00:41 | 21105 | 46 | -58.6 | -89.2 | 105 | 3 |
| 2014-05-01T00:42 | 21114 | 46 | -58.5 | -88.9 | 101 | 3 |
| 2014-05-01T00:42 | 21124 | 46 | -58.5 | -88.7 | 97 | 2 |
| 2014-05-01T00:42 | 21134 | 46 | -58.4 | -88.5 | 92 | 3 |
| 2014-05-01T00:42 | 21146 | 46 | -58.2 | -88.3 | 88 | 3 |
| 2014-05-01T00:42 | 21155 | 46 | -58.2 | -88.2 | 85 | 3 |
| 2014-05-01T00:42 | 21165 | 46 | -58.2 | -88.2 | 82 | 3 |
| 2014-05-01T00:42 | 21177 | 46 | -58.1 | -88.0 | 79 | 3 |
| 2014-05-01T00:42 | 21187 | 46 | -58.1 | -88.0 | 78 | 3 |
| 2014-05-01T00:42 | 21197 | 46 | -58.1 | -88.1 | 77 | 3 |
| 2014-05-01T00:42 | 21208 | 46 | -58.0 | -88.0 | 77 | 4 |
| 2014-05-01T00:42 | 21218 | 46 | -57.9 | -87.8 | 77 | 4 |
| 2014-05-01T00:42 | 21229 | 46 | -57.8 | -87.7 | 77 | 4 |
| 2014-05-01T00:42 | 21242 | 45 | -57.8 | -87.6 | 78 | 4 |
| 2014-05-01T00:42 | 21252 | 45 | -57.8 | -87.6 | 78 | 5 |
| 2014-05-01T00:42 | 21261 | 45 | -57.9 | -87.5 | 79 | 5 |
| 2014-05-01T00:42 | 21271 | 45 | -57.9 | -87.7 | 79 | 5 |
| 2014-05-01T00:42 | 21282 | 45 | -58.0 | -87.8 | 80 | 5 |
| 2014-05-01T00:42 | 21294 | 45 | -58.0 | -87.8 | 80 | 5 |
| 2014-05-01T00:42 | 21304 | 45 | -57.9 | -87.7 | 81 | 5 |
| 2014-05-01T00:42 | 21313 | 45 | -57.8 | -87.7 | 81 | 5 |
| 2014-05-01T00:42 | 21323 | 45 | -57.8 | -87.7 | 82 | 5 |
| 2014-05-01T00:42 | 21332 | 45 | -57.9 | -87.7 | 82 | 5 |
| 2014-05-01T00:42 | 21344 | 45 | -57.9 | -87.7 | 83 | 5 |
| 2014-05-01T00:42 | 21356 | 45 | -57.9 | -87.7 | 83 | 5 |
| 2014-05-01T00:42 | 21367 | 45 | -58.0 | -87.7 | 84 | 5 |
| 2014-05-01T00:42 | 21376 | 44 | -58.0 | -87.7 | 85 | 5 |
| 2014-05-01T00:42 | 21387 | 44 | -58.0 | -87.7 | 86 | 5 |
| 2014-05-01T00:42 | 21396 | 44 | -58.0 | -87.8 | 88 | 5 |
| 2014-05-01T00:42 | 21407 | 44 | -58.1 | -87.8 | 89 | 5 |
| 2014-05-01T00:42 | 21419 | 44 | -58.1 | -87.8 | 90 | 5 |
| 2014-05-01T00:43 | 21428 | 44 | -58.2 | -87.9 | 92 | 5 |
| 2014-05-01T00:43 | 21439 | 44 | -58.3 | -87.9 | 93 | 5 |
| 2014-05-01T00:43 | 21450 | 44 | -58.2 | -87.8 | 94 | 5 |
| 2014-05-01T00:43 | 21460 | 44 | -58.2 | -87.9 | 95 | 5 |
| 2014-05-01T00:43 | 21471 | 44 | -58.3 | -87.9 | 96 | 5 |
| 2014-05-01T00:43 | 21483 | 44 | -58.4 | -88.0 | 97 | 5 |
| 2014-05-01T00:43 | 21494 | 44 | -58.4 | -88.0 | 97 | 5 |
| 2014-05-01T00:43 | 21505 | 44 | -58.4 | -88.0 | 97 | 5 |
| 2014-05-01T00:43 | 21516 | 43 | -58.3 | -88.1 | 97 | 5 |
| 2014-05-01T00:43 | 21528 | 43 | -58.3 | -88.1 | 97 | 5 |
| 2014-05-01T00:43 | 21540 | 43 | -58.3 | -88.2 | 97 | 5 |
| 2014-05-01T00:43 | 21549 | 43 | -58.3 | -88.2 | 97 | 5 |
| 2014-05-01T00:43 | 21558 | 43 | -58.3 | -88.3 | 97 | 5 |
| 2014-05-01T00:43 | 21568 | 43 | -58.3 | -88.3 | 97 | 5 |
| 2014-05-01T00:43 | 21580 | 43 | -58.2 | -88.2 | 97 | 5 |
| 2014-05-01T00:43 | 21592 | 43 | -58.2 | -88.1 | 98 | 5 |
| 2014-05-01T00:43 | 21602 | 43 | -58.3 | -88.0 | 99 | 5 |
| 2014-05-01T00:43 | 21611 | 43 | -58.3 | -88.1 | 99 | 5 |
| 2014-05-01T00:43 | 21621 | 43 | -58.3 | -88.1 | 100 | 5 |
| 2014-05-01T00:43 | 21634 | 43 | -58.3 | -88.0 | 102 | 5 |
| 2014-05-01T00:43 | 21646 | 43 | -58.4 | -88.0 | 103 | 5 |
| 2014-05-01T00:43 | 21658 | 43 | -58.4 | -88.1 | 105 | 5 |
| 2014-05-01T00:43 | 21667 | 42 | -58.5 | -88.1 | 106 | 5 |
| 2014-05-01T00:43 | 21677 | 42 | -58.5 | -88.1 | 108 | 5 |
| 2014-05-01T00:43 | 21688 | 42 | -58.5 | -88.1 | 110 | 5 |
| 2014-05-01T00:43 | 21699 | 42 | -58.6 | -88.1 | 112 | 5 |
| 2014-05-01T00:43 | 21709 | 42 | -58.6 | -88.2 | 114 | 5 |
| 2014-05-01T00:43 | 21721 | 42 | -58.7 | -88.3 | 116 | 5 |
| 2014-05-01T00:43 | 21732 | 42 | -58.7 | -88.3 | 118 | 5 |
| 2014-05-01T00:43 | 21741 | 42 | -58.7 | -88.3 | 120 | 5 |
| 2014-05-01T00:44 | 21751 | 42 | -58.7 | -88.4 | 121 | 5 |
| 2014-05-01T00:44 | 21763 | 42 | -58.6 | -88.3 | 123 | 5 |
| 2014-05-01T00:44 | 21773 | 42 | -58.6 | -88.3 | 124 | 5 |
| 2014-05-01T00:44 | 21786 | 42 | -58.6 | -88.4 | 126 | 5 |
| 2014-05-01T00:44 | 21796 | 42 | -58.6 | -88.3 | 127 | 5 |
| 2014-05-01T00:44 | 21804 | 42 | -58.6 | -88.3 | 127 | 5 |
| 2014-05-01T00:44 | 21813 | 41 | -58.6 | -88.3 | 127 | 5 |
| 2014-05-01T00:44 | 21823 | 41 | -58.6 | -88.2 | 127 | 4 |
| 2014-05-01T00:44 | 21832 | 41 | -58.6 | -88.2 | 127 | 4 |
| 2014-05-01T00:44 | 21843 | 41 | -58.6 | -88.3 | 126 | 4 |
| 2014-05-01T00:44 | 21856 | 41 | -58.7 | -88.4 | 124 | 4 |
| 2014-05-01T00:44 | 21870 | 41 | -58.8 | -88.6 | 123 | 4 |
| 2014-05-01T00:44 | 21882 | 41 | -58.8 | -88.7 | 121 | 3 |
| 2014-05-01T00:44 | 21890 | 41 | -58.6 | -88.7 | 118 | 3 |
| 2014-05-01T00:44 | 21899 | 41 | -58.5 | -88.7 | 116 | 3 |
| 2014-05-01T00:44 | 21910 | 41 | -58.4 | -88.7 | 113 | 3 |
| 2014-05-01T00:44 | 21920 | 41 | -58.4 | -88.7 | 109 | 2 |
| 2014-05-01T00:44 | 21930 | 41 | -58.4 | -88.6 | 106 | 2 |
| 2014-05-01T00:44 | 21941 | 41 | -58.4 | -88.5 | 102 | 2 |
| 2014-05-01T00:44 | 21951 | 41 | -58.4 | -88.5 | 98 | 2 |
| 2014-05-01T00:44 | 21961 | 41 | -58.5 | -88.4 | 94 | 2 |
| 2014-05-01T00:44 | 21972 | 40 | -58.5 | -88.5 | 90 | 2 |
| 2014-05-01T00:44 | 21982 | 40 | -58.5 | -88.3 | 86 | 2 |
| 2014-05-01T00:44 | 21994 | 40 | -58.3 | -88.3 | 83 | 2 |
| 2014-05-01T00:44 | 22005 | 40 | -58.2 | -88.3 | 81 | 3 |
| 2014-05-01T00:44 | 22016 | 40 | -58.2 | -88.3 | 78 | 3 |
| 2014-05-01T00:44 | 22024 | 40 | -58.2 | -88.3 | 76 | 3 |
| 2014-05-01T00:44 | 22035 | 40 | -58.2 | -88.2 | 75 | 3 |
| 2014-05-01T00:44 | 22047 | 40 | -58.1 | -88.1 | 73 | 4 |
| 2014-05-01T00:44 | 22057 | 40 | -58.0 | -87.9 | 72 | 4 |
| 2014-05-01T00:45 | 22066 | 40 | -58.0 | -87.9 | 71 | 4 |
| 2014-05-01T00:45 | 22077 | 40 | -58.1 | -87.9 | 71 | 4 |
| 2014-05-01T00:45 | 22088 | 40 | -58.1 | -87.8 | 70 | 4 |
| 2014-05-01T00:45 | 22099 | 40 | -58.2 | -87.8 | 70 | 5 |
| 2014-05-01T00:45 | 22109 | 40 | -58.2 | -87.8 | 70 | 5 |
| 2014-05-01T00:45 | 22119 | 40 | -58.1 | -87.8 | 71 | 5 |
| 2014-05-01T00:45 | 22129 | 39 | -58.1 | -87.8 | 71 | 5 |
| 2014-05-01T00:45 | 22139 | 39 | -58.1 | -87.9 | 72 | 5 |
| 2014-05-01T00:45 | 22149 | 39 | -58.2 | -87.9 | 72 | 5 |
| 2014-05-01T00:45 | 22159 | 39 | -58.3 | -88.0 | 73 | 5 |
| 2014-05-01T00:45 | 22170 | 39 | -58.4 | -88.0 | 74 | 5 |
| 2014-05-01T00:45 | 22181 | 39 | -58.3 | -88.1 | 76 | 5 |
| 2014-05-01T00:45 | 22189 | 39 | -58.2 | -88.1 | 77 | 5 |
| 2014-05-01T00:45 | 22199 | 39 | -58.2 | -88.0 | 79 | 5 |
| 2014-05-01T00:45 | 22210 | 39 | -58.3 | -88.0 | 81 | 5 |
| 2014-05-01T00:45 | 22219 | 39 | -58.3 | -88.0 | 83 | 5 |
| 2014-05-01T00:45 | 22230 | 39 | -58.3 | -88.0 | 86 | 5 |
| 2014-05-01T00:45 | 22240 | 39 | -58.3 | -88.0 | 88 | 5 |
| 2014-05-01T00:45 | 22250 | 39 | -58.3 | -88.0 | 90 | 5 |
| 2014-05-01T00:45 | 22260 | 39 | -58.4 | -87.9 | 93 | 5 |
| 2014-05-01T00:45 | 22269 | 39 | -58.5 | -88.0 | 95 | 5 |
| 2014-05-01T00:45 | 22279 | 39 | -58.5 | -88.1 | 97 | 5 |
| 2014-05-01T00:45 | 22289 | 38 | -58.5 | -88.2 | 99 | 5 |
| 2014-05-01T00:45 | 22300 | 38 | -58.5 | -88.3 | 100 | 5 |
| 2014-05-01T00:45 | 22309 | 38 | -58.4 | -88.3 | 101 | 5 |
| 2014-05-01T00:45 | 22320 | 38 | -58.4 | -88.3 | 102 | 5 |
| 2014-05-01T00:45 | 22332 | 38 | -58.4 | -88.3 | 103 | 4 |
| 2014-05-01T00:45 | 22343 | 38 | -58.4 | -88.4 | 104 | 4 |
| 2014-05-01T00:45 | 22352 | 38 | -58.4 | -88.4 | 104 | 4 |
| 2014-05-01T00:45 | 22361 | 38 | -58.3 | -88.4 | 104 | 4 |
| 2014-05-01T00:46 | 22371 | 38 | -58.1 | -88.3 | 104 | 4 |
| 2014-05-01T00:46 | 22382 | 38 | -58.1 | -88.2 | 104 | 4 |
| 2014-05-01T00:46 | 22392 | 38 | -58.1 | -88.2 | 104 | 4 |
| 2014-05-01T00:46 | 22401 | 38 | -58.1 | -88.1 | 103 | 4 |
| 2014-05-01T00:46 | 22411 | 38 | -58.1 | -87.9 | 103 | 3 |
| 2014-05-01T00:46 | 22420 | 38 | -58.1 | -87.9 | 102 | 3 |
| 2014-05-01T00:46 | 22430 | 38 | -58.0 | -87.9 | 102 | 3 |
| 2014-05-01T00:46 | 22441 | 38 | -58.1 | -87.9 | 101 | 3 |
| 2014-05-01T00:46 | 22451 | 37 | -58.2 | -88.0 | 100 | 3 |
| 2014-05-01T00:46 | 22462 | 37 | -58.3 | -88.1 | 99 | 2 |
| 2014-05-01T00:46 | 22471 | 37 | -58.3 | -88.2 | 97 | 2 |
| 2014-05-01T00:46 | 22481 | 37 | -58.0 | -88.3 | 95 | 2 |
| 2014-05-01T00:46 | 22492 | 37 | -58.0 | -88.2 | 92 | 2 |
| 2014-05-01T00:46 | 22504 | 37 | -58.0 | -88.3 | 89 | 2 |
| 2014-05-01T00:46 | 22515 | 37 | -57.9 | -88.3 | 86 | 2 |
| 2014-05-01T00:46 | 22525 | 37 | -57.8 | -88.4 | 82 | 2 |
| 2014-05-01T00:46 | 22534 | 37 | -57.8 | -88.5 | 78 | 2 |
| 2014-05-01T00:46 | 22542 | 37 | -57.6 | -88.4 | 74 | 2 |
| 2014-05-01T00:46 | 22551 | 37 | -57.5 | -88.3 | 71 | 2 |
| 2014-05-01T00:46 | 22562 | 37 | -57.4 | -88.1 | 68 | 2 |
| 2014-05-01T00:46 | 22573 | 37 | -57.2 | -88.0 | 65 | 2 |
| 2014-05-01T00:46 | 22584 | 37 | -57.1 | -87.8 | 63 | 2 |
| 2014-05-01T00:46 | 22594 | 37 | -57.1 | -87.7 | 61 | 3 |
| 2014-05-01T00:46 | 22604 | 37 | -57.0 | -87.6 | 60 | 3 |
| 2014-05-01T00:46 | 22615 | 37 | -57.0 | -87.6 | 59 | 3 |
| 2014-05-01T00:46 | 22625 | 36 | -57.0 | -87.6 | 58 | 3 |
| 2014-05-01T00:46 | 22634 | 36 | -56.8 | -87.4 | 57 | 3 |
| 2014-05-01T00:46 | 22644 | 36 | -56.7 | -87.3 | 56 | 3 |
| 2014-05-01T00:46 | 22655 | 36 | -56.8 | -87.2 | 55 | 3 |
| 2014-05-01T00:46 | 22664 | 36 | -56.9 | -87.2 | 55 | 4 |
| 2014-05-01T00:47 | 22672 | 36 | -57.0 | -87.2 | 54 | 4 |
| 2014-05-01T00:47 | 22683 | 36 | -56.9 | -87.3 | 53 | 4 |
| 2014-05-01T00:47 | 22696 | 36 | -56.9 | -87.2 | 53 | 4 |
| 2014-05-01T00:47 | 22706 | 36 | -56.9 | -87.2 | 53 | 4 |
| 2014-05-01T00:47 | 22717 | 36 | -56.8 | -87.2 | 52 | 4 |
| 2014-05-01T00:47 | 22727 | 36 | -56.9 | -87.2 | 52 | 4 |
| 2014-05-01T00:47 | 22736 | 36 | -56.9 | -87.2 | 51 | 5 |
| 2014-05-01T00:47 | 22746 | 36 | -56.9 | -87.3 | 51 | 5 |
| 2014-05-01T00:47 | 22757 | 36 | -56.9 | -87.3 | 51 | 5 |
| 2014-05-01T00:47 | 22768 | 36 | -56.9 | -87.3 | 51 | 5 |
| 2014-05-01T00:47 | 22779 | 36 | -56.9 | -87.3 | 50 | 5 |
| 2014-05-01T00:47 | 22789 | 36 | -56.8 | -87.2 | 50 | 5 |
| 2014-05-01T00:47 | 22799 | 35 | -56.8 | -87.2 | 50 | 4 |
| 2014-05-01T00:47 | 22810 | 35 | -56.9 | -87.1 | 49 | 4 |
| 2014-05-01T00:47 | 22822 | 35 | -57.0 | -87.0 | 48 | 4 |
| 2014-05-01T00:47 | 22833 | 35 | -57.0 | -87.0 | 48 | 4 |
| 2014-05-01T00:47 | 22842 | 35 | -57.1 | -87.0 | 47 | 4 |
| 2014-05-01T00:47 | 22851 | 35 | -57.1 | -87.1 | 46 | 4 |
| 2014-05-01T00:47 | 22863 | 35 | -57.2 | -87.1 | 45 | 4 |
| 2014-05-01T00:47 | 22873 | 35 | -57.3 | -87.2 | 43 | 3 |
| 2014-05-01T00:47 | 22884 | 35 | -57.4 | -87.2 | 42 | 3 |
| 2014-05-01T00:47 | 22896 | 35 | -57.5 | -87.4 | 40 | 3 |
| 2014-05-01T00:47 | 22907 | 35 | -57.6 | -87.3 | 37 | 3 |
| 2014-05-01T00:47 | 22920 | 35 | -57.7 | -87.4 | 35 | 3 |
| 2014-05-01T00:47 | 22932 | 35 | -57.7 | -87.6 | 32 | 3 |
| 2014-05-01T00:47 | 22943 | 35 | -57.6 | -87.7 | 30 | 3 |
| 2014-05-01T00:47 | 22952 | 35 | -57.6 | -87.9 | 27 | 3 |
| 2014-05-01T00:47 | 22962 | 35 | -57.7 | -87.9 | 25 | 3 |
| 2014-05-01T00:47 | 22973 | 35 | -57.7 | -87.8 | 23 | 3 |
| 2014-05-01T00:47 | 22984 | 34 | -57.6 | -87.9 | 22 | 3 |
| 2014-05-01T00:48 | 22996 | 34 | -57.6 | -88.0 | 20 | 3 |
| 2014-05-01T00:48 | 23007 | 34 | -57.6 | -87.9 | 20 | 3 |
| 2014-05-01T00:48 | 23017 | 34 | -57.5 | -87.8 | 19 | 3 |
| 2014-05-01T00:48 | 23027 | 34 | -57.4 | -87.8 | 18 | 4 |
| 2014-05-01T00:48 | 23037 | 34 | -57.3 | -87.8 | 18 | 4 |
| 2014-05-01T00:48 | 23049 | 34 | -57.4 | -87.8 | 18 | 4 |
| 2014-05-01T00:48 | 23063 | 34 | -57.5 | -87.7 | 18 | 4 |
| 2014-05-01T00:48 | 23073 | 34 | -57.4 | -87.6 | 18 | 4 |
| 2014-05-01T00:48 | 23083 | 34 | -57.3 | -87.5 | 18 | 4 |
| 2014-05-01T00:48 | 23093 | 34 | -57.3 | -87.5 | 18 | 4 |
| 2014-05-01T00:48 | 23104 | 34 | -57.4 | -87.4 | 18 | 4 |
| 2014-05-01T00:48 | 23115 | 34 | -57.5 | -87.4 | 17 | 4 |
| 2014-05-01T00:48 | 23125 | 34 | -57.4 | -87.4 | 16 | 4 |
| 2014-05-01T00:48 | 23136 | 34 | -57.5 | -87.5 | 16 | 4 |
| 2014-05-01T00:48 | 23147 | 34 | -57.5 | -87.5 | 14 | 4 |
| 2014-05-01T00:48 | 23159 | 34 | -57.6 | -87.5 | 13 | 4 |
| 2014-05-01T00:48 | 23172 | 33 | -57.5 | -87.6 | 12 | 4 |
| 2014-05-01T00:48 | 23182 | 33 | -57.5 | -87.8 | 10 | 4 |
| 2014-05-01T00:48 | 23192 | 33 | -57.5 | -87.8 | 9 | 4 |
| 2014-05-01T00:48 | 23204 | 33 | -57.5 | -87.8 | 7 | 4 |
| 2014-05-01T00:48 | 23216 | 33 | -57.5 | -87.8 | 6 | 4 |
| 2014-05-01T00:48 | 23226 | 33 | -57.5 | -87.8 | 5 | 4 |
| 2014-05-01T00:48 | 23236 | 33 | -57.5 | -87.7 | 4 | 4 |
| 2014-05-01T00:48 | 23247 | 33 | -57.5 | -87.7 | 4 | 5 |
| 2014-05-01T00:48 | 23258 | 33 | -57.5 | -87.7 | 4 | 5 |
| 2014-05-01T00:48 | 23267 | 33 | -57.5 | -87.7 | 5 | 5 |
| 2014-05-01T00:48 | 23277 | 33 | -57.4 | -87.7 | 6 | 5 |
| 2014-05-01T00:48 | 23288 | 33 | -57.5 | -87.7 | 7 | 5 |
| 2014-05-01T00:48 | 23301 | 33 | -57.5 | -87.8 | 9 | 5 |
| 2014-05-01T00:48 | 23313 | 33 | -57.6 | -88.0 | 11 | 5 |
| 2014-05-01T00:49 | 23324 | 33 | -57.6 | -88.1 | 13 | 6 |
| 2014-05-01T00:49 | 23337 | 33 | -57.4 | -88.2 | 16 | 6 |
| 2014-05-01T00:49 | 23348 | 33 | -57.3 | -88.2 | 19 | 6 |
| 2014-05-01T00:49 | 23358 | 32 | -57.2 | -88.1 | 21 | 6 |
| 2014-05-01T00:49 | 23370 | 32 | -57.1 | -88.0 | 24 | 6 |
| 2014-05-01T00:49 | 23380 | 32 | -57.1 | -87.9 | 27 | 7 |
| 2014-05-01T00:49 | 23390 | 32 | -57.1 | -87.8 | 29 | 7 |
| 2014-05-01T00:49 | 23402 | 32 | -57.0 | -87.7 | 32 | 7 |
| 2014-05-01T00:49 | 23412 | 32 | -56.9 | -87.6 | 35 | 7 |
| 2014-05-01T00:49 | 23422 | 32 | -57.0 | -87.6 | 37 | 8 |
| 2014-05-01T00:49 | 23435 | 32 | -56.9 | -87.6 | 39 | 8 |
| 2014-05-01T00:49 | 23446 | 32 | -56.9 | -87.6 | 42 | 8 |
| 2014-05-01T00:49 | 23455 | 32 | -56.8 | -87.6 | 44 | 8 |
| 2014-05-01T00:49 | 23464 | 32 | -56.7 | -87.7 | 46 | 9 |
| 2014-05-01T00:49 | 23474 | 32 | -56.7 | -87.6 | 48 | 9 |
| 2014-05-01T00:49 | 23485 | 32 | -56.7 | -87.3 | 49 | 9 |
| 2014-05-01T00:49 | 23496 | 32 | -56.6 | -87.2 | 51 | 9 |
| 2014-05-01T00:49 | 23506 | 32 | -56.6 | -87.1 | 52 | 9 |
| 2014-05-01T00:49 | 23517 | 32 | -56.7 | -86.9 | 54 | 10 |
| 2014-05-01T00:49 | 23528 | 32 | -56.7 | -86.9 | 55 | 10 |
| 2014-05-01T00:49 | 23539 | 32 | -56.8 | -87.1 | 56 | 10 |
| 2014-05-01T00:49 | 23550 | 32 | -56.8 | -87.3 | 57 | 10 |
| 2014-05-01T00:49 | 23561 | 31 | -56.6 | -87.3 | 58 | 10 |
| 2014-05-01T00:49 | 23573 | 31 | -56.5 | -87.2 | 59 | 10 |
| 2014-05-01T00:49 | 23582 | 31 | -56.5 | -87.2 | 60 | 10 |
| 2014-05-01T00:49 | 23592 | 31 | -56.6 | -87.2 | 61 | 10 |
| 2014-05-01T00:49 | 23602 | 31 | -56.7 | -87.2 | 61 | 10 |
| 2014-05-01T00:49 | 23613 | 31 | -56.4 | -87.3 | 62 | 10 |
| 2014-05-01T00:49 | 23624 | 31 | -56.2 | -87.4 | 62 | 10 |
| 2014-05-01T05:30 | 315 | 982 | 3.7 | -3.8 | 291 | 2 |
| 2014-05-01T05:30 | 323 | 981 | 4.3 | -3.0 | 313 | 4 |
| 2014-05-01T05:30 | 336 | 980 | 6.4 | -2.2 | 317 | 4 |
| 2014-05-01T05:30 | 348 | 978 | 7.3 | -2.5 | 317 | 5 |
| 2014-05-01T05:30 | 359 | 977 | 8.0 | -2.7 | 318 | 6 |
| 2014-05-01T05:30 | 370 | 976 | 8.8 | -2.7 | 319 | 7 |
| 2014-05-01T05:30 | 381 | 974 | 9.5 | -2.7 | 321 | 7 |
| 2014-05-01T05:30 | 393 | 973 | 10.2 | -2.7 | 322 | 8 |
| 2014-05-01T05:30 | 401 | 972 | 10.8 | -2.7 | 324 | 9 |
| 2014-05-01T05:30 | 408 | 971 | 11.0 | -2.9 | 325 | 9 |
| 2014-05-01T05:30 | 416 | 970 | 11.1 | -3.1 | 326 | 9 |
| 2014-05-01T05:30 | 425 | 969 | 11.0 | -3.3 | 328 | 10 |
| 2014-05-01T05:30 | 436 | 968 | 11.0 | -3.4 | 329 | 10 |
| 2014-05-01T05:30 | 449 | 966 | 10.9 | -3.6 | 330 | 10 |
| 2014-05-01T05:30 | 463 | 965 | 10.8 | -3.7 | 332 | 10 |
| 2014-05-01T05:30 | 474 | 963 | 10.7 | -3.7 | 333 | 10 |
| 2014-05-01T05:30 | 484 | 962 | 10.7 | -3.8 | 334 | 10 |
| 2014-05-01T05:30 | 497 | 961 | 10.6 | -4.0 | 335 | 11 |
| 2014-05-01T05:30 | 510 | 959 | 10.4 | -4.0 | 336 | 11 |
| 2014-05-01T05:30 | 522 | 958 | 10.3 | -4.1 | 337 | 11 |
| 2014-05-01T05:30 | 532 | 957 | 10.2 | -4.1 | 338 | 11 |
| 2014-05-01T05:30 | 541 | 956 | 10.1 | -4.2 | 338 | 11 |
| 2014-05-01T05:30 | 550 | 955 | 10.1 | -4.3 | 338 | 11 |
| 2014-05-01T05:30 | 561 | 953 | 10.0 | -4.3 | 338 | 11 |
| 2014-05-01T05:30 | 572 | 952 | 9.9 | -4.3 | 338 | 11 |
| 2014-05-01T05:30 | 583 | 951 | 9.8 | -4.4 | 338 | 12 |
| 2014-05-01T05:30 | 591 | 950 | 9.7 | -4.4 | 338 | 12 |
| 2014-05-01T05:30 | 599 | 949 | 9.6 | -4.5 | 338 | 12 |
| 2014-05-01T05:30 | 607 | 948 | 9.5 | -4.5 | 337 | 12 |
| 2014-05-01T05:30 | 616 | 947 | 9.4 | -4.5 | 337 | 12 |
| 2014-05-01T05:31 | 625 | 946 | 9.4 | -4.5 | 337 | 12 |
| 2014-05-01T05:31 | 633 | 945 | 9.3 | -4.6 | 336 | 12 |
| 2014-05-01T05:31 | 645 | 944 | 9.2 | -4.6 | 336 | 12 |
| 2014-05-01T05:31 | 656 | 943 | 9.1 | -4.7 | 336 | 12 |
| 2014-05-01T05:31 | 666 | 941 | 9.0 | -4.7 | 336 | 12 |
| 2014-05-01T05:31 | 677 | 940 | 8.9 | -4.8 | 336 | 12 |
| 2014-05-01T05:31 | 687 | 939 | 8.8 | -4.8 | 337 | 12 |
| 2014-05-01T05:31 | 698 | 938 | 8.7 | -4.8 | 337 | 12 |
| 2014-05-01T05:31 | 707 | 937 | 8.6 | -4.8 | 337 | 12 |
| 2014-05-01T05:31 | 717 | 936 | 8.5 | -4.9 | 338 | 12 |
| 2014-05-01T05:31 | 728 | 934 | 8.4 | -4.9 | 338 | 12 |
| 2014-05-01T05:31 | 739 | 933 | 8.3 | -4.9 | 338 | 12 |
| 2014-05-01T05:31 | 750 | 932 | 8.2 | -5.0 | 339 | 12 |
| 2014-05-01T05:31 | 761 | 931 | 8.1 | -5.0 | 339 | 11 |
| 2014-05-01T05:31 | 771 | 929 | 8.0 | -5.1 | 339 | 11 |
| 2014-05-01T05:31 | 781 | 928 | 7.9 | -5.2 | 340 | 11 |
| 2014-05-01T05:31 | 792 | 927 | 7.8 | -5.3 | 340 | 11 |
| 2014-05-01T05:31 | 801 | 926 | 7.7 | -5.3 | 340 | 11 |
| 2014-05-01T05:31 | 811 | 925 | 7.7 | -5.4 | 340 | 11 |
| 2014-05-01T05:31 | 821 | 924 | 7.6 | -5.4 | 340 | 11 |
| 2014-05-01T05:31 | 831 | 923 | 7.5 | -5.5 | 340 | 11 |
| 2014-05-01T05:31 | 841 | 922 | 7.4 | -5.6 | 340 | 11 |
| 2014-05-01T05:31 | 852 | 920 | 7.3 | -5.7 | 340 | 11 |
| 2014-05-01T05:31 | 861 | 919 | 7.2 | -5.8 | 340 | 11 |
| 2014-05-01T05:31 | 871 | 918 | 7.2 | -5.8 | 340 | 11 |
| 2014-05-01T05:31 | 882 | 917 | 7.1 | -5.9 | 340 | 11 |
| 2014-05-01T05:31 | 893 | 916 | 7.0 | -6.1 | 340 | 12 |
| 2014-05-01T05:31 | 904 | 915 | 6.8 | -6.1 | 340 | 12 |
| 2014-05-01T05:31 | 916 | 913 | 6.7 | -6.2 | 340 | 12 |
| 2014-05-01T05:31 | 927 | 912 | 6.6 | -6.3 | 340 | 12 |
| 2014-05-01T05:32 | 938 | 911 | 6.5 | -6.4 | 339 | 12 |
| 2014-05-01T05:32 | 949 | 910 | 6.4 | -6.5 | 339 | 12 |
| 2014-05-01T05:32 | 960 | 908 | 6.3 | -6.5 | 339 | 12 |
| 2014-05-01T05:32 | 969 | 907 | 6.3 | -6.7 | 339 | 12 |
| 2014-05-01T05:32 | 979 | 906 | 6.2 | -6.9 | 339 | 12 |
| 2014-05-01T05:32 | 989 | 905 | 6.1 | -7.2 | 339 | 12 |
| 2014-05-01T05:32 | 998 | 904 | 6.1 | -7.2 | 338 | 12 |
| 2014-05-01T05:32 | 1008 | 903 | 6.0 | -7.2 | 338 | 12 |
| 2014-05-01T05:32 | 1018 | 902 | 5.9 | -7.2 | 338 | 12 |
| 2014-05-01T05:32 | 1028 | 901 | 5.8 | -7.2 | 338 | 13 |
| 2014-05-01T05:32 | 1038 | 900 | 5.7 | -7.3 | 338 | 13 |
| 2014-05-01T05:32 | 1048 | 899 | 5.6 | -7.3 | 338 | 13 |
| 2014-05-01T05:32 | 1058 | 898 | 5.5 | -7.2 | 338 | 13 |
| 2014-05-01T05:32 | 1067 | 897 | 5.5 | -7.1 | 337 | 13 |
| 2014-05-01T05:32 | 1076 | 896 | 5.4 | -7.0 | 337 | 13 |
| 2014-05-01T05:32 | 1086 | 894 | 5.3 | -6.9 | 337 | 13 |
| 2014-05-01T05:32 | 1096 | 893 | 5.3 | -6.9 | 337 | 13 |
| 2014-05-01T05:32 | 1105 | 892 | 5.2 | -6.9 | 336 | 13 |
| 2014-05-01T05:32 | 1115 | 891 | 5.1 | -6.9 | 336 | 13 |
| 2014-05-01T05:32 | 1125 | 890 | 5.0 | -6.9 | 336 | 14 |
| 2014-05-01T05:32 | 1135 | 889 | 4.9 | -6.8 | 335 | 14 |
| 2014-05-01T05:32 | 1146 | 888 | 4.8 | -6.8 | 335 | 14 |
| 2014-05-01T05:32 | 1162 | 886 | 4.7 | -6.9 | 334 | 14 |
| 2014-05-01T05:32 | 1179 | 884 | 4.6 | -7.1 | 334 | 14 |
| 2014-05-01T05:32 | 1194 | 883 | 4.5 | -7.2 | 334 | 14 |
| 2014-05-01T05:32 | 1205 | 881 | 4.4 | -7.2 | 333 | 14 |
| 2014-05-01T05:32 | 1216 | 880 | 4.3 | -7.3 | 333 | 15 |
| 2014-05-01T05:32 | 1228 | 879 | 4.3 | -7.4 | 333 | 15 |
| 2014-05-01T05:32 | 1238 | 878 | 4.2 | -7.5 | 333 | 15 |
| 2014-05-01T05:32 | 1251 | 877 | 4.1 | -7.6 | 333 | 15 |
| 2014-05-01T05:33 | 1263 | 875 | 4.0 | -7.8 | 333 | 15 |
| 2014-05-01T05:33 | 1273 | 874 | 3.9 | -7.8 | 333 | 15 |
| 2014-05-01T05:33 | 1284 | 873 | 3.8 | -7.9 | 333 | 15 |
| 2014-05-01T05:33 | 1296 | 872 | 3.7 | -7.9 | 333 | 15 |
| 2014-05-01T05:33 | 1309 | 870 | 3.6 | -7.9 | 333 | 15 |
| 2014-05-01T05:33 | 1321 | 869 | 3.4 | -8.0 | 333 | 15 |
| 2014-05-01T05:33 | 1332 | 868 | 3.3 | -8.0 | 334 | 15 |
| 2014-05-01T05:33 | 1343 | 867 | 3.2 | -8.0 | 334 | 15 |
| 2014-05-01T05:33 | 1354 | 866 | 3.1 | -8.1 | 334 | 15 |
| 2014-05-01T05:33 | 1364 | 864 | 3.0 | -8.1 | 335 | 15 |
| 2014-05-01T05:33 | 1375 | 863 | 2.9 | -8.1 | 335 | 15 |
| 2014-05-01T05:33 | 1385 | 862 | 2.8 | -8.1 | 335 | 15 |
| 2014-05-01T05:33 | 1395 | 861 | 2.7 | -8.1 | 336 | 15 |
| 2014-05-01T05:33 | 1406 | 860 | 2.6 | -8.2 | 336 | 15 |
| 2014-05-01T05:33 | 1415 | 859 | 2.5 | -8.2 | 336 | 15 |
| 2014-05-01T05:33 | 1424 | 858 | 2.5 | -8.2 | 336 | 15 |
| 2014-05-01T05:33 | 1432 | 857 | 2.4 | -8.2 | 336 | 15 |
| 2014-05-01T05:33 | 1442 | 856 | 2.3 | -8.3 | 336 | 15 |
| 2014-05-01T05:33 | 1453 | 855 | 2.2 | -8.3 | 336 | 15 |
| 2014-05-01T05:33 | 1464 | 854 | 2.1 | -8.3 | 336 | 15 |
| 2014-05-01T05:33 | 1473 | 853 | 2.0 | -8.3 | 335 | 15 |
| 2014-05-01T05:33 | 1482 | 852 | 1.9 | -8.4 | 335 | 15 |
| 2014-05-01T05:33 | 1493 | 851 | 1.8 | -8.4 | 335 | 15 |
| 2014-05-01T05:33 | 1504 | 850 | 1.7 | -8.4 | 334 | 15 |
| 2014-05-01T05:33 | 1514 | 848 | 1.6 | -8.5 | 334 | 15 |
| 2014-05-01T05:33 | 1523 | 848 | 1.6 | -8.5 | 334 | 15 |
| 2014-05-01T05:33 | 1532 | 847 | 1.5 | -8.6 | 333 | 15 |
| 2014-05-01T05:33 | 1542 | 846 | 1.4 | -8.6 | 333 | 15 |
| 2014-05-01T05:33 | 1553 | 844 | 1.3 | -8.7 | 332 | 15 |
| 2014-05-01T05:33 | 1563 | 843 | 1.2 | -8.8 | 332 | 15 |
| 2014-05-01T05:34 | 1573 | 842 | 1.1 | -8.8 | 332 | 16 |
| 2014-05-01T05:34 | 1583 | 841 | 1.1 | -8.8 | 331 | 16 |
| 2014-05-01T05:34 | 1592 | 840 | 1.0 | -8.9 | 331 | 16 |
| 2014-05-01T05:34 | 1603 | 839 | 0.9 | -8.9 | 330 | 16 |
| 2014-05-01T05:34 | 1614 | 838 | 0.9 | -8.9 | 330 | 16 |
| 2014-05-01T05:34 | 1625 | 837 | 0.8 | -8.9 | 329 | 16 |
| 2014-05-01T05:34 | 1635 | 836 | 0.7 | -8.9 | 329 | 16 |
| 2014-05-01T05:34 | 1646 | 835 | 0.6 | -8.9 | 328 | 16 |
| 2014-05-01T05:34 | 1656 | 834 | 0.5 | -8.9 | 327 | 16 |
| 2014-05-01T05:34 | 1666 | 833 | 0.4 | -8.9 | 327 | 16 |
| 2014-05-01T05:34 | 1677 | 831 | 0.3 | -8.9 | 326 | 15 |
| 2014-05-01T05:34 | 1688 | 830 | 0.2 | -8.9 | 325 | 15 |
| 2014-05-01T05:34 | 1699 | 829 | 0.1 | -8.9 | 325 | 15 |
| 2014-05-01T05:34 | 1709 | 828 | 0.0 | -8.9 | 324 | 15 |
| 2014-05-01T05:34 | 1718 | 827 | -0.1 | -8.9 | 324 | 15 |
| 2014-05-01T05:34 | 1729 | 826 | -0.2 | -8.9 | 324 | 15 |
| 2014-05-01T05:34 | 1739 | 825 | -0.2 | -8.9 | 324 | 15 |
| 2014-05-01T05:34 | 1750 | 824 | -0.3 | -8.9 | 323 | 15 |
| 2014-05-01T05:34 | 1760 | 823 | -0.4 | -8.9 | 323 | 15 |
| 2014-05-01T05:34 | 1771 | 822 | -0.5 | -9.0 | 323 | 15 |
| 2014-05-01T05:34 | 1782 | 821 | -0.6 | -9.0 | 323 | 15 |
| 2014-05-01T05:34 | 1792 | 820 | -0.8 | -9.0 | 323 | 15 |
| 2014-05-01T05:34 | 1803 | 818 | -0.9 | -9.1 | 323 | 15 |
| 2014-05-01T05:34 | 1815 | 817 | -0.9 | -9.1 | 323 | 15 |
| 2014-05-01T05:34 | 1826 | 816 | -1.1 | -9.2 | 323 | 15 |
| 2014-05-01T05:34 | 1836 | 815 | -1.2 | -9.2 | 322 | 15 |
| 2014-05-01T05:34 | 1847 | 814 | -1.3 | -9.2 | 322 | 15 |
| 2014-05-01T05:34 | 1858 | 813 | -1.4 | -9.2 | 322 | 15 |
| 2014-05-01T05:34 | 1869 | 812 | -1.5 | -9.2 | 321 | 15 |
| 2014-05-01T05:34 | 1880 | 811 | -1.6 | -9.2 | 321 | 15 |
| 2014-05-01T05:35 | 1891 | 809 | -1.7 | -9.2 | 321 | 15 |
| 2014-05-01T05:35 | 1904 | 808 | -1.8 | -9.1 | 320 | 15 |
| 2014-05-01T05:35 | 1915 | 807 | -1.9 | -9.0 | 320 | 15 |
| 2014-05-01T05:35 | 1926 | 806 | -2.0 | -8.9 | 320 | 15 |
| 2014-05-01T05:35 | 1937 | 805 | -2.0 | -8.8 | 320 | 15 |
| 2014-05-01T05:35 | 1946 | 804 | -2.1 | -8.8 | 319 | 15 |
| 2014-05-01T05:35 | 1956 | 803 | -2.2 | -8.8 | 319 | 15 |
| 2014-05-01T05:35 | 1968 | 802 | -2.3 | -8.6 | 319 | 15 |
| 2014-05-01T05:35 | 1982 | 800 | -2.5 | -8.5 | 319 | 15 |
| 2014-05-01T05:35 | 1993 | 799 | -2.6 | -8.4 | 319 | 15 |
| 2014-05-01T05:35 | 2001 | 798 | -2.6 | -8.4 | 319 | 15 |
| 2014-05-01T05:35 | 2009 | 797 | -2.7 | -8.4 | 319 | 16 |
| 2014-05-01T05:35 | 2018 | 797 | -2.8 | -8.4 | 319 | 16 |
| 2014-05-01T05:35 | 2028 | 796 | -2.9 | -8.5 | 319 | 16 |
| 2014-05-01T05:35 | 2039 | 795 | -3.0 | -8.5 | 319 | 16 |
| 2014-05-01T05:35 | 2048 | 794 | -3.1 | -8.5 | 319 | 16 |
| 2014-05-01T05:35 | 2058 | 793 | -3.1 | -8.5 | 319 | 16 |
| 2014-05-01T05:35 | 2068 | 792 | -3.2 | -8.5 | 319 | 16 |
| 2014-05-01T05:35 | 2078 | 791 | -3.3 | -8.5 | 319 | 17 |
| 2014-05-01T05:35 | 2087 | 790 | -3.3 | -8.5 | 319 | 17 |
| 2014-05-01T05:35 | 2098 | 789 | -3.4 | -8.5 | 319 | 17 |
| 2014-05-01T05:35 | 2109 | 788 | -3.4 | -8.6 | 319 | 17 |
| 2014-05-01T05:35 | 2120 | 786 | -3.4 | -8.7 | 319 | 17 |
| 2014-05-01T05:35 | 2132 | 785 | -3.5 | -8.9 | 319 | 17 |
| 2014-05-01T05:35 | 2143 | 784 | -3.5 | -8.9 | 319 | 18 |
| 2014-05-01T05:35 | 2153 | 783 | -3.6 | -9.0 | 319 | 18 |
| 2014-05-01T05:35 | 2164 | 782 | -3.7 | -9.2 | 318 | 18 |
| 2014-05-01T05:35 | 2173 | 781 | -3.8 | -9.2 | 318 | 18 |
| 2014-05-01T05:35 | 2181 | 780 | -3.9 | -9.2 | 318 | 18 |
| 2014-05-01T05:35 | 2190 | 780 | -4.0 | -9.2 | 318 | 18 |
| 2014-05-01T05:36 | 2199 | 779 | -4.1 | -9.3 | 318 | 18 |
| 2014-05-01T05:36 | 2209 | 778 | -4.2 | -9.3 | 318 | 18 |
| 2014-05-01T05:36 | 2219 | 777 | -4.3 | -9.4 | 318 | 18 |
| 2014-05-01T05:36 | 2228 | 776 | -4.3 | -9.4 | 318 | 18 |
| 2014-05-01T05:36 | 2238 | 775 | -4.4 | -9.4 | 318 | 18 |
| 2014-05-01T05:36 | 2247 | 774 | -4.5 | -9.5 | 318 | 18 |
| 2014-05-01T05:36 | 2256 | 773 | -4.6 | -9.6 | 318 | 18 |
| 2014-05-01T05:36 | 2266 | 772 | -4.7 | -9.6 | 318 | 18 |
| 2014-05-01T05:36 | 2278 | 771 | -4.8 | -9.8 | 318 | 18 |
| 2014-05-01T05:36 | 2288 | 770 | -4.9 | -9.9 | 318 | 18 |
| 2014-05-01T05:36 | 2298 | 769 | -5.0 | -9.9 | 319 | 18 |
| 2014-05-01T05:36 | 2308 | 768 | -5.1 | -9.9 | 319 | 18 |
| 2014-05-01T05:36 | 2317 | 767 | -5.2 | -9.9 | 319 | 19 |
| 2014-05-01T05:36 | 2326 | 766 | -5.2 | -9.9 | 319 | 19 |
| 2014-05-01T05:36 | 2337 | 765 | -5.3 | -9.8 | 319 | 19 |
| 2014-05-01T05:36 | 2347 | 764 | -5.4 | -9.8 | 318 | 19 |
| 2014-05-01T05:36 | 2357 | 763 | -5.5 | -9.8 | 318 | 19 |
| 2014-05-01T05:36 | 2368 | 762 | -5.6 | -9.8 | 318 | 19 |
| 2014-05-01T05:36 | 2382 | 761 | -5.7 | -9.8 | 318 | 19 |
| 2014-05-01T05:36 | 2396 | 759 | -5.9 | -9.9 | 318 | 19 |
| 2014-05-01T05:36 | 2407 | 758 | -5.9 | -9.9 | 318 | 19 |
| 2014-05-01T05:36 | 2416 | 757 | -6.0 | -9.9 | 318 | 19 |
| 2014-05-01T05:36 | 2426 | 756 | -6.1 | -9.9 | 318 | 19 |
| 2014-05-01T05:36 | 2435 | 756 | -6.2 | -10.0 | 318 | 19 |
| 2014-05-01T05:36 | 2445 | 755 | -6.3 | -10.0 | 318 | 19 |
| 2014-05-01T05:36 | 2454 | 754 | -6.4 | -10.0 | 318 | 19 |
| 2014-05-01T05:36 | 2462 | 753 | -6.4 | -10.1 | 318 | 19 |
| 2014-05-01T05:36 | 2469 | 752 | -6.5 | -10.1 | 318 | 19 |
| 2014-05-01T05:36 | 2478 | 751 | -6.6 | -10.2 | 318 | 19 |
| 2014-05-01T05:36 | 2488 | 750 | -6.7 | -10.3 | 318 | 19 |
| 2014-05-01T05:37 | 2499 | 749 | -6.7 | -10.4 | 319 | 20 |
| 2014-05-01T05:37 | 2511 | 748 | -6.8 | -10.5 | 319 | 20 |
| 2014-05-01T05:37 | 2521 | 747 | -6.8 | -10.6 | 319 | 20 |
| 2014-05-01T05:37 | 2531 | 746 | -6.9 | -10.6 | 320 | 20 |
| 2014-05-01T05:37 | 2543 | 745 | -7.0 | -10.7 | 320 | 21 |
| 2014-05-01T05:37 | 2553 | 744 | -7.0 | -10.8 | 321 | 21 |
| 2014-05-01T05:37 | 2565 | 743 | -7.1 | -10.8 | 321 | 21 |
| 2014-05-01T05:37 | 2576 | 742 | -7.1 | -10.9 | 321 | 21 |
| 2014-05-01T05:37 | 2585 | 741 | -7.2 | -10.9 | 322 | 22 |
| 2014-05-01T05:37 | 2594 | 740 | -7.2 | -10.9 | 322 | 22 |
| 2014-05-01T05:37 | 2605 | 739 | -7.3 | -10.9 | 322 | 22 |
| 2014-05-01T05:37 | 2617 | 738 | -7.3 | -10.8 | 322 | 22 |
| 2014-05-01T05:37 | 2627 | 737 | -7.3 | -10.8 | 322 | 23 |
| 2014-05-01T05:37 | 2634 | 737 | -7.3 | -10.8 | 321 | 23 |
| 2014-05-01T05:37 | 2641 | 736 | -7.1 | -11.0 | 321 | 23 |
| 2014-05-01T05:37 | 2649 | 735 | -7.0 | -11.1 | 321 | 23 |
| 2014-05-01T05:37 | 2657 | 734 | -6.9 | -11.3 | 320 | 23 |
| 2014-05-01T05:37 | 2666 | 734 | -6.8 | -11.4 | 320 | 23 |
| 2014-05-01T05:37 | 2677 | 733 | -6.8 | -11.7 | 319 | 23 |
| 2014-05-01T05:37 | 2687 | 732 | -6.8 | -11.9 | 318 | 23 |
| 2014-05-01T05:37 | 2695 | 731 | -6.8 | -12.0 | 318 | 23 |
| 2014-05-01T05:37 | 2704 | 730 | -6.8 | -12.1 | 317 | 23 |
| 2014-05-01T05:37 | 2714 | 729 | -6.8 | -12.3 | 316 | 23 |
| 2014-05-01T05:37 | 2724 | 728 | -6.8 | -12.4 | 316 | 23 |
| 2014-05-01T05:37 | 2735 | 727 | -6.9 | -12.6 | 315 | 23 |
| 2014-05-01T05:37 | 2745 | 726 | -6.9 | -12.7 | 315 | 23 |
| 2014-05-01T05:37 | 2755 | 725 | -7.0 | -12.8 | 314 | 23 |
| 2014-05-01T05:37 | 2766 | 724 | -7.1 | -12.9 | 314 | 22 |
| 2014-05-01T05:37 | 2777 | 723 | -7.1 | -12.9 | 314 | 22 |
| 2014-05-01T05:37 | 2788 | 722 | -7.1 | -13.0 | 313 | 22 |
| 2014-05-01T05:38 | 2796 | 721 | -7.1 | -13.0 | 313 | 21 |
| 2014-05-01T05:38 | 2804 | 721 | -7.2 | -13.0 | 313 | 21 |
| 2014-05-01T05:38 | 2812 | 720 | -7.2 | -13.0 | 313 | 21 |
| 2014-05-01T05:38 | 2819 | 719 | -7.2 | -13.0 | 313 | 20 |
| 2014-05-01T05:38 | 2828 | 718 | -7.2 | -13.0 | 313 | 20 |
| 2014-05-01T05:38 | 2839 | 717 | -7.3 | -13.1 | 314 | 20 |
| 2014-05-01T05:38 | 2852 | 716 | -7.3 | -13.0 | 314 | 19 |
| 2014-05-01T05:38 | 2865 | 715 | -7.2 | -13.0 | 314 | 19 |
| 2014-05-01T05:38 | 2877 | 714 | -7.1 | -12.9 | 314 | 19 |
| 2014-05-01T05:38 | 2888 | 713 | -7.0 | -12.8 | 314 | 18 |
| 2014-05-01T05:38 | 2900 | 712 | -7.0 | -12.8 | 315 | 18 |
| 2014-05-01T05:38 | 2912 | 711 | -6.9 | -12.7 | 315 | 18 |
| 2014-05-01T05:38 | 2924 | 710 | -6.8 | -12.7 | 315 | 18 |
| 2014-05-01T05:38 | 2933 | 709 | -6.7 | -12.7 | 316 | 18 |
| 2014-05-01T05:38 | 2944 | 708 | -6.7 | -12.9 | 316 | 18 |
| 2014-05-01T05:38 | 2955 | 707 | -6.7 | -13.0 | 317 | 18 |
| 2014-05-01T05:38 | 2965 | 706 | -6.7 | -13.1 | 317 | 18 |
| 2014-05-01T05:38 | 2977 | 705 | -6.8 | -13.3 | 317 | 18 |
| 2014-05-01T05:38 | 2988 | 704 | -6.8 | -13.5 | 318 | 18 |
| 2014-05-01T05:38 | 2999 | 703 | -6.7 | -13.7 | 318 | 18 |
| 2014-05-01T05:38 | 3008 | 702 | -6.7 | -13.8 | 318 | 18 |
| 2014-05-01T05:38 | 3018 | 701 | -6.8 | -13.9 | 318 | 18 |
| 2014-05-01T05:38 | 3029 | 700 | -6.8 | -14.0 | 319 | 18 |
| 2014-05-01T05:38 | 3039 | 699 | -6.9 | -14.1 | 319 | 18 |
| 2014-05-01T05:38 | 3049 | 698 | -7.0 | -14.1 | 319 | 19 |
| 2014-05-01T05:38 | 3057 | 698 | -7.1 | -14.2 | 319 | 19 |
| 2014-05-01T05:38 | 3064 | 697 | -7.1 | -14.3 | 319 | 19 |
| 2014-05-01T05:38 | 3071 | 696 | -7.0 | -14.4 | 318 | 19 |
| 2014-05-01T05:38 | 3079 | 696 | -7.1 | -14.5 | 318 | 19 |
| 2014-05-01T05:38 | 3090 | 695 | -7.1 | -14.6 | 318 | 19 |
| 2014-05-01T05:39 | 3100 | 694 | -7.1 | -14.7 | 318 | 19 |
| 2014-05-01T05:39 | 3109 | 693 | -7.2 | -14.8 | 318 | 19 |
| 2014-05-01T05:39 | 3120 | 692 | -7.2 | -14.9 | 318 | 20 |
| 2014-05-01T05:39 | 3131 | 691 | -7.2 | -15.0 | 318 | 20 |
| 2014-05-01T05:39 | 3142 | 690 | -7.3 | -15.0 | 318 | 20 |
| 2014-05-01T05:39 | 3150 | 689 | -7.3 | -15.1 | 318 | 20 |
| 2014-05-01T05:39 | 3157 | 689 | -7.3 | -15.1 | 318 | 20 |
| 2014-05-01T05:39 | 3164 | 688 | -7.3 | -15.1 | 318 | 20 |
| 2014-05-01T05:39 | 3172 | 687 | -7.3 | -15.1 | 317 | 20 |
| 2014-05-01T05:39 | 3181 | 687 | -7.4 | -15.2 | 317 | 20 |
| 2014-05-01T05:39 | 3190 | 686 | -7.4 | -15.2 | 317 | 20 |
| 2014-05-01T05:39 | 3199 | 685 | -7.5 | -15.2 | 317 | 20 |
| 2014-05-01T05:39 | 3208 | 684 | -7.6 | -15.3 | 317 | 20 |
| 2014-05-01T05:39 | 3219 | 683 | -7.6 | -15.3 | 317 | 20 |
| 2014-05-01T05:39 | 3231 | 682 | -7.7 | -15.3 | 317 | 20 |
| 2014-05-01T05:39 | 3241 | 681 | -7.7 | -15.3 | 317 | 20 |
| 2014-05-01T05:39 | 3250 | 681 | -7.8 | -15.3 | 317 | 21 |
| 2014-05-01T05:39 | 3260 | 680 | -7.8 | -15.3 | 317 | 21 |
| 2014-05-01T05:39 | 3271 | 679 | -7.9 | -15.3 | 317 | 21 |
| 2014-05-01T05:39 | 3283 | 678 | -7.9 | -15.3 | 317 | 21 |
| 2014-05-01T05:39 | 3294 | 677 | -7.8 | -15.3 | 317 | 21 |
| 2014-05-01T05:39 | 3305 | 676 | -7.7 | -15.4 | 317 | 21 |
| 2014-05-01T05:39 | 3316 | 675 | -7.7 | -15.6 | 317 | 21 |
| 2014-05-01T05:39 | 3328 | 674 | -7.6 | -16.0 | 316 | 21 |
| 2014-05-01T05:39 | 3340 | 673 | -7.6 | -16.4 | 316 | 22 |
| 2014-05-01T05:39 | 3352 | 672 | -7.6 | -16.7 | 316 | 22 |
| 2014-05-01T05:39 | 3363 | 671 | -7.6 | -17.0 | 316 | 22 |
| 2014-05-01T05:39 | 3375 | 670 | -7.7 | -17.3 | 316 | 22 |
| 2014-05-01T05:39 | 3387 | 669 | -7.8 | -17.4 | 315 | 22 |
| 2014-05-01T05:39 | 3398 | 668 | -7.9 | -17.5 | 315 | 22 |
| 2014-05-01T05:40 | 3410 | 667 | -8.0 | -17.7 | 315 | 22 |
| 2014-05-01T05:40 | 3422 | 666 | -8.1 | -17.7 | 314 | 22 |
| 2014-05-01T05:40 | 3433 | 665 | -8.2 | -17.7 | 314 | 22 |
| 2014-05-01T05:40 | 3444 | 664 | -8.3 | -17.7 | 314 | 22 |
| 2014-05-01T05:40 | 3456 | 663 | -8.4 | -17.8 | 314 | 22 |
| 2014-05-01T05:40 | 3467 | 662 | -8.5 | -17.8 | 313 | 22 |
| 2014-05-01T05:40 | 3478 | 661 | -8.6 | -17.9 | 313 | 22 |
| 2014-05-01T05:40 | 3490 | 660 | -8.7 | -18.0 | 313 | 22 |
| 2014-05-01T05:40 | 3501 | 659 | -8.8 | -18.1 | 313 | 22 |
| 2014-05-01T05:40 | 3510 | 658 | -8.9 | -18.3 | 313 | 22 |
| 2014-05-01T05:40 | 3518 | 658 | -9.0 | -18.4 | 312 | 22 |
| 2014-05-01T05:40 | 3526 | 657 | -9.0 | -18.4 | 312 | 21 |
| 2014-05-01T05:40 | 3534 | 656 | -9.1 | -18.5 | 312 | 21 |
| 2014-05-01T05:40 | 3542 | 655 | -9.2 | -18.6 | 312 | 21 |
| 2014-05-01T05:40 | 3551 | 655 | -9.3 | -18.7 | 312 | 21 |
| 2014-05-01T05:40 | 3560 | 654 | -9.4 | -18.9 | 311 | 21 |
| 2014-05-01T05:40 | 3568 | 653 | -9.4 | -19.3 | 311 | 22 |
| 2014-05-01T05:40 | 3578 | 652 | -9.5 | -20.6 | 311 | 22 |
| 2014-05-01T05:40 | 3589 | 651 | -9.4 | -24.7 | 311 | 22 |
| 2014-05-01T05:40 | 3602 | 650 | -9.3 | -35.7 | 310 | 22 |
| 2014-05-01T05:40 | 3613 | 649 | -9.2 | -38.8 | 310 | 22 |
| 2014-05-01T05:40 | 3625 | 648 | -9.1 | -37.2 | 310 | 22 |
| 2014-05-01T05:40 | 3636 | 648 | -9.1 | -35.3 | 310 | 22 |
| 2014-05-01T05:40 | 3645 | 647 | -9.1 | -34.5 | 309 | 22 |
| 2014-05-01T05:40 | 3654 | 646 | -9.1 | -34.5 | 309 | 22 |
| 2014-05-01T05:40 | 3664 | 645 | -9.1 | -34.1 | 309 | 22 |
| 2014-05-01T05:40 | 3673 | 644 | -9.2 | -32.9 | 309 | 22 |
| 2014-05-01T05:40 | 3683 | 644 | -9.3 | -31.7 | 309 | 22 |
| 2014-05-01T05:40 | 3692 | 643 | -9.4 | -31.0 | 309 | 22 |
| 2014-05-01T05:40 | 3701 | 642 | -9.4 | -29.8 | 309 | 23 |
| 2014-05-01T05:41 | 3712 | 641 | -9.5 | -27.5 | 309 | 23 |
| 2014-05-01T05:41 | 3723 | 640 | -9.6 | -26.0 | 308 | 23 |
| 2014-05-01T05:41 | 3733 | 640 | -9.6 | -24.8 | 308 | 23 |
| 2014-05-01T05:41 | 3743 | 639 | -9.7 | -23.7 | 308 | 23 |
| 2014-05-01T05:41 | 3753 | 638 | -9.7 | -23.6 | 308 | 23 |
| 2014-05-01T05:41 | 3764 | 637 | -9.8 | -24.1 | 307 | 24 |
| 2014-05-01T05:41 | 3774 | 636 | -9.8 | -24.4 | 307 | 24 |
| 2014-05-01T05:41 | 3784 | 635 | -9.9 | -24.6 | 307 | 24 |
| 2014-05-01T05:41 | 3794 | 634 | -10.0 | -24.7 | 307 | 24 |
| 2014-05-01T05:41 | 3805 | 634 | -10.1 | -24.8 | 307 | 24 |
| 2014-05-01T05:41 | 3815 | 633 | -10.2 | -24.8 | 307 | 24 |
| 2014-05-01T05:41 | 3824 | 632 | -10.3 | -24.9 | 307 | 24 |
| 2014-05-01T05:41 | 3832 | 631 | -10.3 | -25.0 | 307 | 24 |
| 2014-05-01T05:41 | 3841 | 631 | -10.4 | -25.1 | 307 | 24 |
| 2014-05-01T05:41 | 3849 | 630 | -10.5 | -25.2 | 307 | 23 |
| 2014-05-01T05:41 | 3857 | 629 | -10.6 | -25.3 | 307 | 23 |
| 2014-05-01T05:41 | 3866 | 629 | -10.6 | -25.2 | 307 | 23 |
| 2014-05-01T05:41 | 3875 | 628 | -10.7 | -24.8 | 307 | 23 |
| 2014-05-01T05:41 | 3885 | 627 | -10.8 | -24.2 | 307 | 23 |
| 2014-05-01T05:41 | 3895 | 626 | -10.9 | -24.0 | 307 | 23 |
| 2014-05-01T05:41 | 3907 | 625 | -10.9 | -24.0 | 307 | 23 |
| 2014-05-01T05:41 | 3923 | 624 | -11.1 | -24.1 | 307 | 22 |
| 2014-05-01T05:41 | 3938 | 623 | -11.2 | -24.3 | 307 | 22 |
| 2014-05-01T05:41 | 3949 | 622 | -11.3 | -24.3 | 307 | 22 |
| 2014-05-01T05:41 | 3960 | 621 | -11.4 | -24.2 | 307 | 22 |
| 2014-05-01T05:41 | 3970 | 620 | -11.5 | -24.2 | 307 | 22 |
| 2014-05-01T05:41 | 3979 | 619 | -11.6 | -24.1 | 307 | 22 |
| 2014-05-01T05:41 | 3989 | 619 | -11.7 | -24.0 | 307 | 22 |
| 2014-05-01T05:41 | 3999 | 618 | -11.8 | -24.0 | 307 | 22 |
| 2014-05-01T05:41 | 4011 | 617 | -11.9 | -23.9 | 307 | 22 |
| 2014-05-01T05:42 | 4022 | 616 | -12.0 | -23.8 | 308 | 22 |
| 2014-05-01T05:42 | 4033 | 615 | -12.1 | -23.5 | 308 | 21 |
| 2014-05-01T05:42 | 4045 | 614 | -12.2 | -23.3 | 308 | 21 |
| 2014-05-01T05:42 | 4055 | 613 | -12.3 | -23.2 | 309 | 21 |
| 2014-05-01T05:42 | 4066 | 612 | -12.4 | -23.1 | 309 | 21 |
| 2014-05-01T05:42 | 4079 | 611 | -12.5 | -22.9 | 309 | 21 |
| 2014-05-01T05:42 | 4093 | 610 | -12.6 | -22.6 | 309 | 21 |
| 2014-05-01T05:42 | 4105 | 609 | -12.8 | -22.5 | 310 | 21 |
| 2014-05-01T05:42 | 4114 | 609 | -12.8 | -22.4 | 310 | 21 |
| 2014-05-01T05:42 | 4124 | 608 | -12.9 | -22.4 | 310 | 21 |
| 2014-05-01T05:42 | 4133 | 607 | -13.0 | -22.4 | 309 | 21 |
| 2014-05-01T05:42 | 4141 | 606 | -13.0 | -22.3 | 309 | 21 |
| 2014-05-01T05:42 | 4148 | 606 | -13.1 | -22.2 | 309 | 21 |
| 2014-05-01T05:42 | 4158 | 605 | -13.2 | -22.1 | 309 | 21 |
| 2014-05-01T05:42 | 4169 | 604 | -13.3 | -22.0 | 308 | 21 |
| 2014-05-01T05:42 | 4180 | 603 | -13.3 | -22.0 | 308 | 21 |
| 2014-05-01T05:42 | 4191 | 602 | -13.4 | -22.0 | 308 | 21 |
| 2014-05-01T05:42 | 4203 | 601 | -13.4 | -21.6 | 307 | 21 |
| 2014-05-01T05:42 | 4214 | 601 | -13.5 | -21.1 | 307 | 20 |
| 2014-05-01T05:42 | 4224 | 600 | -13.5 | -21.0 | 306 | 20 |
| 2014-05-01T05:42 | 4235 | 599 | -13.6 | -21.0 | 306 | 20 |
| 2014-05-01T05:42 | 4247 | 598 | -13.6 | -20.9 | 305 | 20 |
| 2014-05-01T05:42 | 4260 | 597 | -13.7 | -20.6 | 305 | 20 |
| 2014-05-01T05:42 | 4271 | 596 | -13.8 | -20.4 | 304 | 20 |
| 2014-05-01T05:42 | 4280 | 595 | -13.8 | -20.4 | 303 | 19 |
| 2014-05-01T05:42 | 4291 | 594 | -13.8 | -20.6 | 303 | 19 |
| 2014-05-01T05:42 | 4301 | 594 | -13.8 | -20.7 | 302 | 19 |
| 2014-05-01T05:42 | 4308 | 593 | -13.9 | -20.7 | 302 | 19 |
| 2014-05-01T05:42 | 4316 | 593 | -13.9 | -20.8 | 301 | 19 |
| 2014-05-01T05:42 | 4325 | 592 | -14.0 | -20.9 | 301 | 19 |
| 2014-05-01T05:43 | 4334 | 591 | -14.0 | -21.0 | 301 | 19 |
| 2014-05-01T05:43 | 4343 | 590 | -14.0 | -21.0 | 301 | 19 |
| 2014-05-01T05:43 | 4351 | 590 | -14.1 | -21.0 | 301 | 19 |
| 2014-05-01T05:43 | 4359 | 589 | -14.1 | -21.0 | 301 | 19 |
| 2014-05-01T05:43 | 4368 | 588 | -14.2 | -21.0 | 301 | 19 |
| 2014-05-01T05:43 | 4378 | 588 | -14.3 | -21.0 | 302 | 19 |
| 2014-05-01T05:43 | 4389 | 587 | -14.4 | -21.0 | 302 | 19 |
| 2014-05-01T05:43 | 4401 | 586 | -14.5 | -21.0 | 302 | 19 |
| 2014-05-01T05:43 | 4413 | 585 | -14.6 | -21.0 | 302 | 19 |
| 2014-05-01T05:43 | 4425 | 584 | -14.7 | -21.1 | 303 | 19 |
| 2014-05-01T05:43 | 4435 | 583 | -14.8 | -21.0 | 303 | 19 |
| 2014-05-01T05:43 | 4444 | 583 | -14.9 | -21.0 | 303 | 19 |
| 2014-05-01T05:43 | 4452 | 582 | -14.9 | -21.0 | 303 | 20 |
| 2014-05-01T05:43 | 4461 | 581 | -15.0 | -21.1 | 302 | 20 |
| 2014-05-01T05:43 | 4468 | 581 | -15.0 | -21.1 | 302 | 20 |
| 2014-05-01T05:43 | 4476 | 580 | -15.1 | -21.1 | 302 | 20 |
| 2014-05-01T05:43 | 4485 | 579 | -15.1 | -21.2 | 301 | 21 |
| 2014-05-01T05:43 | 4495 | 579 | -15.2 | -21.4 | 300 | 21 |
| 2014-05-01T05:43 | 4505 | 578 | -15.2 | -21.6 | 300 | 21 |
| 2014-05-01T05:43 | 4513 | 577 | -15.2 | -21.7 | 299 | 21 |
| 2014-05-01T05:43 | 4521 | 577 | -15.1 | -21.8 | 298 | 21 |
| 2014-05-01T05:43 | 4528 | 576 | -15.0 | -22.0 | 297 | 22 |
| 2014-05-01T05:43 | 4537 | 575 | -14.9 | -22.3 | 296 | 22 |
| 2014-05-01T05:43 | 4548 | 575 | -14.8 | -22.4 | 296 | 22 |
| 2014-05-01T05:43 | 4559 | 574 | -14.7 | -22.4 | 295 | 22 |
| 2014-05-01T05:43 | 4569 | 573 | -14.7 | -22.4 | 294 | 22 |
| 2014-05-01T05:43 | 4582 | 572 | -14.6 | -22.4 | 293 | 22 |
| 2014-05-01T05:43 | 4594 | 571 | -14.6 | -22.4 | 293 | 22 |
| 2014-05-01T05:43 | 4606 | 570 | -14.6 | -22.4 | 292 | 22 |
| 2014-05-01T05:43 | 4616 | 570 | -14.7 | -22.4 | 292 | 22 |
| 2014-05-01T05:44 | 4626 | 569 | -14.8 | -22.5 | 291 | 22 |
| 2014-05-01T05:44 | 4636 | 568 | -14.9 | -22.5 | 291 | 22 |
| 2014-05-01T05:44 | 4646 | 567 | -14.9 | -22.5 | 291 | 22 |
| 2014-05-01T05:44 | 4655 | 567 | -15.0 | -22.6 | 291 | 22 |
| 2014-05-01T05:44 | 4666 | 566 | -15.0 | -22.6 | 291 | 22 |
| 2014-05-01T05:44 | 4679 | 565 | -15.1 | -22.6 | 291 | 22 |
| 2014-05-01T05:44 | 4693 | 564 | -15.0 | -22.6 | 291 | 22 |
| 2014-05-01T05:44 | 4704 | 563 | -14.9 | -22.6 | 291 | 22 |
| 2014-05-01T05:44 | 4711 | 562 | -15.0 | -22.7 | 291 | 22 |
| 2014-05-01T05:44 | 4718 | 562 | -15.0 | -22.7 | 291 | 22 |
| 2014-05-01T05:44 | 4726 | 561 | -15.1 | -22.7 | 292 | 22 |
| 2014-05-01T05:44 | 4734 | 561 | -15.1 | -22.8 | 292 | 21 |
| 2014-05-01T05:44 | 4743 | 560 | -15.2 | -22.8 | 292 | 21 |
| 2014-05-01T05:44 | 4751 | 559 | -15.3 | -22.9 | 293 | 21 |
| 2014-05-01T05:44 | 4759 | 559 | -15.3 | -22.9 | 293 | 21 |
| 2014-05-01T05:44 | 4767 | 558 | -15.4 | -22.9 | 293 | 21 |
| 2014-05-01T05:44 | 4775 | 558 | -15.5 | -22.9 | 294 | 21 |
| 2014-05-01T05:44 | 4783 | 557 | -15.5 | -22.9 | 294 | 21 |
| 2014-05-01T05:44 | 4790 | 557 | -15.4 | -22.9 | 294 | 21 |
| 2014-05-01T05:44 | 4798 | 556 | -15.4 | -22.9 | 294 | 20 |
| 2014-05-01T05:44 | 4806 | 555 | -15.3 | -23.1 | 294 | 20 |
| 2014-05-01T05:44 | 4815 | 555 | -15.3 | -23.3 | 295 | 20 |
| 2014-05-01T05:44 | 4822 | 554 | -15.3 | -23.4 | 295 | 20 |
| 2014-05-01T05:44 | 4829 | 554 | -15.3 | -23.4 | 295 | 20 |
| 2014-05-01T05:44 | 4838 | 553 | -15.4 | -23.5 | 295 | 20 |
| 2014-05-01T05:44 | 4847 | 552 | -15.4 | -23.6 | 295 | 20 |
| 2014-05-01T05:44 | 4858 | 552 | -15.4 | -23.8 | 295 | 20 |
| 2014-05-01T05:44 | 4868 | 551 | -15.5 | -23.9 | 294 | 20 |
| 2014-05-01T05:44 | 4876 | 550 | -15.5 | -23.9 | 294 | 20 |
| 2014-05-01T05:44 | 4883 | 550 | -15.6 | -24.0 | 294 | 20 |
| 2014-05-01T05:45 | 4891 | 549 | -15.6 | -24.0 | 294 | 20 |
| 2014-05-01T05:45 | 4899 | 549 | -15.6 | -24.0 | 294 | 20 |
| 2014-05-01T05:45 | 4907 | 548 | -15.6 | -24.0 | 294 | 20 |
| 2014-05-01T05:45 | 4915 | 547 | -15.6 | -24.0 | 294 | 20 |
| 2014-05-01T05:45 | 4923 | 547 | -15.6 | -24.0 | 294 | 20 |
| 2014-05-01T05:45 | 4931 | 546 | -15.6 | -24.2 | 294 | 20 |
| 2014-05-01T05:45 | 4939 | 546 | -15.7 | -24.3 | 294 | 20 |
| 2014-05-01T05:45 | 4947 | 545 | -15.7 | -24.2 | 294 | 20 |
| 2014-05-01T05:45 | 4955 | 545 | -15.7 | -24.4 | 294 | 20 |
| 2014-05-01T05:45 | 4963 | 544 | -15.8 | -24.7 | 294 | 20 |
| 2014-05-01T05:45 | 4970 | 543 | -15.8 | -25.0 | 294 | 20 |
| 2014-05-01T05:45 | 4979 | 543 | -15.9 | -25.2 | 294 | 20 |
| 2014-05-01T05:45 | 4987 | 542 | -15.9 | -25.2 | 294 | 20 |
| 2014-05-01T05:45 | 4994 | 542 | -15.9 | -25.1 | 294 | 20 |
| 2014-05-01T05:45 | 5002 | 541 | -15.9 | -25.1 | 294 | 20 |
| 2014-05-01T05:45 | 5011 | 541 | -16.0 | -25.4 | 294 | 20 |
| 2014-05-01T05:45 | 5019 | 540 | -16.0 | -25.4 | 294 | 20 |
| 2014-05-01T05:45 | 5028 | 539 | -16.1 | -25.0 | 295 | 20 |
| 2014-05-01T05:45 | 5037 | 539 | -16.1 | -24.5 | 295 | 20 |
| 2014-05-01T05:45 | 5045 | 538 | -16.2 | -24.5 | 295 | 19 |
| 2014-05-01T05:45 | 5053 | 538 | -16.2 | -24.6 | 295 | 19 |
| 2014-05-01T05:45 | 5061 | 537 | -16.3 | -24.7 | 295 | 19 |
| 2014-05-01T05:45 | 5068 | 536 | -16.3 | -24.6 | 295 | 19 |
| 2014-05-01T05:45 | 5077 | 536 | -16.4 | -24.5 | 295 | 19 |
| 2014-05-01T05:45 | 5086 | 535 | -16.4 | -24.6 | 296 | 19 |
| 2014-05-01T05:45 | 5094 | 535 | -16.5 | -24.8 | 296 | 19 |
| 2014-05-01T05:45 | 5102 | 534 | -16.5 | -25.1 | 296 | 19 |
| 2014-05-01T05:45 | 5109 | 533 | -16.5 | -25.2 | 297 | 19 |
| 2014-05-01T05:45 | 5117 | 533 | -16.6 | -25.1 | 297 | 19 |
| 2014-05-01T05:45 | 5126 | 532 | -16.6 | -25.0 | 297 | 19 |
| 2014-05-01T05:46 | 5135 | 532 | -16.6 | -25.1 | 298 | 18 |
| 2014-05-01T05:46 | 5143 | 531 | -16.7 | -25.2 | 298 | 18 |
| 2014-05-01T05:46 | 5151 | 531 | -16.8 | -25.2 | 299 | 18 |
| 2014-05-01T05:46 | 5159 | 530 | -16.8 | -25.2 | 299 | 18 |
| 2014-05-01T05:46 | 5167 | 529 | -16.8 | -25.2 | 300 | 18 |
| 2014-05-01T05:46 | 5177 | 529 | -16.9 | -25.2 | 300 | 18 |
| 2014-05-01T05:46 | 5186 | 528 | -16.9 | -25.3 | 301 | 18 |
| 2014-05-01T05:46 | 5195 | 527 | -17.0 | -25.2 | 301 | 18 |
| 2014-05-01T05:46 | 5204 | 527 | -17.0 | -25.1 | 302 | 18 |
| 2014-05-01T05:46 | 5213 | 526 | -17.1 | -25.0 | 302 | 18 |
| 2014-05-01T05:46 | 5221 | 526 | -17.1 | -25.0 | 303 | 17 |
| 2014-05-01T05:46 | 5230 | 525 | -17.2 | -25.0 | 303 | 17 |
| 2014-05-01T05:46 | 5240 | 524 | -17.3 | -25.0 | 304 | 17 |
| 2014-05-01T05:46 | 5252 | 523 | -17.4 | -25.0 | 304 | 17 |
| 2014-05-01T05:46 | 5265 | 523 | -17.5 | -25.1 | 305 | 17 |
| 2014-05-01T05:46 | 5279 | 522 | -17.6 | -25.2 | 305 | 17 |
| 2014-05-01T05:46 | 5292 | 521 | -17.6 | -25.1 | 306 | 17 |
| 2014-05-01T05:46 | 5303 | 520 | -17.7 | -25.1 | 306 | 17 |
| 2014-05-01T05:46 | 5314 | 519 | -17.7 | -25.2 | 306 | 17 |
| 2014-05-01T05:46 | 5324 | 518 | -17.8 | -25.3 | 307 | 17 |
| 2014-05-01T05:46 | 5333 | 518 | -17.8 | -25.5 | 307 | 17 |
Only the first 2000 rows were shown. To view the complete dataset, download it as tab-delimited text. You can still view the full matrix in your browser, but be aware that this may crash the browser due to the huge size.
